LiveATC.Net - Listen to live air traffic control over the Internet!
Airport/ARTCC Code
Frequency Search
(e.g., 124.400, 128.75)
Site-wide search
 


Browse Feeds
Top 50 Feeds
HF Oceanic Feeds
Coverage Map
Bad Weather Areas

LiveATC FAQ
Offer LiveATC feed
Contact LiveATC.net
Press Inquiries

LiveATC on iPhone
LiveATC on Android

Windows Phone
Windows 8/10

LiveATC Mobile
(Mobile browser)

ATC Audio Archives
Interesting Recordings

LiveATC Forums

Home Page
About LiveATC.net
Make a Donation
Terms of Use
Privacy Policy

Canadian Air Freqs

AIRMETs/SIGMETs

FAA Airport Status
NAS Status
Arrival Demand


Server Software By:
Icecast.org
Liquidsoap

Select an area of interest:
U.S. Feeds: Class B Airports | Class C Airports | Class D/Other Airports | ARTCC (Centers)
International Feeds: Canada | Europe | Oceania | Asia | South America | North/Central America | Africa
Misc Feeds: HF Feeds
Search by ICAO/IATA airport code:   (e.g., kbos, kjfk, lax, eham, etc.)


Currently Available Live Feeds: 2914
Status Updated: Sat Jul 24 2021 00:38:21 UTC


NOTICE

Unauthorized use prohibited. See LiveATC.net Terms of Service

U.S. Class D Airport and ARTCCC Feeds

 

KUES Del/Gnd/Twr/02C (Archives)
Brookfield, Wisconsin, United States

Feed Status: UP
Listen in your browser - HTML5 player(in browser, HTML5)
Click here to listen with your own player(launches your MP3 player)

KUES 232345Z 24009KT 10SM CLR 29/18 A3000

KUES Airport Info (Airnav.com)

KUES Flight Activity (Flightaware)

Listeners: 0 out of 1552 total

Capitol CTAF: 122.700
Waukesha Clearance Delivery: 128.700
Waukesha Ground: 121.600
Waukesha Tower: 123.700

0V4 CTAF (Archives)
Brookneal, Virginia, United States

Feed Status: UP
Listen in your browser - HTML5 player(in browser, HTML5)
Click here to listen with your own player(launches your MP3 player)

K0V4 Airport Info (Airnav.com)

K0V4 Flight Activity (Flightaware)

Listeners: 0 out of 1552 total

Brookneal CTAF: 122.700

14A CTAF
Mooresville, North Carolina, United States

Feed Status: DOWN
Offline since: 2021-07-02 21:47:38 UTC

Lake Norman CTAF: 122.800

SNJ Area CTAF 122.8 (Archives)
Cross Keys, New Jersey, United States

Feed Status: UP
Listen in your browser - HTML5 player(in browser, HTML5)
Click here to listen with your own player(launches your MP3 player)

KPNE 232354Z 31003KT 10SM CLR 26/12 A3009 RMK AO2 SLP188 T02560122 10289 20256 55005

KPNE Airport Info (Airnav.com)

KPNE Flight Activity (Flightaware)

Listeners: 0 out of 1552 total

CTAF: 122.800

MA/NH/RI/CT Area CTAF (Archives)
Hopedale, Massachusetts, United States

Feed Status: UP
Listen in your browser - HTML5 player(in browser, HTML5)
Click here to listen with your own player(launches your MP3 player)

KBOS 232354Z 00000KT 10SM FEW035 FEW065 SCT110 BKN250 24/12 A3008 RMK AO2 LTG DSNT SE SLP186 CB DSNT S T02390117 10250 20222 53007

KBOS Airport Info (Airnav.com)

KBOS Flight Activity (Flightaware)

Listeners: 0 out of 1552 total

Air-to-Air: 122.750
Bridgeport Flight Service: 122.200
CTAF: 122.700
CTAF: 122.800
CTAF: 122.900
CTAF: 123.000
Emergency/Guard: 121.500

MA/NH/RI/CT Area CTAF (Archives)
Hopedale, Massachusetts, United States

Feed Status: UP
Listen in your browser - HTML5 player(in browser, HTML5)
Click here to listen with your own player(launches your MP3 player)

KBOS 232354Z 00000KT 10SM FEW035 FEW065 SCT110 BKN250 24/12 A3008 RMK AO2 LTG DSNT SE SLP186 CB DSNT S T02390117 10250 20222 53007

KBOS Airport Info (Airnav.com)

KBOS Flight Activity (Flightaware)

Listeners: 0 out of 1552 total

Air-to-Air: 122.750
Bridgeport Flight Service: 122.200
CTAF: 122.700
CTAF: 122.800
CTAF: 122.900
CTAF: 123.000
Emergency/Guard: 121.500

MA/NH/RI/CT Area CTAF (Archives)
Hopedale, Massachusetts, United States

Feed Status: UP
Listen in your browser - HTML5 player(in browser, HTML5)
Click here to listen with your own player(launches your MP3 player)

KBOS 232354Z 00000KT 10SM FEW035 FEW065 SCT110 BKN250 24/12 A3008 RMK AO2 LTG DSNT SE SLP186 CB DSNT S T02390117 10250 20222 53007

KBOS Airport Info (Airnav.com)

KBOS Flight Activity (Flightaware)

Listeners: 0 out of 1552 total

Air-to-Air: 122.750
Bridgeport Flight Service: 122.200
CTAF: 122.700
CTAF: 122.800
CTAF: 122.900
CTAF: 123.000
Emergency/Guard: 121.500

1B9 Area Guard (Archives)
Mansfield, Massachusetts, United States

Feed Status: UP
Listen in your browser - HTML5 player(in browser, HTML5)
Click here to listen with your own player(launches your MP3 player)


Listeners: 0 out of 1552 total

Emergency/Guard: 121.500

1B9 CTAF #1 (Archives)
Mansfield, Massachusetts, United States

Feed Status: UP
Listen in your browser - HTML5 player(in browser, HTML5)
Click here to listen with your own player(launches your MP3 player)


Listeners: 0 out of 1552 total

Mansfield CTAF/UNICOM: 123.000

1B9 CTAF #2 (Archives)
Mansfield, Massachusetts, United States

Feed Status: UP
Listen in your browser - HTML5 player(in browser, HTML5)
Click here to listen with your own player(launches your MP3 player)


Listeners: 0 out of 1552 total

Mansfield CTAF/UNICOM: 123.000

1B9 CTAF/RCO (Archives)
Mansfield, Massachusetts, United States

Feed Status: UP
Listen in your browser - HTML5 player(in browser, HTML5)
Click here to listen with your own player(launches your MP3 player)


Listeners: 0 out of 1552 total

Bridgeport FSS (RCO): 122.500
Mansfield CTAF/UNICOM: 123.000

1B9 Del/RCO #1 (Archives)
Mansfield, Massachusetts, United States

Feed Status: UP
Listen in your browser - HTML5 player(in browser, HTML5)
Click here to listen with your own player(launches your MP3 player)


Listeners: 0 out of 1552 total

Mansfield Clearance Delivery (RCO): 122.500

1B9 Del/RCO #2 (Archives)
Mansfield, Massachusetts, United States

Feed Status: UP
Listen in your browser - HTML5 player(in browser, HTML5)
Click here to listen with your own player(launches your MP3 player)


Listeners: 0 out of 1552 total

Mansfield Clearance Delivery (RCO): 122.500

1C9 CTAF (Archives)
Hollister, California, United States

Feed Status: UP
Listen in your browser - HTML5 player(in browser, HTML5)
Click here to listen with your own player(launches your MP3 player)

K1C9 Airport Info (Airnav.com)

K1C9 Flight Activity (Flightaware)

Listeners: 0 out of 1552 total

Frazier CTAF: 123.050

KGBR/20N CTAF
Kingston, New York, United States

Feed Status: DOWN
Offline since: 2020-11-21 13:08:39 UTC

KGBR Airport Info (Airnav.com)

Great Barrington CTAF: 122.800

26MA CTAF (Archives)
Pepperell, Massachusetts, United States

Feed Status: UP
Listen in your browser - HTML5 player(in browser, HTML5)
Click here to listen with your own player(launches your MP3 player)

KMHT 232353Z 27003KT 10SM FEW050 SCT110 SCT250 22/13 A3007 RMK AO2 SLP192 60000 T02170128 10267 20211 51006

KMHT Airport Info (Airnav.com)

KMHT Flight Activity (Flightaware)

Listeners: 0 out of 1552 total

CTAF: 123.050

2B1 CTAF (Archives)
Marstons Mills, Massachusetts, United States

Feed Status: UP
Listen in your browser - HTML5 player(in browser, HTML5)
Click here to listen with your own player(launches your MP3 player)

KHYA 232356Z 20003KT 10SM CLR 22/16 A3008 RMK AO2 SLP185 6//// T02170156 10261 20217 53007 PNO $

KHYA Airport Info (Airnav.com)

KHYA Flight Activity (Flightaware)

Listeners: 0 out of 1552 total

Marstons Mills CTAF: 122.900

MA/NH/RI/CT Area CTAF (Archives)
Newburyport, Massachusetts, United States

Feed Status: UP
Listen in your browser - HTML5 player(in browser, HTML5)
Click here to listen with your own player(launches your MP3 player)

KBOS 232354Z 00000KT 10SM FEW035 FEW065 SCT110 BKN250 24/12 A3008 RMK AO2 LTG DSNT SE SLP186 CB DSNT S T02390117 10250 20222 53007

KBOS Airport Info (Airnav.com)

KBOS Flight Activity (Flightaware)

Listeners: 0 out of 1552 total

Air-to-Air: 122.750
Bridgeport Flight Service: 122.200
CTAF: 122.700
CTAF: 122.800
CTAF: 122.900
CTAF: 123.000
Emergency/Guard: 121.500

MA/NH/RI/CT Area CTAF (Archives)
Newburyport, Massachusetts, United States

Feed Status: UP
Listen in your browser - HTML5 player(in browser, HTML5)
Click here to listen with your own player(launches your MP3 player)

KBOS 232354Z 00000KT 10SM FEW035 FEW065 SCT110 BKN250 24/12 A3008 RMK AO2 LTG DSNT SE SLP186 CB DSNT S T02390117 10250 20222 53007

KBOS Airport Info (Airnav.com)

KBOS Flight Activity (Flightaware)

Listeners: 0 out of 1552 total

Air-to-Air: 122.750
Bridgeport Flight Service: 122.200
CTAF: 122.700
CTAF: 122.800
CTAF: 122.900
CTAF: 123.000
Emergency/Guard: 121.500

MA/NH/RI/CT Area CTAF (Archives)
Newburyport, Massachusetts, United States

Feed Status: UP
Listen in your browser - HTML5 player(in browser, HTML5)
Click here to listen with your own player(launches your MP3 player)

KBOS 232354Z 00000KT 10SM FEW035 FEW065 SCT110 BKN250 24/12 A3008 RMK AO2 LTG DSNT SE SLP186 CB DSNT S T02390117 10250 20222 53007

KBOS Airport Info (Airnav.com)

KBOS Flight Activity (Flightaware)

Listeners: 0 out of 1552 total

Air-to-Air: 122.750
Bridgeport Flight Service: 122.200
CTAF: 122.700
CTAF: 122.800
CTAF: 122.900
CTAF: 123.000
Emergency/Guard: 121.500

2GC CTAF
Fayetteville, North Carolina, United States

Feed Status: DOWN
Offline since: 2021-05-07 18:44:39 UTC

KFAY 232353Z 06004KT 10SM CLR 28/20 A3008 RMK AO2 SLP180 T02780200 10317 20278 53001

KFAY Airport Info (Airnav.com)

Grays Creek CTAF: 122.900

2NC0 CTAF (Archives)
Burnsville, North Carolina, United States

Feed Status: UP
Listen in your browser - HTML5 player(in browser, HTML5)
Click here to listen with your own player(launches your MP3 player)


Listeners: 0 out of 1552 total

Mountain Air CTAF: 122.725

2O3 CTAF (Archives)
Angwin, California, United States

Feed Status: UP
Listen in your browser - HTML5 player(in browser, HTML5)
Click here to listen with your own player(launches your MP3 player)


Listeners: 0 out of 1552 total

Angwin CTAF: 123.000

39N CTAF (Archives)
Princeton/Rocky Hill, New Jersey, United States

Feed Status: UP
Listen in your browser - HTML5 player(in browser, HTML5)
Click here to listen with your own player(launches your MP3 player)


Listeners: 0 out of 1552 total

Princeton CTAF: 122.725

3CK/KBUU CTAF (Archives)
Chicago/Lake In The Hills, Illinois, United States

Feed Status: UP
Listen in your browser - HTML5 player(in browser, HTML5)
Click here to listen with your own player(launches your MP3 player)

K3CK Airport Info (Airnav.com)

K3CK Flight Activity (Flightaware)

Listeners: 0 out of 1552 total

Lake in the Hills CTAF: 123.050

KLXT/3GV CTAF
Grain Valley, Missouri, United States

Feed Status: DOWN
Offline since: 2021-07-04 15:34:05 UTC

KOJC 232353Z 19007KT 10SM CLR 31/21 A3001 RMK AO2 SLP149 T03110211 10328 20306 58013

KOJC Airport Info (Airnav.com)

Lee's Summit/Grain Valley CTAF: 122.800

3M5 CTAF (Archives)
Huntsville, Alabama, United States

Feed Status: UP
Listen in your browser - HTML5 player(in browser, HTML5)
Click here to listen with your own player(launches your MP3 player)


Listeners: 0 out of 1552 total

Moontown CTAF: 122.700

3N6 CTAF (Archives)
Old Bridge, New Jersey, United States

Feed Status: UP
Listen in your browser - HTML5 player(in browser, HTML5)
Click here to listen with your own player(launches your MP3 player)


Listeners: 0 out of 1552 total

Old Bridge CTAF: 123.075

KBLM/N12/3N6/KMJX (Archives)
Old Bridge, New Jersey, United States

Feed Status: UP
Listen in your browser - HTML5 player(in browser, HTML5)
Click here to listen with your own player(launches your MP3 player)

KBLM 232356Z AUTO 15005KT 10SM SCT075 BKN100 24/16 A3010 RMK AO2 SLP191 6//// T02390156 10289 20239 55002 PNO $

KBLM Airport Info (Airnav.com)

KBLM Flight Activity (Flightaware)

Listeners: 0 out of 1552 total

3N6 Old Bridge CTAF: 123.075
Emergency/Guard: 121.500
Monmouth Clearance: 120.950
Monmouth Clearance: 126.150
Monmouth CTAF: 123.000
N12 Lakewood CTAF: 122.800
Ocean County KMJX CTAF: 122.700

3R9 CTAF (Archives)
Lakeway, Texas, United States

Feed Status: UP
Listen in your browser - HTML5 player(in browser, HTML5)
Click here to listen with your own player(launches your MP3 player)


Listeners: 0 out of 1552 total

Lakeway CTAF: 123.000

3S8 CTAF (Archives)
Grants Pass, Oregon, United States

Feed Status: UP
Listen in your browser - HTML5 player(in browser, HTML5)
Click here to listen with your own player(launches your MP3 player)


Listeners: 0 out of 1552 total

Grants Pass CTAF: 122.800

44N/KMGJ CTAF (Archives)
Millbrook, New York, United States

Feed Status: UP
Listen in your browser - HTML5 player(in browser, HTML5)
Click here to listen with your own player(launches your MP3 player)


Listeners: 0 out of 1552 total

44N Sky Acres CTAF: 122.800
CTAF 122.700: 122.700
CTAF 122.9: 122.900
KMGJ Orange County Clearance: 123.850
KMGJ Orange County CTAF: 122.725

46U AWOS (Archives)
Alpine, Wyoming, United States

Feed Status: UP
Listen in your browser - HTML5 player(in browser, HTML5)
Click here to listen with your own player(launches your MP3 player)


Listeners: 0 out of 1552 total

Alpine AWOS: 119.925

46U CTAF (Archives)
Alpine, Wyoming, United States

Feed Status: UP
Listen in your browser - HTML5 player(in browser, HTML5)
Click here to listen with your own player(launches your MP3 player)


Listeners: 0 out of 1552 total

Alpine CTAF: 122.900

47N CTAF (Archives)
Manville, New Jersey, United States

Feed Status: UP
Listen in your browser - HTML5 player(in browser, HTML5)
Click here to listen with your own player(launches your MP3 player)


Listeners: 0 out of 1552 total

Central Jersey CTAF: 122.700

NY1/4B0 CTAF
South Bethlehem, New York, United States

Feed Status: DOWN
Offline since: 2020-11-21 13:08:40 UTC

Kline Kill CTAF: 122.900

4NY8 CTAF (Archives)
Elmira, New York, United States

Feed Status: UP
Listen in your browser - HTML5 player(in browser, HTML5)
Click here to listen with your own player(launches your MP3 player)

KELM 232353Z 02004KT 10SM CLR 22/14 A3012 RMK AO2 SLP197 T02220139 10267 20222 55005

KELM Airport Info (Airnav.com)

KELM Flight Activity (Flightaware)

Listeners: 0 out of 1552 total

Harris Gliderport CTAF: 123.300

4S1 CTAF (Archives)
Gold Beach, Oregon, United States

Feed Status: UP
Listen in your browser - HTML5 player(in browser, HTML5)
Click here to listen with your own player(launches your MP3 player)

K4S1 Airport Info (Airnav.com)

K4S1 Flight Activity (Flightaware)

Listeners: 0 out of 1552 total

Gold Beach CTAF: 122.800

54AZ CTAF (Archives)
Somerton, Arizona, United States

Feed Status: UP
Listen in your browser - HTML5 player(in browser, HTML5)
Click here to listen with your own player(launches your MP3 player)


Listeners: 0 out of 1552 total

Somerton CTAF: 123.000

KMTC Area CTAF
Ray, Michigan, United States

Feed Status: DOWN
Offline since: 2021-07-07 02:46:05 UTC

KMTC 232356Z 15004KT 10SM FEW040 BKN075 OVC150 21/18 A3009 RMK AO2A RAB16E43 SLP192 P0000 60000 T02130183 10248 20213 57014 $

KMTC Airport Info (Airnav.com)

Air to Air: 123.450
Marine City CTAF (76G): 123.000
Port Huron CTAF: 123.050
Ray CTAF: 122.700
Romeo CTAF: 122.800
St Clair CTAF: 122.800
Troy CTAF: 123.050

5A2 Area Emergency/Guard
Warner Robins, Georgia, United States

Feed Status: DOWN
Offline since: 2021-06-17 02:51:04 UTC

Emergency/Guard: 121.500

5A2/5GE1 CTAF
Warner Robins, Georgia, United States

Feed Status: DOWN
Offline since: 2021-06-17 02:51:04 UTC

Warner Robins/Peachtree Landings CTAF: 122.900

5B6/KCQX/KPVC CTAF (Archives)
Falmouth, Massachusetts, United States

Feed Status: UP
Listen in your browser - HTML5 player(in browser, HTML5)
Click here to listen with your own player(launches your MP3 player)

KHYA 232356Z 20003KT 10SM CLR 22/16 A3008 RMK AO2 SLP185 6//// T02170156 10261 20217 53007 PNO $

KHYA Airport Info (Airnav.com)

KHYA Flight Activity (Flightaware)

Listeners: 0 out of 1552 total

Falmouth/Chatham/Provincetown CTAF: 122.800

5C1 CTAF (Archives)
San Antonio, Texas, United States

Feed Status: UP
Listen in your browser - HTML5 player(in browser, HTML5)
Click here to listen with your own player(launches your MP3 player)

K5C1 240015Z AUTO 18010G14KT 10SM CLR 30/20 A3006 RMK AO1

K5C1 Airport Info (Airnav.com)

K5C1 Flight Activity (Flightaware)

Listeners: 0 out of 1552 total

Boerne Stage CTAF: 123.000

5A2/5GE1 CTAF
Fort Valley, Georgia, United States

Feed Status: DOWN
Offline since: 2021-06-17 02:51:04 UTC

Warner Robins/Peachtree Landings CTAF: 122.900

KMTC Area CTAF
St Clair, Michigan, United States

Feed Status: DOWN
Offline since: 2021-07-07 02:46:05 UTC

KMTC 232356Z 15004KT 10SM FEW040 BKN075 OVC150 21/18 A3009 RMK AO2A RAB16E43 SLP192 P0000 60000 T02130183 10248 20213 57014 $

KMTC Airport Info (Airnav.com)

Air to Air: 123.450
Marine City CTAF (76G): 123.000
Port Huron CTAF: 123.050
Ray CTAF: 122.700
Romeo CTAF: 122.800
St Clair CTAF: 122.800
Troy CTAF: 123.050

MA/NH CTAF 122.8 (Archives)
Stow, Massachusetts, United States

Feed Status: UP
Listen in your browser - HTML5 player(in browser, HTML5)
Click here to listen with your own player(launches your MP3 player)

KMHT 232353Z 27003KT 10SM FEW050 SCT110 SCT250 22/13 A3007 RMK AO2 SLP192 60000 T02170128 10267 20211 51006

KMHT Airport Info (Airnav.com)

KMHT Flight Activity (Flightaware)

Listeners: 0 out of 1552 total

MA/NH Area CTAF: 122.800

MA/NH/RI/CT Area CTAF (Archives)
Stow, Massachusetts, United States

Feed Status: UP
Listen in your browser - HTML5 player(in browser, HTML5)
Click here to listen with your own player(launches your MP3 player)

KBOS 232354Z 00000KT 10SM FEW035 FEW065 SCT110 BKN250 24/12 A3008 RMK AO2 LTG DSNT SE SLP186 CB DSNT S T02390117 10250 20222 53007

KBOS Airport Info (Airnav.com)

KBOS Flight Activity (Flightaware)

Listeners: 0 out of 1552 total

Air-to-Air: 122.750
Bridgeport Flight Service: 122.200
CTAF: 122.700
CTAF: 122.800
CTAF: 122.900
CTAF: 123.000
Emergency/Guard: 121.500

MA/NH/RI/CT Area CTAF (Archives)
Stow, Massachusetts, United States

Feed Status: UP
Listen in your browser - HTML5 player(in browser, HTML5)
Click here to listen with your own player(launches your MP3 player)

KBOS 232354Z 00000KT 10SM FEW035 FEW065 SCT110 BKN250 24/12 A3008 RMK AO2 LTG DSNT SE SLP186 CB DSNT S T02390117 10250 20222 53007

KBOS Airport Info (Airnav.com)

KBOS Flight Activity (Flightaware)

Listeners: 0 out of 1552 total

Air-to-Air: 122.750
Bridgeport Flight Service: 122.200
CTAF: 122.700
CTAF: 122.800
CTAF: 122.900
CTAF: 123.000
Emergency/Guard: 121.500

MA/NH/RI/CT Area CTAF (Archives)
Stow, Massachusetts, United States

Feed Status: UP
Listen in your browser - HTML5 player(in browser, HTML5)
Click here to listen with your own player(launches your MP3 player)

KBOS 232354Z 00000KT 10SM FEW035 FEW065 SCT110 BKN250 24/12 A3008 RMK AO2 LTG DSNT SE SLP186 CB DSNT S T02390117 10250 20222 53007

KBOS Airport Info (Airnav.com)

KBOS Flight Activity (Flightaware)

Listeners: 0 out of 1552 total

Air-to-Air: 122.750
Bridgeport Flight Service: 122.200
CTAF: 122.700
CTAF: 122.800
CTAF: 122.900
CTAF: 123.000
Emergency/Guard: 121.500

6K5 CTAF
Sisters, Oregon, United States

Feed Status: DOWN
Offline since: 2021-05-10 22:35:38 UTC

K6K5 Airport Info (Airnav.com)

Sisters CTAF: 122.900

6N5 CTAF (Archives)
New York, New York, United States

Feed Status: UP
Listen in your browser - HTML5 player(in browser, HTML5)
Click here to listen with your own player(launches your MP3 player)

KJRA Airport Info (Airnav.com)

KJRA Flight Activity (Flightaware)

Listeners: 0 out of 1552 total

East 34th Street Heliport CTAF: 123.075

6N7 CTAF (Archives)
New York, New York, United States

Feed Status: UP
Listen in your browser - HTML5 player(in browser, HTML5)
Click here to listen with your own player(launches your MP3 player)

KJRA Airport Info (Airnav.com)

KJRA Flight Activity (Flightaware)

Listeners: 0 out of 1552 total

Skyports Inc Seaplane Base : 122.900

KMTC Area CTAF
Marine City, Michigan, United States

Feed Status: DOWN
Offline since: 2021-07-07 02:46:05 UTC

KMTC 232356Z 15004KT 10SM FEW040 BKN075 OVC150 21/18 A3009 RMK AO2A RAB16E43 SLP192 P0000 60000 T02130183 10248 20213 57014 $

KMTC Airport Info (Airnav.com)

Air to Air: 123.450
Marine City CTAF (76G): 123.000
Port Huron CTAF: 123.050
Ray CTAF: 122.700
Romeo CTAF: 122.800
St Clair CTAF: 122.800
Troy CTAF: 123.050

77S CTAF (Archives)
Creswell, Oregon, United States

Feed Status: UP
Listen in your browser - HTML5 player(in browser, HTML5)
Click here to listen with your own player(launches your MP3 player)


Listeners: 0 out of 1552 total

Creswell CTAF: 122.700

7B2 CTAF (Archives)
Northampton, Massachusetts, United States

Feed Status: UP
Listen in your browser - HTML5 player(in browser, HTML5)
Click here to listen with your own player(launches your MP3 player)


Listeners: 0 out of 1552 total

Northampton CTAF: 122.700

MA/NH CTAF 122.8 (Archives)
Hampton, New Hampshire, United States

Feed Status: UP
Listen in your browser - HTML5 player(in browser, HTML5)
Click here to listen with your own player(launches your MP3 player)

KMHT 232353Z 27003KT 10SM FEW050 SCT110 SCT250 22/13 A3007 RMK AO2 SLP192 60000 T02170128 10267 20211 51006

KMHT Airport Info (Airnav.com)

KMHT Flight Activity (Flightaware)

Listeners: 0 out of 1552 total

MA/NH Area CTAF: 122.800

7FL6 CTAF (Archives)
Daytona Beach, Florida, United States

Feed Status: UP
Listen in your browser - HTML5 player(in browser, HTML5)
Click here to listen with your own player(launches your MP3 player)


Listeners: 0 out of 1552 total

Spruce Creek CTAF/UNICOM: 122.725

7S5 CTAF (Archives)
Independence, Oregon, United States

Feed Status: UP
Listen in your browser - HTML5 player(in browser, HTML5)
Click here to listen with your own player(launches your MP3 player)


Listeners: 0 out of 1552 total

Independence CTAF/UNICOM: 122.975

A20 CTAF (Archives)
Bullhead City, Arizona, United States

Feed Status: UP
Listen in your browser - HTML5 player(in browser, HTML5)
Click here to listen with your own player(launches your MP3 player)


Listeners: 0 out of 1552 total

Sun Valley CTAF: 122.975

B18/Lake Area CTAF (Archives)
Alton Bay, New Hampshire, United States

Feed Status: UP
Listen in your browser - HTML5 player(in browser, HTML5)
Click here to listen with your own player(launches your MP3 player)

KLCI 232356Z AUTO 03007KT 10SM FEW060 SCT075 OVC100 19/15 A3011 RMK AO2 LTG DSNT N-E PRESRR SLP195 60010 T01940150 10244 20183 53008

KLCI Airport Info (Airnav.com)

KLCI Flight Activity (Flightaware)

Listeners: 0 out of 1552 total

NH Area CTAF (Lakes Region): 122.800

KMTC Area CTAF
Romeo, Michigan, United States

Feed Status: DOWN
Offline since: 2021-07-07 02:46:05 UTC

KMTC 232356Z 15004KT 10SM FEW040 BKN075 OVC150 21/18 A3009 RMK AO2A RAB16E43 SLP192 P0000 60000 T02130183 10248 20213 57014 $

KMTC Airport Info (Airnav.com)

Air to Air: 123.450
Marine City CTAF (76G): 123.000
Port Huron CTAF: 123.050
Ray CTAF: 122.700
Romeo CTAF: 122.800
St Clair CTAF: 122.800
Troy CTAF: 123.050

F45 CTAF/Dep
West Palm Beach, Florida, United States

Feed Status: DOWN
Offline since: 2021-05-19 07:38:22 UTC

KPBI 232353Z 21005KT 10SM SCT030 BKN160 BKN220 27/23 A3002 RMK AO2 LTG DSNT W TSB16E40 SLP165 CB DSNT W NW 60059 T02670233 10328 20261 56006 $

KPBI Airport Info (Airnav.com)

North County CTAF: 123.075
Palm Beach Departure (North): 128.300

KGIF/F57 CTAF (Archives)
Winter Haven, Florida, United States

Feed Status: UP
Listen in your browser - HTML5 player(in browser, HTML5)
Click here to listen with your own player(launches your MP3 player)

KGIF 232353Z AUTO 11008KT 10SM FEW120 26/23 A3007 RMK AO2 LTG DSNT ALQDS RAB00E17 SLP179 P0000 60005 T02610228 10350 20250 53017

KGIF Airport Info (Airnav.com)

KGIF Flight Activity (Flightaware)

Listeners: 0 out of 1552 total

Winter Haven CTAF: 123.050

F70 CTAF (Archives)
Murrieta/Temecula, California, United States

Feed Status: UP
Listen in your browser - HTML5 player(in browser, HTML5)
Click here to listen with your own player(launches your MP3 player)

KF70 240015Z AUTO 21009G15KT 10SM CLR 29/14 A3002 RMK AO2

KF70 Airport Info (Airnav.com)

KF70 Flight Activity (Flightaware)

Listeners: 0 out of 1552 total

French Valley CTAF: 122.800

FA40 CTAF (Archives)
New Port Richey, Florida, United States

Feed Status: UP
Listen in your browser - HTML5 player(in browser, HTML5)
Click here to listen with your own player(launches your MP3 player)


Listeners: 0 out of 1552 total

Hidden Lake CTAF: 123.000

I35 CTAF/ZID (Archives)
Harlan, Kentucky, United States

Feed Status: UP
Listen in your browser - HTML5 player(in browser, HTML5)
Click here to listen with your own player(launches your MP3 player)

KI35 240015Z AUTO 00000KT 10SM CLR 25/17 A3013 RMK AO2 T02500170

KI35 Airport Info (Airnav.com)

KI35 Flight Activity (Flightaware)

Listeners: 0 out of 1552 total

Harlan CTAF: 122.800
Indy Center (Sector 21 London Low): 121.325
Indy Center (Sector 21 London Low): 124.625
Indy Center (Sector 25 AZQ Low): 126.575

I40 AWOS (Archives)
Coshocton, Ohio, United States

Feed Status: UP
Listen in your browser - HTML5 player(in browser, HTML5)
Click here to listen with your own player(launches your MP3 player)


Listeners: 0 out of 1552 total

Coshocton AWOS: 118.875

I40 CTAF (Archives)
Coshocton, Ohio, United States

Feed Status: UP
Listen in your browser - HTML5 player(in browser, HTML5)
Click here to listen with your own player(launches your MP3 player)


Listeners: 0 out of 1552 total

Coshocton CTAF: 123.000

K1H0 CTAF/Unicom (Archives)
St. Louis, Missouri, United States

Feed Status: UP
Listen in your browser - HTML5 player(in browser, HTML5)
Click here to listen with your own player(launches your MP3 player)

K1H0 Airport Info (Airnav.com)

K1H0 Flight Activity (Flightaware)

Listeners: 1 out of 1552 total

Creve Coeur CTAF: 122.800

KIXD Ground/Tower/K34 (Archives)
Gardner, Kansas, United States

Feed Status: UP
Listen in your browser - HTML5 player(in browser, HTML5)
Click here to listen with your own player(launches your MP3 player)

KIXD 232353Z 19012KT 10SM CLR 32/20 A3001 RMK AO2 SLP149 T03220200 10339 20317 58013

KIXD Airport Info (Airnav.com)

KIXD Flight Activity (Flightaware)

Listeners: 1 out of 1552 total

K34 CTAF: 122.800
New Century Ground: 124.300
New Century Tower: 133.000

KAAO CTAF/KBEC Twr
Wichita, Kansas, United States

Feed Status: DOWN
Offline since: 2021-07-20 03:17:38 UTC

KAAO 232354Z AUTO 16014G23KT 10SM CLR 33/19 A2997 RMK AO2 SLP134 T03330194 10361 20322 58014

KAAO Airport Info (Airnav.com)

Beech Tower: 126.800
Jabara CTAF: 122.700

KACK App/Dep (Archives)
Nantucket, Massachusetts, United States

Feed Status: UP
Listen in your browser - HTML5 player(in browser, HTML5)
Click here to listen with your own player(launches your MP3 player)

KACK 232353Z 00000KT 10SM CLR 21/15 A3009 RMK AO2 SLP188 T02060150 10278 20206 53007

KACK Airport Info (Airnav.com)

KACK Flight Activity (Flightaware)

Listeners: 1 out of 1552 total

Cape Approach (Nantucket Sector): 126.100

KACK ATIS (Archives)
Nantucket, Massachusetts, United States

Feed Status: UP
Listen in your browser - HTML5 player(in browser, HTML5)
Click here to listen with your own player(launches your MP3 player)

KACK 232353Z 00000KT 10SM CLR 21/15 A3009 RMK AO2 SLP188 T02060150 10278 20206 53007

KACK Airport Info (Airnav.com)

KACK Flight Activity (Flightaware)

Listeners: 0 out of 1552 total

Nantucket ATIS: 127.500

KACK Ground (Archives)
Nantucket, Massachusetts, United States

Feed Status: UP
Listen in your browser - HTML5 player(in browser, HTML5)
Click here to listen with your own player(launches your MP3 player)

KACK 232353Z 00000KT 10SM CLR 21/15 A3009 RMK AO2 SLP188 T02060150 10278 20206 53007

KACK Airport Info (Airnav.com)

KACK Flight Activity (Flightaware)

Listeners: 0 out of 1552 total

Nantucket Clearance Delivery: 119.375
Nantucket Ground: 132.500

KACK Tower (Archives)
Nantucket, Massachusetts, United States

Feed Status: UP
Listen in your browser - HTML5 player(in browser, HTML5)
Click here to listen with your own player(launches your MP3 player)

KACK 232353Z 00000KT 10SM CLR 21/15 A3009 RMK AO2 SLP188 T02060150 10278 20206 53007

KACK Airport Info (Airnav.com)

KACK Flight Activity (Flightaware)

Listeners: 0 out of 1552 total

Nantucket Tower: 118.300

KADS ATIS (Archives)
Dallas, Texas, United States

Feed Status: UP
Listen in your browser - HTML5 player(in browser, HTML5)
Click here to listen with your own player(launches your MP3 player)

KADS 232347Z 18006G16KT 10SM SCT055 34/19 A3000

KADS Airport Info (Airnav.com)

KADS Flight Activity (Flightaware)

Listeners: 0 out of 1552 total

Addison ATIS: 133.400
Addison ATIS/AWOS: 133.400

KADS Ground (Archives)
Dallas, Texas, United States

Feed Status: UP
Listen in your browser - HTML5 player(in browser, HTML5)
Click here to listen with your own player(launches your MP3 player)

KADS 232347Z 18006G16KT 10SM SCT055 34/19 A3000

KADS Airport Info (Airnav.com)

KADS Flight Activity (Flightaware)

Listeners: 0 out of 1552 total

Addison Ground: 121.600

KADS Tower (Archives)
Dallas, Texas, United States

Feed Status: UP
Listen in your browser - HTML5 player(in browser, HTML5)
Click here to listen with your own player(launches your MP3 player)

KADS 232347Z 18006G16KT 10SM SCT055 34/19 A3000

KADS Airport Info (Airnav.com)

KADS Flight Activity (Flightaware)

Listeners: 1 out of 1552 total

Addison Tower: 126.000

KDAA/KADW Tower (Archives)
Camp Springs, Maryland, United States

Feed Status: UP
Listen in your browser - HTML5 player(in browser, HTML5)
Click here to listen with your own player(launches your MP3 player)



KDAA Airport Info (Airnav.com)

KDAA Flight Activity (Flightaware)

Listeners: 0 out of 1552 total

Andrews Tower: 118.400
Andrews Tower: 349.000
Davison Tower: 241.000
Davison Tower: 126.300
Davison Tower: 229.400

KAEG Twr/App (Archives)
Albuquerque, New Mexico, United States

Feed Status: UP
Listen in your browser - HTML5 player(in browser, HTML5)
Click here to listen with your own player(launches your MP3 player)

KABQ 232352Z 16012KT 10SM FEW020 SCT080 BKN140 BKN220 24/15 A3014 RMK CB DSNT S-SW

KABQ Airport Info (Airnav.com)

KABQ Flight Activity (Flightaware)

Listeners: 0 out of 1552 total

Double Eagle II Ground: 121.625
Double Eagle II Tower: 120.150
Double Eagle II Tower Clearance: 124.800

MA/NH CTAF 122.8 (Archives)
Jaffrey, New Hampshire, United States

Feed Status: UP
Listen in your browser - HTML5 player(in browser, HTML5)
Click here to listen with your own player(launches your MP3 player)

KMHT 232353Z 27003KT 10SM FEW050 SCT110 SCT250 22/13 A3007 RMK AO2 SLP192 60000 T02170128 10267 20211 51006

KMHT Airport Info (Airnav.com)

KMHT Flight Activity (Flightaware)

Listeners: 0 out of 1552 total

MA/NH Area CTAF: 122.800

KAFW ATIS (Archives)
Fort Worth, Texas, United States

Feed Status: UP
Listen in your browser - HTML5 player(in browser, HTML5)
Click here to listen with your own player(launches your MP3 player)

KAFW 232353Z 18011KT 10SM SCT060TCU 33/21 A2998 RMK AO2 SLP136 TCU N S-SW T03330206 10350 20306 56017

KAFW Airport Info (Airnav.com)

KAFW Flight Activity (Flightaware)

Listeners: 0 out of 1552 total

Alliance ATIS: 126.925

KAFW Regional App (North) (Archives)
Fort Worth, Texas, United States

Feed Status: UP
Listen in your browser - HTML5 player(in browser, HTML5)
Click here to listen with your own player(launches your MP3 player)

KAFW 232353Z 18011KT 10SM SCT060TCU 33/21 A2998 RMK AO2 SLP136 TCU N S-SW T03330206 10350 20306 56017

KAFW Airport Info (Airnav.com)

KAFW Flight Activity (Flightaware)

Listeners: 0 out of 1552 total

Regional Approach (North): 118.100

KAFW Tower/Heli (Archives)
Fort Worth, Texas, United States

Feed Status: UP
Listen in your browser - HTML5 player(in browser, HTML5)
Click here to listen with your own player(launches your MP3 player)

KAFW 232353Z 18011KT 10SM SCT060TCU 33/21 A2998 RMK AO2 SLP136 TCU N S-SW T03330206 10350 20306 56017

KAFW Airport Info (Airnav.com)

KAFW Flight Activity (Flightaware)

Listeners: 1 out of 1552 total

Alliance Tower: 135.150
Alliance Tower (Helicopters): 120.850

KAFW Tower/Heli/App (Archives)
Fort Worth, Texas, United States

Feed Status: UP
Listen in your browser - HTML5 player(in browser, HTML5)
Click here to listen with your own player(launches your MP3 player)

KAFW 232353Z 18011KT 10SM SCT060TCU 33/21 A2998 RMK AO2 SLP136 TCU N S-SW T03330206 10350 20306 56017

KAFW Airport Info (Airnav.com)

KAFW Flight Activity (Flightaware)

Listeners: 1 out of 1552 total

Alliance Tower: 135.150
Alliance Tower (Helicopters): 120.850
Regional Approach (North): 118.100

KAHN Tower (Archives)
Athens, Georgia, United States

Feed Status: UP
Listen in your browser - HTML5 player(in browser, HTML5)
Click here to listen with your own player(launches your MP3 player)

KAHN 232351Z 00000KT 9SM CLR 29/23 A3007 RMK AO2 SLP176 T02940228 10344 20294 55000

KAHN Airport Info (Airnav.com)

KAHN Flight Activity (Flightaware)

Listeners: 1 out of 1552 total

Athens Tower: 126.300

KAMW CTAF (Archives)
Ames, Iowa, United States

Feed Status: UP
Listen in your browser - HTML5 player(in browser, HTML5)
Click here to listen with your own player(launches your MP3 player)

KAMW 232353Z AUTO 21008KT 10SM CLR 30/21 A2997 RMK AO2 SLP136 T03000211 10322 20300 58008

KAMW Airport Info (Airnav.com)

KAMW Flight Activity (Flightaware)

Listeners: 1 out of 1552 total

Ames CTAF: 122.700

KANE Twr/CTAF (Archives)
Minneapolis, Minnesota, United States

Feed Status: UP
Listen in your browser - HTML5 player(in browser, HTML5)
Click here to listen with your own player(launches your MP3 player)



KANE Airport Info (Airnav.com)

KANE Flight Activity (Flightaware)

Listeners: 0 out of 1552 total

Anoka Tower/CTAF: 132.400

KANK CTAF (Archives)
Salida, Colorado, United States

Feed Status: UP
Listen in your browser - HTML5 player(in browser, HTML5)
Click here to listen with your own player(launches your MP3 player)

KANK 240015Z AUTO 35023G33KT 10SM SCT080 BKN100 24/11 A3035 RMK AO1 T02390105

KANK Airport Info (Airnav.com)

KANK Flight Activity (Flightaware)

Listeners: 0 out of 1552 total

Salida CTAF: 122.700

KAPA App/Dep (Archives)
Denver, Colorado, United States

Feed Status: UP
Listen in your browser - HTML5 player(in browser, HTML5)
Click here to listen with your own player(launches your MP3 player)

KAPA 232353Z 34018G24KT 10SM BKN095 BKN120 BKN220 26/12 A3021 RMK AO2 PK WND 01034/2318 SLP154 T02560117 10333 20256 53013

KAPA Airport Info (Airnav.com)

KAPA Flight Activity (Flightaware)

Listeners: 0 out of 1552 total

Denver Approach/Departure: 132.750

KAPA Del/Gnd (Archives)
Denver, Colorado, United States

Feed Status: UP
Listen in your browser - HTML5 player(in browser, HTML5)
Click here to listen with your own player(launches your MP3 player)

KAPA 232353Z 34018G24KT 10SM BKN095 BKN120 BKN220 26/12 A3021 RMK AO2 PK WND 01034/2318 SLP154 T02560117 10333 20256 53013

KAPA Airport Info (Airnav.com)

KAPA Flight Activity (Flightaware)

Listeners: 0 out of 1552 total

Centennial Clearance Delivery: 128.600
Centennial Ground: 121.800

KAPA Tower (Primary) (Archives)
Denver, Colorado, United States

Feed Status: UP
Listen in your browser - HTML5 player(in browser, HTML5)
Click here to listen with your own player(launches your MP3 player)

KAPA 232353Z 34018G24KT 10SM BKN095 BKN120 BKN220 26/12 A3021 RMK AO2 PK WND 01034/2318 SLP154 T02560117 10333 20256 53013

KAPA Airport Info (Airnav.com)

KAPA Flight Activity (Flightaware)

Listeners: 1 out of 1552 total

Centennial Tower: 118.900

KAPA Tower (Secondary #1) (Archives)
Denver, Colorado, United States

Feed Status: UP
Listen in your browser - HTML5 player(in browser, HTML5)
Click here to listen with your own player(launches your MP3 player)

KAPA 232353Z 34018G24KT 10SM BKN095 BKN120 BKN220 26/12 A3021 RMK AO2 PK WND 01034/2318 SLP154 T02560117 10333 20256 53013

KAPA Airport Info (Airnav.com)

KAPA Flight Activity (Flightaware)

Listeners: 0 out of 1552 total

Centennial Tower (Rwy 17R/35L or Rwy 28): 123.700

KAPA Tower (Secondary #2) (Archives)
Denver, Colorado, United States

Feed Status: UP
Listen in your browser - HTML5 player(in browser, HTML5)
Click here to listen with your own player(launches your MP3 player)

KAPA 232353Z 34018G24KT 10SM BKN095 BKN120 BKN220 26/12 A3021 RMK AO2 PK WND 01034/2318 SLP154 T02560117 10333 20256 53013

KAPA Airport Info (Airnav.com)

KAPA Flight Activity (Flightaware)

Listeners: 0 out of 1552 total

Centennial Tower (Rwy 17R/35L or Rwy 28): 124.600

KAPC Del/Gnd (Archives)
Napa, California, United States

Feed Status: UP
Listen in your browser - HTML5 player(in browser, HTML5)
Click here to listen with your own player(launches your MP3 player)

KAPC 232354Z 20014KT 10SM CLR 23/14 A2996 RMK AO2 SLP136 T02280144 10256 20189 57009

KAPC Airport Info (Airnav.com)

KAPC Flight Activity (Flightaware)

Listeners: 0 out of 1552 total

Napa Clearance Delivery: 127.850
Napa Ground: 121.700

KAPC Tower (Archives)
Napa, California, United States

Feed Status: UP
Listen in your browser - HTML5 player(in browser, HTML5)
Click here to listen with your own player(launches your MP3 player)

KAPC 232354Z 20014KT 10SM CLR 23/14 A2996 RMK AO2 SLP136 T02280144 10256 20189 57009

KAPC Airport Info (Airnav.com)

KAPC Flight Activity (Flightaware)

Listeners: 0 out of 1552 total

Napa Tower: 118.700

KAPF ATIS (Archives)
Naples, Florida, United States

Feed Status: UP
Listen in your browser - HTML5 player(in browser, HTML5)
Click here to listen with your own player(launches your MP3 player)

KAPF 232353Z 30009KT 10SM CLR 31/25 A3005 RMK AO2 LTG DSNT NE PRESRR SLP173 T03060250 10333 20306 53007

KAPF Airport Info (Airnav.com)

KAPF Flight Activity (Flightaware)

Listeners: 0 out of 1552 total

Naples ATIS: 134.225

KAPF Del/Gnd (Archives)
Naples, Florida, United States

Feed Status: UP
Listen in your browser - HTML5 player(in browser, HTML5)
Click here to listen with your own player(launches your MP3 player)

KAPF 232353Z 30009KT 10SM CLR 31/25 A3005 RMK AO2 LTG DSNT NE PRESRR SLP173 T03060250 10333 20306 53007

KAPF Airport Info (Airnav.com)

KAPF Flight Activity (Flightaware)

Listeners: 0 out of 1552 total

Naples Clearance Delivery: 118.000
Naples Ground: 121.600

KAPF Del/Gnd/Twr (Archives)
Naples, Florida, United States

Feed Status: UP
Listen in your browser - HTML5 player(in browser, HTML5)
Click here to listen with your own player(launches your MP3 player)

KAPF 232353Z 30009KT 10SM CLR 31/25 A3005 RMK AO2 LTG DSNT NE PRESRR SLP173 T03060250 10333 20306 53007

KAPF Airport Info (Airnav.com)

KAPF Flight Activity (Flightaware)

Listeners: 0 out of 1552 total

Naples Clearance Delivery: 118.000
Naples Ground: 121.600
Naples Tower: 128.500

KAPF Ft Myers App/Dep (Archives)
Naples, Florida, United States

Feed Status: UP
Listen in your browser - HTML5 player(in browser, HTML5)
Click here to listen with your own player(launches your MP3 player)

KAPF 232353Z 30009KT 10SM CLR 31/25 A3005 RMK AO2 LTG DSNT NE PRESRR SLP173 T03060250 10333 20306 53007

KAPF Airport Info (Airnav.com)

KAPF Flight Activity (Flightaware)

Listeners: 0 out of 1552 total

Fort Myers Approach/Departure: 124.125
Fort Myers Approach/Departure: 126.800

KAPF Tower (Archives)
Naples, Florida, United States

Feed Status: UP
Listen in your browser - HTML5 player(in browser, HTML5)
Click here to listen with your own player(launches your MP3 player)

KAPF 232353Z 30009KT 10SM CLR 31/25 A3005 RMK AO2 LTG DSNT NE PRESRR SLP173 T03060250 10333 20306 53007

KAPF Airport Info (Airnav.com)

KAPF Flight Activity (Flightaware)

Listeners: 0 out of 1552 total

Naples Tower: 128.500

KAPN App/Dep/ZMP (Archives)
Alpena, Michigan, United States

Feed Status: UP
Listen in your browser - HTML5 player(in browser, HTML5)
Click here to listen with your own player(launches your MP3 player)

KAPN 232354Z AUTO 12005KT 10SM CLR 22/18 A3004 RMK AO2 SLP172 T02220183 10267 20222 56015

KAPN Airport Info (Airnav.com)

KAPN Flight Activity (Flightaware)

Listeners: 2 out of 1552 total

Alpena Approach/Departure: 128.425
Minneapolis Center (Sector 01 Low): 125.475

KAPN Tower (Archives)
Alpena, Michigan, United States

Feed Status: UP
Listen in your browser - HTML5 player(in browser, HTML5)
Click here to listen with your own player(launches your MP3 player)

KAPN 232354Z AUTO 12005KT 10SM CLR 22/18 A3004 RMK AO2 SLP172 T02220183 10267 20222 56015

KAPN Airport Info (Airnav.com)

KAPN Flight Activity (Flightaware)

Listeners: 0 out of 1552 total

Alpena Tower: 121.350

KARB ATIS (Archives)
Ann Arbor, Michigan, United States

Feed Status: UP
Listen in your browser - HTML5 player(in browser, HTML5)
Click here to listen with your own player(launches your MP3 player)

KARB 240004Z AUTO 13004KT 9SM SCT019 22/19 A3009 RMK AO2 T02220194

KARB Airport Info (Airnav.com)

KARB Flight Activity (Flightaware)

Listeners: 1 out of 1552 total

Ann Arbor ATIS: 134.550

KARB Gnd/Twr (Archives)
Ann Arbor, Michigan, United States

Feed Status: UP
Listen in your browser - HTML5 player(in browser, HTML5)
Click here to listen with your own player(launches your MP3 player)

KARB 240004Z AUTO 13004KT 9SM SCT019 22/19 A3009 RMK AO2 T02220194

KARB Airport Info (Airnav.com)

KARB Flight Activity (Flightaware)

Listeners: 0 out of 1552 total

Ann Arbor Ground: 121.600
Ann Arbor Tower: 120.300

KARB Ground (Archives)
Ann Arbor, Michigan, United States

Feed Status: UP
Listen in your browser - HTML5 player(in browser, HTML5)
Click here to listen with your own player(launches your MP3 player)

KARB 240004Z AUTO 13004KT 9SM SCT019 22/19 A3009 RMK AO2 T02220194

KARB Airport Info (Airnav.com)

KARB Flight Activity (Flightaware)

Listeners: 0 out of 1552 total

Ann Arbor Ground: 121.600

KARB Tower (Archives)
Ann Arbor, Michigan, United States

Feed Status: UP
Listen in your browser - HTML5 player(in browser, HTML5)
Click here to listen with your own player(launches your MP3 player)

KARB 240004Z AUTO 13004KT 9SM SCT019 22/19 A3009 RMK AO2 T02220194

KARB Airport Info (Airnav.com)

KARB Flight Activity (Flightaware)

Listeners: 0 out of 1552 total

Ann Arbor Tower: 120.300

KARG CTAF/Memphis Center (Archives)
Walnut Ridge, Arkansas, United States

Feed Status: UP
Listen in your browser - HTML5 player(in browser, HTML5)
Click here to listen with your own player(launches your MP3 player)

KARG 232356Z AUTO 13004KT 10SM CLR 28/26 A3005 RMK AO2 SLP173 60009 T02830256 10317 20256 56015

KARG Airport Info (Airnav.com)

KARG Flight Activity (Flightaware)

Listeners: 0 out of 1552 total

Memphis Center (Sector 04 Jonesboro Low): 120.075
Memphis Center (Sector 04 Jonesboro Low): 289.400
Memphis Center (Sector 27 Jonesboro High): 132.375
Memphis Center (Sector 27 Jonesboro High): 257.600
Memphis Center (Sector 35 Walnut Ridge Ultra-High): 135.225
Memphis Center (Sector 35 Walnut Ridge Ultra-High): 322.300
Walnut Ridge CTAF: 122.800

KARR Tower (Archives)
Chicago/Aurora, Illinois, United States

Feed Status: UP
Listen in your browser - HTML5 player(in browser, HTML5)
Click here to listen with your own player(launches your MP3 player)

KARR 232352Z 20006KT 10SM CLR 29/22 A3002 RMK AO2 SLP160 T02890222 10311 20289 56013

KARR Airport Info (Airnav.com)

KARR Flight Activity (Flightaware)

Listeners: 0 out of 1552 total

Aurora Tower: 120.600

KASE ATIS (Archives)
Aspen, Colorado, United States

Feed Status: UP
Listen in your browser - HTML5 player(in browser, HTML5)
Click here to listen with your own player(launches your MP3 player)

KASE 232353Z 16006KT 10SM SCT075 BKN100 21/13 A3033 RMK AO2 LTG DSNT NW SLP150 60000 T02060133 10300 20206 50001

KASE Airport Info (Airnav.com)

KASE Flight Activity (Flightaware)

Listeners: 0 out of 1552 total

Aspen ATIS: 120.400

KASE Gnd/Twr/App/Center (Archives)
Aspen, Colorado, United States

Feed Status: UP
Listen in your browser - HTML5 player(in browser, HTML5)
Click here to listen with your own player(launches your MP3 player)

KASE 232353Z 16006KT 10SM SCT075 BKN100 21/13 A3033 RMK AO2 LTG DSNT NW SLP150 60000 T02060133 10300 20206 50001

KASE Airport Info (Airnav.com)

KASE Flight Activity (Flightaware)

Listeners: 0 out of 1552 total

Aspen Approach/Departure: 123.800
Aspen Ground: 121.900
Aspen Tower/CTAF: 118.850
Denver Center (Sector 26 POWDR Low): 119.850

KASE Ground/Tower (Archives)
Aspen, Colorado, United States

Feed Status: UP
Listen in your browser - HTML5 player(in browser, HTML5)
Click here to listen with your own player(launches your MP3 player)

KASE 232353Z 16006KT 10SM SCT075 BKN100 21/13 A3033 RMK AO2 LTG DSNT NW SLP150 60000 T02060133 10300 20206 50001

KASE Airport Info (Airnav.com)

KASE Flight Activity (Flightaware)

Listeners: 0 out of 1552 total

Aspen Ground: 121.900
Aspen Tower/CTAF: 118.850

KASE Tower (Archives)
Aspen, Colorado, United States

Feed Status: UP
Listen in your browser - HTML5 player(in browser, HTML5)
Click here to listen with your own player(launches your MP3 player)

KASE 232353Z 16006KT 10SM SCT075 BKN100 21/13 A3033 RMK AO2 LTG DSNT NW SLP150 60000 T02060133 10300 20206 50001

KASE Airport Info (Airnav.com)

KASE Flight Activity (Flightaware)

Listeners: 0 out of 1552 total

Aspen Tower/CTAF: 118.850

KASG App/Dep (Archives)
Springdale, Arkansas, United States

Feed Status: UP
Listen in your browser - HTML5 player(in browser, HTML5)
Click here to listen with your own player(launches your MP3 player)

KASG 232348Z 21007KT 10SM CLR 31/23 A3008

KASG Airport Info (Airnav.com)

KASG Flight Activity (Flightaware)

Listeners: 0 out of 1552 total

Razorback Approach/Departure: 126.600

KASG Gnd/Twr (Archives)
Springdale, Arkansas, United States

Feed Status: UP
Listen in your browser - HTML5 player(in browser, HTML5)
Click here to listen with your own player(launches your MP3 player)

KASG 232348Z 21007KT 10SM CLR 31/23 A3008

KASG Airport Info (Airnav.com)

KASG Flight Activity (Flightaware)

Listeners: 0 out of 1552 total

Springdale Ground: 121.600
Springdale Tower: 118.200

KASG Gnd/Twr/App (Archives)
Springdale, Arkansas, United States

Feed Status: UP
Listen in your browser - HTML5 player(in browser, HTML5)
Click here to listen with your own player(launches your MP3 player)

KASG 232348Z 21007KT 10SM CLR 31/23 A3008

KASG Airport Info (Airnav.com)

KASG Flight Activity (Flightaware)

Listeners: 0 out of 1552 total

Razorback Approach/Departure: 126.600
Springdale Ground: 121.600
Springdale Tower: 118.200

KASH ATIS #1 (Archives)
Nashua, New Hampshire, United States

Feed Status: UP
Listen in your browser - HTML5 player(in browser, HTML5)
Click here to listen with your own player(launches your MP3 player)

KASH 232356Z 28003KT 10SM SCT046 19/18 A3009 RMK AO2 SLP194 60089 T01940178 10256 20156 51009

KASH Airport Info (Airnav.com)

KASH Flight Activity (Flightaware)

Listeners: 0 out of 1552 total

Nashua ATIS: 125.100

KASH ATIS #2 (Archives)
Nashua, New Hampshire, United States

Feed Status: UP
Listen in your browser - HTML5 player(in browser, HTML5)
Click here to listen with your own player(launches your MP3 player)

KASH 232356Z 28003KT 10SM SCT046 19/18 A3009 RMK AO2 SLP194 60089 T01940178 10256 20156 51009

KASH Airport Info (Airnav.com)

KASH Flight Activity (Flightaware)

Listeners: 0 out of 1552 total

Nashua ATIS: 125.100

KASH Gnd/Twr/FBO #1 (Archives)
Nashua, New Hampshire, United States

Feed Status: UP
Listen in your browser - HTML5 player(in browser, HTML5)
Click here to listen with your own player(launches your MP3 player)

KASH 232356Z 28003KT 10SM SCT046 19/18 A3009 RMK AO2 SLP194 60089 T01940178 10256 20156 51009

KASH Airport Info (Airnav.com)

KASH Flight Activity (Flightaware)

Listeners: 0 out of 1552 total

Infinity Aviation: 129.750
Nashua Ground: 121.800
Nashua Tower: 133.200

KASH Gnd/Twr/FBO #2 (Archives)
Nashua, New Hampshire, United States

Feed Status: UP
Listen in your browser - HTML5 player(in browser, HTML5)
Click here to listen with your own player(launches your MP3 player)

KASH 232356Z 28003KT 10SM SCT046 19/18 A3009 RMK AO2 SLP194 60089 T01940178 10256 20156 51009

KASH Airport Info (Airnav.com)

KASH Flight Activity (Flightaware)

Listeners: 0 out of 1552 total

Nashua Ground: 121.800
Nashua Tower: 133.200

KASH Ground/FBO (Archives)
Nashua, New Hampshire, United States

Feed Status: UP
Listen in your browser - HTML5 player(in browser, HTML5)
Click here to listen with your own player(launches your MP3 player)

KASH 232356Z 28003KT 10SM SCT046 19/18 A3009 RMK AO2 SLP194 60089 T01940178 10256 20156 51009

KASH Airport Info (Airnav.com)

KASH Flight Activity (Flightaware)

Listeners: 0 out of 1552 total

Infinity Aviation: 129.750
Nashua Ground: 121.800

KASH Tower (Archives)
Nashua, New Hampshire, United States

Feed Status: UP
Listen in your browser - HTML5 player(in browser, HTML5)
Click here to listen with your own player(launches your MP3 player)

KASH 232356Z 28003KT 10SM SCT046 19/18 A3009 RMK AO2 SLP194 60089 T01940178 10256 20156 51009

KASH Airport Info (Airnav.com)

KASH Flight Activity (Flightaware)

Listeners: 0 out of 1552 total

Nashua Tower: 133.200

Atlanta Approach (NW Satellite) (Archives)
Atlanta, Georgia, United States

Feed Status: UP
Listen in your browser - HTML5 player(in browser, HTML5)
Click here to listen with your own player(launches your MP3 player)

KRYY 232350Z 00000KT 10SM CLR 28/22 A3009 RMK AO2 LTG DSNT E SLP178 6//// T02780222 10322 20278 53001 PNO $

KRYY Airport Info (Airnav.com)

KRYY Flight Activity (Flightaware)

Listeners: 0 out of 1552 total

Atlanta Approach (North Satellite): 121.000

KATW Tower (Archives)
Appleton, Wisconsin, United States

Feed Status: UP
Listen in your browser - HTML5 player(in browser, HTML5)
Click here to listen with your own player(launches your MP3 player)

KATW 232345Z 20006KT 10SM SCT120 28/20 A2995

KATW Airport Info (Airnav.com)

KATW Flight Activity (Flightaware)

Listeners: 0 out of 1552 total

Appleton Tower: 119.600

KAUG CTAF/FSS (Archives)
Augusta, Maine, United States

Feed Status: UP
Listen in your browser - HTML5 player(in browser, HTML5)
Click here to listen with your own player(launches your MP3 player)

KAUG 232353Z AUTO 28006KT 10SM CLR 16/15 A3008 RMK AO2 SLP188 60016 T01610150 10239 20156 53007

KAUG Airport Info (Airnav.com)

KAUG Flight Activity (Flightaware)

Listeners: 0 out of 1552 total

Augusta CTAF/UNICOM: 123.000
Flight Service: 122.200

NORCAL Approach (Elk Horn)
Auburn, California, United States

Feed Status: DOWN
Offline since: 2020-08-14 20:00:39 UTC

KAUN 240015Z AUTO 22006KT 10SM CLR 36/02 A2999 RMK A01

KAUN Airport Info (Airnav.com)

NORCAL Approach (Elk Horn Sector): 125.100

NORCAL Approach (Expo)
Auburn, California, United States

Feed Status: DOWN
Offline since: 2020-08-14 20:00:39 UTC

KAUN 240015Z AUTO 22006KT 10SM CLR 36/02 A2999 RMK A01

KAUN Airport Info (Airnav.com)

NORCAL Approach (EXPO Sector): 127.400

KAUW CTAF (Air Race Classic)
Wausau, Wisconsin, United States

Feed Status: DOWN
Offline since: 2019-06-24 16:01:03 UTC

Wausau CTAF: 122.700

KAVO CTAF (Archives)
Avon Park, Florida, United States

Feed Status: UP
Listen in your browser - HTML5 player(in browser, HTML5)
Click here to listen with your own player(launches your MP3 player)

KAVO Airport Info (Airnav.com)

KAVO Flight Activity (Flightaware)

Listeners: 0 out of 1552 total

Avon Park CTAF: 122.800

KAVP Gnd/Twr/App (Archives)
Wilkes-Barre/Scranton, Pennsylvania, United States

Feed Status: UP
Listen in your browser - HTML5 player(in browser, HTML5)
Click here to listen with your own player(launches your MP3 player)

KAVP 232354Z 33004KT 10SM CLR 24/13 A3012 RMK AO2 SLP191 T02440128 10272 20244 55004

KAVP Airport Info (Airnav.com)

KAVP Flight Activity (Flightaware)

Listeners: 0 out of 1552 total

Wilkes-Barre Approach: 124.500
Wilkes-Barre Approach: 126.300
Wilkes-Barre Ground: 121.900
Wilkes-Barre Tower: 120.100

KAVQ CTAF (Archives)
Marana, Arizona, United States

Feed Status: UP
Listen in your browser - HTML5 player(in browser, HTML5)
Click here to listen with your own player(launches your MP3 player)

KAVQ 240015Z AUTO 02003KT 10SM BKN100 26/17 A3007 RMK AO2 T02570173

KAVQ Airport Info (Airnav.com)

KAVQ Flight Activity (Flightaware)

Listeners: 0 out of 1552 total

Marana CTAF: 123.000

Arlington Fly-In Radio
Arlington, Washington, United States

Feed Status: DOWN
Offline since: 2019-08-18 20:46:39 UTC

KAWO 232356Z AUTO 29012KT 10SM 24/11 A3024 RMK AO2 SLP243 T02440111 10256 20200 58008 $

KAWO Airport Info (Airnav.com)

Arlington Fly-In Radio: 89.9

KAWO Arlington Fly-In ATC
Arlington, Washington, United States

Feed Status: DOWN
Offline since: 2019-08-18 20:46:39 UTC

KAWO 232356Z AUTO 29012KT 10SM 24/11 A3024 RMK AO2 SLP243 T02440111 10256 20200 58008 $

KAWO Airport Info (Airnav.com)

Arlington CTAF: 122.725
Arlington Tower (Air Show): 127.200

KAWO CTAF/Clearance (Archives)
Arlington, Washington, United States

Feed Status: UP
Listen in your browser - HTML5 player(in browser, HTML5)
Click here to listen with your own player(launches your MP3 player)

KAWO 232356Z AUTO 29012KT 10SM 24/11 A3024 RMK AO2 SLP243 T02440111 10256 20200 58008 $

KAWO Airport Info (Airnav.com)

KAWO Flight Activity (Flightaware)

Listeners: 0 out of 1552 total

Arlington Clearance Delivery (Seattle): 121.725
Arlington CTAF: 122.725

KBTL/KAZO Gnd/Twr/App (Archives)
Kalamazoo, Michigan, United States

Feed Status: UP
Listen in your browser - HTML5 player(in browser, HTML5)
Click here to listen with your own player(launches your MP3 player)

KBTL Airport Info (Airnav.com)

KBTL Flight Activity (Flightaware)

Listeners: 0 out of 1552 total

Battle Creek Ground: 121.700
Battle Creek Tower: 126.825
Kalamazoo Approach/Departure: 119.200
Kalamazoo Ground: 121.900
Kalamazoo Tower: 118.300

KBAF ATIS (Archives)
Westfield/Springfield, Massachusetts, United States

Feed Status: UP
Listen in your browser - HTML5 player(in browser, HTML5)
Click here to listen with your own player(launches your MP3 player)

KBAF 232353Z 00000KT 10SM BKN085 20/19 A3008 RMK AO2 RAB26E42 SLP185 P0002 60003 T02000194 10278 20200 53004

KBAF Airport Info (Airnav.com)

KBAF Flight Activity (Flightaware)

Listeners: 0 out of 1552 total

Westfield ATIS: 127.100

KBAF Ground (Archives)
Westfield/Springfield, Massachusetts, United States

Feed Status: UP
Listen in your browser - HTML5 player(in browser, HTML5)
Click here to listen with your own player(launches your MP3 player)

KBAF 232353Z 00000KT 10SM BKN085 20/19 A3008 RMK AO2 RAB26E42 SLP185 P0002 60003 T02000194 10278 20200 53004

KBAF Airport Info (Airnav.com)

KBAF Flight Activity (Flightaware)

Listeners: 0 out of 1552 total

Emergency/Guard: 121.500
Emergency/Guard: 243.000
NG Ops: 123.050
NG Ops: 309.000
Westfield Ground: 121.700
Westfield Ground: 289.400

KBAF Ground/Tower (Archives)
Westfield/Springfield, Massachusetts, United States

Feed Status: UP
Listen in your browser - HTML5 player(in browser, HTML5)
Click here to listen with your own player(launches your MP3 player)

KBAF 232353Z 00000KT 10SM BKN085 20/19 A3008 RMK AO2 RAB26E42 SLP185 P0002 60003 T02000194 10278 20200 53004

KBAF Airport Info (Airnav.com)

KBAF Flight Activity (Flightaware)

Listeners: 0 out of 1552 total

Emergency/Guard: 121.500
Emergency/Guard: 243.000
NG Ops: 123.050
NG Ops: 309.000
Westfield Ground: 121.700
Westfield Ground: 289.400
Westfield Tower: 118.900
Westfield Tower: 251.100

KBAF Tower (Archives)
Westfield/Springfield, Massachusetts, United States

Feed Status: UP
Listen in your browser - HTML5 player(in browser, HTML5)
Click here to listen with your own player(launches your MP3 player)

KBAF 232353Z 00000KT 10SM BKN085 20/19 A3008 RMK AO2 RAB26E42 SLP185 P0002 60003 T02000194 10278 20200 53004

KBAF Airport Info (Airnav.com)

KBAF Flight Activity (Flightaware)

Listeners: 0 out of 1552 total

Westfield Tower: 118.900
Westfield Tower: 251.100

KBAZ Tower (Archives)
New Braunfels, Texas, United States

Feed Status: UP
Listen in your browser - HTML5 player(in browser, HTML5)
Click here to listen with your own player(launches your MP3 player)

KBAZ 232351Z AUTO 18013KT 10SM CLR 32/22 A3001 RMK AO2 SLP153 T03220222 10339 20317 56018

KBAZ Airport Info (Airnav.com)

KBAZ Flight Activity (Flightaware)

Listeners: 0 out of 1552 total

New Braunfels Tower: 127.050

KBCT ATIS (Archives)
Boca Raton, Florida, United States

Feed Status: UP
Listen in your browser - HTML5 player(in browser, HTML5)
Click here to listen with your own player(launches your MP3 player)

KBCT 232353Z 24006KT 10SM CLR 26/24 A3002

KBCT Airport Info (Airnav.com)

KBCT Flight Activity (Flightaware)

Listeners: 0 out of 1552 total

Boca Raton ATIS/AWOS: 121.125

KBCT Emergency/Guard (Archives)
Boca Raton, Florida, United States

Feed Status: UP
Listen in your browser - HTML5 player(in browser, HTML5)
Click here to listen with your own player(launches your MP3 player)

KBCT 232353Z 24006KT 10SM CLR 26/24 A3002

KBCT Airport Info (Airnav.com)

KBCT Flight Activity (Flightaware)

Listeners: 0 out of 1552 total

Emergency/Guard: 121.500

KBCT Ground (Archives)
Boca Raton, Florida, United States

Feed Status: UP
Listen in your browser - HTML5 player(in browser, HTML5)
Click here to listen with your own player(launches your MP3 player)

KBCT 232353Z 24006KT 10SM CLR 26/24 A3002

KBCT Airport Info (Airnav.com)

KBCT Flight Activity (Flightaware)

Listeners: 0 out of 1552 total

Boca Raton Ground: 121.800

KBCT Ground/Tower (Archives)
Boca Raton, Florida, United States

Feed Status: UP
Listen in your browser - HTML5 player(in browser, HTML5)
Click here to listen with your own player(launches your MP3 player)

KBCT 232353Z 24006KT 10SM CLR 26/24 A3002

KBCT Airport Info (Airnav.com)

KBCT Flight Activity (Flightaware)

Listeners: 0 out of 1552 total

Boca Raton Ground: 121.800
Boca Raton Tower: 118.425

KBCT Tower (Archives)
Boca Raton, Florida, United States

Feed Status: UP
Listen in your browser - HTML5 player(in browser, HTML5)
Click here to listen with your own player(launches your MP3 player)

KBCT 232353Z 24006KT 10SM CLR 26/24 A3002

KBCT Airport Info (Airnav.com)

KBCT Flight Activity (Flightaware)

Listeners: 0 out of 1552 total

Boca Raton Tower: 118.425

KBDN CTAF (Archives)
Bend, Oregon, United States

Feed Status: UP
Listen in your browser - HTML5 player(in browser, HTML5)
Click here to listen with your own player(launches your MP3 player)

KBDN 240015Z AUTO 02010KT 10SM CLR 31/M02 A3020 RMK AO2

KBDN Airport Info (Airnav.com)

KBDN Flight Activity (Flightaware)

Listeners: 0 out of 1552 total

Bend CTAF: 123.000

KBDR Del/Gnd/Twr (Archives)
Bridgeport, Connecticut, United States

Feed Status: UP
Listen in your browser - HTML5 player(in browser, HTML5)
Click here to listen with your own player(launches your MP3 player)

KBDR 232352Z 33005KT 10SM BKN120 26/13 A3007 RMK AO2 LTG DSNT W SLP183 T02610128 10283 20250 53002

KBDR Airport Info (Airnav.com)

KBDR Flight Activity (Flightaware)

Listeners: 1 out of 1552 total

Bridgeport Clearance/Ground: 121.750
Bridgeport Tower: 120.900
Sikorsky Heliport: 133.600

KBDR Del/Gnd/Twr/App (Archives)
Bridgeport, Connecticut, United States

Feed Status: UP
Listen in your browser - HTML5 player(in browser, HTML5)
Click here to listen with your own player(launches your MP3 player)

KBDR 232352Z 33005KT 10SM BKN120 26/13 A3007 RMK AO2 LTG DSNT W SLP183 T02610128 10283 20250 53002

KBDR Airport Info (Airnav.com)

KBDR Flight Activity (Flightaware)

Listeners: 0 out of 1552 total

Bridgeport Clearance/Ground: 121.750
Bridgeport Tower: 120.900
New York Approach (LOVES Sector): 124.075
Sikorsky Heliport: 133.600

New York Approach (LOVES Sector) (Archives)
Bridgeport, Connecticut, United States

Feed Status: UP
Listen in your browser - HTML5 player(in browser, HTML5)
Click here to listen with your own player(launches your MP3 player)

KBDR 232352Z 33005KT 10SM BKN120 26/13 A3007 RMK AO2 LTG DSNT W SLP183 T02610128 10283 20250 53002

KBDR Airport Info (Airnav.com)

KBDR Flight Activity (Flightaware)

Listeners: 0 out of 1552 total

New York Approach (LOVES Sector): 124.075

KFTG/KEIK/KBDU/KLMO/Misc (Archives)
Boulder, Colorado, United States

Feed Status: UP
Listen in your browser - HTML5 player(in browser, HTML5)
Click here to listen with your own player(launches your MP3 player)

KDEN 232353Z 34018G32KT 10SM SCT095 SCT120 BKN170 BKN220 28/13 A3016 RMK AO2 PK WND 36034/2256 SLP127 T02830128 10350 20283 51010

KDEN Airport Info (Airnav.com)

KDEN Flight Activity (Flightaware)

Listeners: 0 out of 1552 total

Air-to-Air Fixed Wing: 122.750
Air-to-Air Informal: 123.450
Boulder CTAF: 122.725
Erie CTAF: 123.000
Front Range Tower: 120.200
KBKF Tower: 121.000
Longmont CTAF: 122.975
MULTICOM: 122.900
UNICOM: 122.950

KAAO CTAF/KBEC Twr
Wichita, Kansas, United States

Feed Status: DOWN
Offline since: 2021-07-20 03:17:38 UTC

KAAO 232354Z AUTO 16014G23KT 10SM CLR 33/19 A2997 RMK AO2 SLP134 T03330194 10361 20322 58014

KAAO Airport Info (Airnav.com)

Beech Tower: 126.800
Jabara CTAF: 122.700

Boston App/Dep (North Sat) #1 (Archives)
Bedford, Massachusetts, United States

Feed Status: UP
Listen in your browser - HTML5 player(in browser, HTML5)
Click here to listen with your own player(launches your MP3 player)

KBED 232351Z 00000KT 10SM FEW050 SCT110 23/15 A3006 RMK AO2 SLP192 T02280150 10278 20228 51007

KBED Airport Info (Airnav.com)

KBED Flight Activity (Flightaware)

Listeners: 0 out of 1552 total

Boston Approach (North Satellites, SFC-3500'): 124.400

Boston App/Dep (North Sat) #3 (Archives)
Bedford, Massachusetts, United States

Feed Status: UP
Listen in your browser - HTML5 player(in browser, HTML5)
Click here to listen with your own player(launches your MP3 player)

KBED 232351Z 00000KT 10SM FEW050 SCT110 23/15 A3006 RMK AO2 SLP192 T02280150 10278 20228 51007

KBED Airport Info (Airnav.com)

KBED Flight Activity (Flightaware)

Listeners: 0 out of 1552 total

Boston Approach (North Satellites, SFC-3500'): 124.400

KBED ATIS #1 (Archives)
Bedford, Massachusetts, United States

Feed Status: UP
Listen in your browser - HTML5 player(in browser, HTML5)
Click here to listen with your own player(launches your MP3 player)

KBED 232351Z 00000KT 10SM FEW050 SCT110 23/15 A3006 RMK AO2 SLP192 T02280150 10278 20228 51007

KBED Airport Info (Airnav.com)

KBED Flight Activity (Flightaware)

Listeners: 0 out of 1552 total

Hanscom ATIS: 124.600

KBED ATIS #2 (Archives)
Bedford, Massachusetts, United States

Feed Status: UP
Listen in your browser - HTML5 player(in browser, HTML5)
Click here to listen with your own player(launches your MP3 player)

KBED 232351Z 00000KT 10SM FEW050 SCT110 23/15 A3006 RMK AO2 SLP192 T02280150 10278 20228 51007

KBED Airport Info (Airnav.com)

KBED Flight Activity (Flightaware)

Listeners: 0 out of 1552 total

Hanscom ATIS: 124.600

KBED Clearance Delivery (Archives)
Bedford, Massachusetts, United States

Feed Status: UP
Listen in your browser - HTML5 player(in browser, HTML5)
Click here to listen with your own player(launches your MP3 player)

KBED 232351Z 00000KT 10SM FEW050 SCT110 23/15 A3006 RMK AO2 SLP192 T02280150 10278 20228 51007

KBED Airport Info (Airnav.com)

KBED Flight Activity (Flightaware)

Listeners: 0 out of 1552 total

Hanscom Clearance Delivery: 121.850

KBED Del/Gnd (Archives)
Bedford, Massachusetts, United States

Feed Status: UP
Listen in your browser - HTML5 player(in browser, HTML5)
Click here to listen with your own player(launches your MP3 player)

KBED 232351Z 00000KT 10SM FEW050 SCT110 23/15 A3006 RMK AO2 SLP192 T02280150 10278 20228 51007

KBED Airport Info (Airnav.com)

KBED Flight Activity (Flightaware)

Listeners: 0 out of 1552 total

Hanscom Clearance Delivery: 121.850
Hanscom Ground: 121.700

KBED Gnd/Twr (Archives)
Bedford, Massachusetts, United States

Feed Status: UP
Listen in your browser - HTML5 player(in browser, HTML5)
Click here to listen with your own player(launches your MP3 player)

KBED 232351Z 00000KT 10SM FEW050 SCT110 23/15 A3006 RMK AO2 SLP192 T02280150 10278 20228 51007

KBED Airport Info (Airnav.com)

KBED Flight Activity (Flightaware)

Listeners: 0 out of 1552 total

Hanscom Ground: 121.700
Hanscom Tower: 118.500

KBED Ground (Archives)
Bedford, Massachusetts, United States

Feed Status: UP
Listen in your browser - HTML5 player(in browser, HTML5)
Click here to listen with your own player(launches your MP3 player)

KBED 232351Z 00000KT 10SM FEW050 SCT110 23/15 A3006 RMK AO2 SLP192 T02280150 10278 20228 51007

KBED Airport Info (Airnav.com)

KBED Flight Activity (Flightaware)

Listeners: 0 out of 1552 total

Hanscom Ground: 121.700

KBED Tower (Archives)
Bedford, Massachusetts, United States

Feed Status: UP
Listen in your browser - HTML5 player(in browser, HTML5)
Click here to listen with your own player(launches your MP3 player)

KBED 232351Z 00000KT 10SM FEW050 SCT110 23/15 A3006 RMK AO2 SLP192 T02280150 10278 20228 51007

KBED Airport Info (Airnav.com)

KBED Flight Activity (Flightaware)

Listeners: 0 out of 1552 total

Hanscom Tower: 118.500

KBFI ATIS (Archives)
Seattle, Washington, United States

Feed Status: UP
Listen in your browser - HTML5 player(in browser, HTML5)
Click here to listen with your own player(launches your MP3 player)

KBFI 232353Z 29006KT 10SM CLR 26/09 A3022 RMK AO2 SLP233 T02560094 10256 20200 58012

KBFI Airport Info (Airnav.com)

KBFI Flight Activity (Flightaware)

Listeners: 0 out of 1552 total

Boeing ATIS: 127.750

KBFI Clearance Delivery (Archives)
Seattle, Washington, United States

Feed Status: UP
Listen in your browser - HTML5 player(in browser, HTML5)
Click here to listen with your own player(launches your MP3 player)

KBFI 232353Z 29006KT 10SM CLR 26/09 A3022 RMK AO2 SLP233 T02560094 10256 20200 58012

KBFI Airport Info (Airnav.com)

KBFI Flight Activity (Flightaware)

Listeners: 0 out of 1552 total

Boeing Clearance Delivery: 132.400

KBFI Ground (Archives)
Seattle, Washington, United States

Feed Status: UP
Listen in your browser - HTML5 player(in browser, HTML5)
Click here to listen with your own player(launches your MP3 player)

KBFI 232353Z 29006KT 10SM CLR 26/09 A3022 RMK AO2 SLP233 T02560094 10256 20200 58012

KBFI Airport Info (Airnav.com)

KBFI Flight Activity (Flightaware)

Listeners: 0 out of 1552 total

Boeing Ground: 121.900

KBFI Ground/Tower (Archives)
Seattle, Washington, United States

Feed Status: UP
Listen in your browser - HTML5 player(in browser, HTML5)
Click here to listen with your own player(launches your MP3 player)

KBFI 232353Z 29006KT 10SM CLR 26/09 A3022 RMK AO2 SLP233 T02560094 10256 20200 58012

KBFI Airport Info (Airnav.com)

KBFI Flight Activity (Flightaware)

Listeners: 0 out of 1552 total

Boeing Ground: 121.900
Boeing Tower (Rwy 13L & 31R/VFR): 118.300
Boeing Tower (Rwy 13R/31L/IFR): 120.600
Emergency: 121.500

KBFI Guard (Archives)
Seattle, Washington, United States

Feed Status: UP
Listen in your browser - HTML5 player(in browser, HTML5)
Click here to listen with your own player(launches your MP3 player)

KBFI 232353Z 29006KT 10SM CLR 26/09 A3022 RMK AO2 SLP233 T02560094 10256 20200 58012

KBFI Airport Info (Airnav.com)

KBFI Flight Activity (Flightaware)

Listeners: 0 out of 1552 total

Emergency/Guard: 121.500

KBFI Tower (IFR) (Archives)
Seattle, Washington, United States

Feed Status: UP
Listen in your browser - HTML5 player(in browser, HTML5)
Click here to listen with your own player(launches your MP3 player)

KBFI 232353Z 29006KT 10SM CLR 26/09 A3022 RMK AO2 SLP233 T02560094 10256 20200 58012

KBFI Airport Info (Airnav.com)

KBFI Flight Activity (Flightaware)

Listeners: 0 out of 1552 total

Boeing Tower (Rwy 13R/31L/IFR): 120.600

KBFI Tower (VFR) (Archives)
Seattle, Washington, United States

Feed Status: UP
Listen in your browser - HTML5 player(in browser, HTML5)
Click here to listen with your own player(launches your MP3 player)

KBFI 232353Z 29006KT 10SM CLR 26/09 A3022 RMK AO2 SLP233 T02560094 10256 20200 58012

KBFI Airport Info (Airnav.com)

KBFI Flight Activity (Flightaware)

Listeners: 1 out of 1552 total

Boeing Tower (Rwy 13L & 31R/VFR): 118.300

KBFI Tower (VFR/IFR) (Archives)
Seattle, Washington, United States

Feed Status: UP
Listen in your browser - HTML5 player(in browser, HTML5)
Click here to listen with your own player(launches your MP3 player)

KBFI 232353Z 29006KT 10SM CLR 26/09 A3022 RMK AO2 SLP233 T02560094 10256 20200 58012

KBFI Airport Info (Airnav.com)

KBFI Flight Activity (Flightaware)

Listeners: 0 out of 1552 total

Boeing Tower (Rwy 13L & 31R/VFR): 118.300
Boeing Tower (Rwy 13R/31L/IFR): 120.600

KBFM Ground/Tower (Archives)
Mobile, Alabama, United States

Feed Status: UP
Listen in your browser - HTML5 player(in browser, HTML5)
Click here to listen with your own player(launches your MP3 player)

KBFM 240005Z 33004KT 10SM VCTS FEW050 31/23 A3006 RMK AO2 LTG DSNT S-NW T03060228

KBFM Airport Info (Airnav.com)

KBFM Flight Activity (Flightaware)

Listeners: 0 out of 1552 total

Downtown Ground: 121.700
Downtown Tower: 118.800

KBFM Tower (Archives)
Mobile, Alabama, United States

Feed Status: UP
Listen in your browser - HTML5 player(in browser, HTML5)
Click here to listen with your own player(launches your MP3 player)

KBFM 240005Z 33004KT 10SM VCTS FEW050 31/23 A3006 RMK AO2 LTG DSNT S-NW T03060228

KBFM Airport Info (Airnav.com)

KBFM Flight Activity (Flightaware)

Listeners: 0 out of 1552 total

Downtown Tower: 118.800

KBGM Del/Gnd/Twr/App (Archives)
Binghamton, New York, United States

Feed Status: UP
Listen in your browser - HTML5 player(in browser, HTML5)
Click here to listen with your own player(launches your MP3 player)

KBGM 232353Z 36006KT 10SM CLR 21/12 A3015 RMK AO2 SLP204 T02060117 10239 20206 55002

KBGM Airport Info (Airnav.com)

KBGM Flight Activity (Flightaware)

Listeners: 0 out of 1552 total

Binghamton Approach/Departure: 118.600
Binghamton Approach/Departure: 127.550
Binghamton Clearance Delivery: 125.050
Binghamton Ground: 121.900
Binghamton Tower: 119.300

KBID CTAF (Archives)
Block Island, Rhode Island, United States

Feed Status: UP
Listen in your browser - HTML5 player(in browser, HTML5)
Click here to listen with your own player(launches your MP3 player)

KBID 240016Z AUTO 14007KT 3SM -TSRA BR FEW020 BKN046 OVC070 18/16 A3011 RMK AO2 TSE02B11RAB02 P0016

KBID Airport Info (Airnav.com)

KBID Flight Activity (Flightaware)

Listeners: 0 out of 1552 total

Block Island CTAF: 123.000

KBIS Twr/App (Archives)
Bismarck, North Dakota, United States

Feed Status: UP
Listen in your browser - HTML5 player(in browser, HTML5)
Click here to listen with your own player(launches your MP3 player)

KBIS 232352Z 31013KT 10SM CLR 36/16 A2984 RMK AO2 SLP092 60000 T03560156 10367 20333 56010

KBIS Airport Info (Airnav.com)

KBIS Flight Activity (Flightaware)

Listeners: 0 out of 1552 total

Bismarck Approach/Departure: 126.300
Bismarck Tower: 118.300

KBJC Ground/Tower (Archives)
Denver, Colorado, United States

Feed Status: UP
Listen in your browser - HTML5 player(in browser, HTML5)
Click here to listen with your own player(launches your MP3 player)



KBJC Airport Info (Airnav.com)

KBJC Flight Activity (Flightaware)

Listeners: 0 out of 1552 total

Metro Ground: 121.700
Metro Tower: 118.600

KBJI CTAF/ZMP (Archives)
Bemidji, Minnesota, United States

Feed Status: UP
Listen in your browser - HTML5 player(in browser, HTML5)
Click here to listen with your own player(launches your MP3 player)

KBJI 240015Z AUTO 00000KT 10SM VCTS CLR 25/19 A2980 RMK AO2 LTG DSNT SE T02540193

KBJI Airport Info (Airnav.com)

KBJI Flight Activity (Flightaware)

Listeners: 1 out of 1552 total

Bemidji CTAF: 122.800
Minneapolis Center (Sector 25 Low/High): 134.750

KBKF Tower (UHF) (Archives)
Aurora, Colorado, United States

Feed Status: UP
Listen in your browser - HTML5 player(in browser, HTML5)
Click here to listen with your own player(launches your MP3 player)

KBKF 232358Z 35018G25KT 10SM SCT080 BKN120 BKN220 27/13 A3019 RMK AO2A PK WND 01030/29 LTG DSNT SW SLP145 T02650125 10342 20265 52013

KBKF Airport Info (Airnav.com)

KBKF Flight Activity (Flightaware)

Listeners: 1 out of 1552 total

Buckley Tower: 291.675

KBKF Tower (VHF) (Archives)
Aurora, Colorado, United States

Feed Status: UP
Listen in your browser - HTML5 player(in browser, HTML5)
Click here to listen with your own player(launches your MP3 player)

KBKF 232358Z 35018G25KT 10SM SCT080 BKN120 BKN220 27/13 A3019 RMK AO2A PK WND 01030/29 LTG DSNT SW SLP145 T02650125 10342 20265 52013

KBKF Airport Info (Airnav.com)

KBKF Flight Activity (Flightaware)

Listeners: 0 out of 1552 total

Buckley Tower: 121.000

KBKF Tower (VHF/UHF) (Archives)
Aurora, Colorado, United States

Feed Status: UP
Listen in your browser - HTML5 player(in browser, HTML5)
Click here to listen with your own player(launches your MP3 player)

KBKF 232358Z 35018G25KT 10SM SCT080 BKN120 BKN220 27/13 A3019 RMK AO2A PK WND 01030/29 LTG DSNT SW SLP145 T02650125 10342 20265 52013

KBKF Airport Info (Airnav.com)

KBKF Flight Activity (Flightaware)

Listeners: 0 out of 1552 total

Buckley Tower: 121.000
Buckley Tower: 291.675

KBLI Tower (Archives)
Bellingham, Washington, United States

Feed Status: UP
Listen in your browser - HTML5 player(in browser, HTML5)
Click here to listen with your own player(launches your MP3 player)

KBLI 232353Z AUTO 17006KT 10SM CLR 23/13 A3024 RMK AO2 SLP243 T02330128 10239 20178 58012

KBLI Airport Info (Airnav.com)

KBLI Flight Activity (Flightaware)

Listeners: 0 out of 1552 total

Bellingham Tower: 124.900

KBLM/N12/3N6/KMJX (Archives)
Belmar/Farmingdale, New Jersey, United States

Feed Status: UP
Listen in your browser - HTML5 player(in browser, HTML5)
Click here to listen with your own player(launches your MP3 player)

KBLM 232356Z AUTO 15005KT 10SM SCT075 BKN100 24/16 A3010 RMK AO2 SLP191 6//// T02390156 10289 20239 55002 PNO $

KBLM Airport Info (Airnav.com)

KBLM Flight Activity (Flightaware)

Listeners: 0 out of 1552 total

3N6 Old Bridge CTAF: 123.075
Emergency/Guard: 121.500
Monmouth Clearance: 120.950
Monmouth Clearance: 126.150
Monmouth CTAF: 123.000
N12 Lakewood CTAF: 122.800
Ocean County KMJX CTAF: 122.700

KBMG Approach/Departure (Archives)
Bloomington, Indiana, United States

Feed Status: UP
Listen in your browser - HTML5 player(in browser, HTML5)
Click here to listen with your own player(launches your MP3 player)

KBMG 232353Z 17004KT 10SM CLR 28/21 A3009 RMK AO2 SLP181 T02780211 10306 20278 56012

KBMG Airport Info (Airnav.com)

KBMG Flight Activity (Flightaware)

Listeners: 0 out of 1552 total

Emergency/Guard: 121.500
Emergency/Guard: 243.000
Hulman Approach: 128.025

KBMG Tower (Archives)
Bloomington, Indiana, United States

Feed Status: UP
Listen in your browser - HTML5 player(in browser, HTML5)
Click here to listen with your own player(launches your MP3 player)

KBMG 232353Z 17004KT 10SM CLR 28/21 A3009 RMK AO2 SLP181 T02780211 10306 20278 56012

KBMG Airport Info (Airnav.com)

KBMG Flight Activity (Flightaware)

Listeners: 0 out of 1552 total

Bloomington Tower: 120.775

KBMG Twr/App (Archives)
Bloomington, Indiana, United States

Feed Status: UP
Listen in your browser - HTML5 player(in browser, HTML5)
Click here to listen with your own player(launches your MP3 player)

KBMG 232353Z 17004KT 10SM CLR 28/21 A3009 RMK AO2 SLP181 T02780211 10306 20278 56012

KBMG Airport Info (Airnav.com)

KBMG Flight Activity (Flightaware)

Listeners: 0 out of 1552 total

Bloomington Tower: 120.775
Emergency/Guard: 121.500
Emergency/Guard: 243.000
Hulman Approach: 128.025

KBMI Gnd/Twr/App/Dep (Archives)
Bloomington/Normal, Illinois, United States

Feed Status: UP
Listen in your browser - HTML5 player(in browser, HTML5)
Click here to listen with your own player(launches your MP3 player)

KBMI 232356Z 20007KT 8SM CLR 28/23 A3006 RMK AO2 SLP171 T02830228 10306 20283 58012

KBMI Airport Info (Airnav.com)

KBMI Flight Activity (Flightaware)

Listeners: 0 out of 1552 total

Bloomington Ground: 121.650
Bloomington Tower: 124.600
Peoria Approach/Departure: 128.725

KBOK CTAF (Archives)
Brookings, Oregon, United States

Feed Status: UP
Listen in your browser - HTML5 player(in browser, HTML5)
Click here to listen with your own player(launches your MP3 player)

KBOK 232356Z AUTO 16006KT 10SM CLR 21/13 A3001 RMK AO2 SLP163 T02060128 10222 20172 56019

KBOK Airport Info (Airnav.com)

KBOK Flight Activity (Flightaware)

Listeners: 0 out of 1552 total

Brookings CTAF: 122.800

KBOW AWOS (Archives)
Bartow, Florida, United States

Feed Status: UP
Listen in your browser - HTML5 player(in browser, HTML5)
Click here to listen with your own player(launches your MP3 player)

KBOW 240015Z AUTO 11005KT 10SM SCT026 SCT034 25/23 A3005 RMK AO2 LTG DSNT ALQDS

KBOW Airport Info (Airnav.com)

KBOW Flight Activity (Flightaware)

Listeners: 0 out of 1552 total

Bartow AWOS: 123.775

KBOW Gnd/Twr/Misc (Archives)
Bartow, Florida, United States

Feed Status: UP
Listen in your browser - HTML5 player(in browser, HTML5)
Click here to listen with your own player(launches your MP3 player)

KBOW 240015Z AUTO 11005KT 10SM SCT026 SCT034 25/23 A3005 RMK AO2 LTG DSNT ALQDS

KBOW Airport Info (Airnav.com)

KBOW Flight Activity (Flightaware)

Listeners: 0 out of 1552 total

Bartow Ground: 121.900
Bartow Tower: 121.200
Bartow UNICOM: 122.950
Emergency/Guard: 121.500

KBOW Gnd/UNICOM/Guard (Archives)
Bartow, Florida, United States

Feed Status: UP
Listen in your browser - HTML5 player(in browser, HTML5)
Click here to listen with your own player(launches your MP3 player)

KBOW 240015Z AUTO 11005KT 10SM SCT026 SCT034 25/23 A3005 RMK AO2 LTG DSNT ALQDS

KBOW Airport Info (Airnav.com)

KBOW Flight Activity (Flightaware)

Listeners: 0 out of 1552 total

Bartow Ground: 121.900
Bartow UNICOM: 122.950
Emergency/Guard: 121.500

KBOW Tower/CTAF (Archives)
Bartow, Florida, United States

Feed Status: UP
Listen in your browser - HTML5 player(in browser, HTML5)
Click here to listen with your own player(launches your MP3 player)

KBOW 240015Z AUTO 11005KT 10SM SCT026 SCT034 25/23 A3005 RMK AO2 LTG DSNT ALQDS

KBOW Airport Info (Airnav.com)

KBOW Flight Activity (Flightaware)

Listeners: 0 out of 1552 total

Bartow Tower: 121.200

KBPK CTAF (Archives)
Mountain Home, Arkansas, United States

Feed Status: UP
Listen in your browser - HTML5 player(in browser, HTML5)
Click here to listen with your own player(launches your MP3 player)

KBPK 232353Z AUTO 00000KT 10SM FEW120 31/21 A3005 RMK AO2 SLP165 T03060211 10322 20283 56014

KBPK Airport Info (Airnav.com)

KBPK Flight Activity (Flightaware)

Listeners: 0 out of 1552 total

Baxter County CTAF: 123.000

KBTL/KAZO Gnd/Twr/App (Archives)
Battle Creek, Michigan, United States

Feed Status: UP
Listen in your browser - HTML5 player(in browser, HTML5)
Click here to listen with your own player(launches your MP3 player)

KBTL Airport Info (Airnav.com)

KBTL Flight Activity (Flightaware)

Listeners: 0 out of 1552 total

Battle Creek Ground: 121.700
Battle Creek Tower: 126.825
Kalamazoo Approach/Departure: 119.200
Kalamazoo Ground: 121.900
Kalamazoo Tower: 118.300

KWHP/KVNY/KBUR App/Dep (Archives)
Burbank, California, United States

Feed Status: UP
Listen in your browser - HTML5 player(in browser, HTML5)
Click here to listen with your own player(launches your MP3 player)

KWHP 232355Z 00000KT 10SM SKC 30/14 A3003

KWHP Airport Info (Airnav.com)

KWHP Flight Activity (Flightaware)

Listeners: 1 out of 1552 total

SOCAL App (Glendale Sector): 135.050
SOCAL App (Valley Sector): 124.600
SOCAL Approach (Fillmore Sector): 120.400
SOCAL Approach (Moorpark Sector): 128.750
SOCAL Approach (Woodland Sector): 134.200

3CK/KBUU CTAF (Archives)
Burlington, Wisconsin, United States

Feed Status: UP
Listen in your browser - HTML5 player(in browser, HTML5)
Click here to listen with your own player(launches your MP3 player)

K3CK Airport Info (Airnav.com)

K3CK Flight Activity (Flightaware)

Listeners: 0 out of 1552 total

Lake in the Hills CTAF: 123.050

KBUY CTAF (Archives)
Burlington, North Carolina, United States

Feed Status: UP
Listen in your browser - HTML5 player(in browser, HTML5)
Click here to listen with your own player(launches your MP3 player)

KBUY 232354Z AUTO 12003KT 10SM CLR 28/20 A3009 RMK AO2 SLP183 T02780200 10311 20278 55003

KBUY Airport Info (Airnav.com)

KBUY Flight Activity (Flightaware)

Listeners: 2 out of 1552 total

Burlington CTAF: 122.975

KBVI ATIS (Archives)
Beaver Falls, Pennsylvania, United States

Feed Status: UP
Listen in your browser - HTML5 player(in browser, HTML5)
Click here to listen with your own player(launches your MP3 player)

KBVI 240015Z AUTO 35003KT 10SM BKN090 23/13 A3014 RMK AO2 T02320132

KBVI Airport Info (Airnav.com)

KBVI Flight Activity (Flightaware)

Listeners: 0 out of 1552 total

Beaver County ATIS: 118.350

KBVI Ground (Archives)
Beaver Falls, Pennsylvania, United States

Feed Status: UP
Listen in your browser - HTML5 player(in browser, HTML5)
Click here to listen with your own player(launches your MP3 player)

KBVI 240015Z AUTO 35003KT 10SM BKN090 23/13 A3014 RMK AO2 T02320132

KBVI Airport Info (Airnav.com)

KBVI Flight Activity (Flightaware)

Listeners: 0 out of 1552 total

Beaver County Clearance (when Tower closed): 124.850
Beaver County Ground: 121.800

KBVI Ground/Tower (Archives)
Beaver Falls, Pennsylvania, United States

Feed Status: UP
Listen in your browser - HTML5 player(in browser, HTML5)
Click here to listen with your own player(launches your MP3 player)

KBVI 240015Z AUTO 35003KT 10SM BKN090 23/13 A3014 RMK AO2 T02320132

KBVI Airport Info (Airnav.com)

KBVI Flight Activity (Flightaware)

Listeners: 0 out of 1552 total

Beaver County Clearance (when Tower closed): 124.850
Beaver County Ground: 121.800
Beaver County Tower: 120.300

KBVI Tower (Archives)
Beaver Falls, Pennsylvania, United States

Feed Status: UP
Listen in your browser - HTML5 player(in browser, HTML5)
Click here to listen with your own player(launches your MP3 player)

KBVI 240015Z AUTO 35003KT 10SM BKN090 23/13 A3014 RMK AO2 T02320132

KBVI Airport Info (Airnav.com)

KBVI Flight Activity (Flightaware)

Listeners: 0 out of 1552 total

Beaver County Tower: 120.300

KBVI Tower (Archives)
Beaver Falls, Pennsylvania, United States

Feed Status: UP
Listen in your browser - HTML5 player(in browser, HTML5)
Click here to listen with your own player(launches your MP3 player)

KBVI 240015Z AUTO 35003KT 10SM BKN090 23/13 A3014 RMK AO2 T02320132

KBVI Airport Info (Airnav.com)

KBVI Flight Activity (Flightaware)

Listeners: 0 out of 1552 total

Beaver County Tower: 120.300

KBVY ATIS (Archives)
Beverly, Massachusetts, United States

Feed Status: UP
Listen in your browser - HTML5 player(in browser, HTML5)
Click here to listen with your own player(launches your MP3 player)

KBVY 232353Z 00000KT 10SM CLR 20/18 A3007 RMK AO2 SLP178 6//// T02000183 10261 20189 51004 PNO

KBVY Airport Info (Airnav.com)

KBVY Flight Activity (Flightaware)

Listeners: 0 out of 1552 total

Beverly ATIS: 119.200

KBVY Ground (Archives)
Beverly, Massachusetts, United States

Feed Status: UP
Listen in your browser - HTML5 player(in browser, HTML5)
Click here to listen with your own player(launches your MP3 player)

KBVY 232353Z 00000KT 10SM CLR 20/18 A3007 RMK AO2 SLP178 6//// T02000183 10261 20189 51004 PNO

KBVY Airport Info (Airnav.com)

KBVY Flight Activity (Flightaware)

Listeners: 0 out of 1552 total

Beverly Ground: 121.600

KBVY Tower #1 (Archives)
Beverly, Massachusetts, United States

Feed Status: UP
Listen in your browser - HTML5 player(in browser, HTML5)
Click here to listen with your own player(launches your MP3 player)

KBVY 232353Z 00000KT 10SM CLR 20/18 A3007 RMK AO2 SLP178 6//// T02000183 10261 20189 51004 PNO

KBVY Airport Info (Airnav.com)

KBVY Flight Activity (Flightaware)

Listeners: 0 out of 1552 total

Beverly Tower: 125.200

KBVY Tower #2 (Archives)
Beverly, Massachusetts, United States

Feed Status: UP
Listen in your browser - HTML5 player(in browser, HTML5)
Click here to listen with your own player(launches your MP3 player)

KBVY 232353Z 00000KT 10SM CLR 20/18 A3007 RMK AO2 SLP178 6//// T02000183 10261 20189 51004 PNO

KBVY Airport Info (Airnav.com)

KBVY Flight Activity (Flightaware)

Listeners: 0 out of 1552 total

Beverly Tower: 125.200

KBXM CTAF/AWOS (Archives)
Brunswick, Maine, United States

Feed Status: UP
Listen in your browser - HTML5 player(in browser, HTML5)
Click here to listen with your own player(launches your MP3 player)

KBXM Airport Info (Airnav.com)

KBXM Flight Activity (Flightaware)

Listeners: 0 out of 1552 total

Brunswick CTAF/UNICOM: 122.725
KBXM AWOS: 134.875

KBZN App/Dep (Archives)
Bozeman, Montana, United States

Feed Status: UP
Listen in your browser - HTML5 player(in browser, HTML5)
Click here to listen with your own player(launches your MP3 player)

KBZN 232356Z 32009KT 10SM CLR 29/06 A3010 RMK AO2 SLP153 T02940056 10322 20261 57012

KBZN Airport Info (Airnav.com)

KBZN Flight Activity (Flightaware)

Listeners: 0 out of 1552 total

Big Sky Approach/Departure: 118.975

KBZN Ground (Archives)
Bozeman, Montana, United States

Feed Status: UP
Listen in your browser - HTML5 player(in browser, HTML5)
Click here to listen with your own player(launches your MP3 player)

KBZN 232356Z 32009KT 10SM CLR 29/06 A3010 RMK AO2 SLP153 T02940056 10322 20261 57012

KBZN Airport Info (Airnav.com)

KBZN Flight Activity (Flightaware)

Listeners: 0 out of 1552 total

Bozeman Ground: 121.800

KBZN Tower #1
Bozeman, Montana, United States

Feed Status: DOWN
Offline since: 2019-12-19 20:24:05 UTC

KBZN 232356Z 32009KT 10SM CLR 29/06 A3010 RMK AO2 SLP153 T02940056 10322 20261 57012

KBZN Airport Info (Airnav.com)

Bozeman Tower/CTAF: 118.200

KBZN Tower #2 (Archives)
Bozeman, Montana, United States

Feed Status: UP
Listen in your browser - HTML5 player(in browser, HTML5)
Click here to listen with your own player(launches your MP3 player)

KBZN 232356Z 32009KT 10SM CLR 29/06 A3010 RMK AO2 SLP153 T02940056 10322 20261 57012

KBZN Airport Info (Airnav.com)

KBZN Flight Activity (Flightaware)

Listeners: 0 out of 1552 total

Bozeman Tower/CTAF: 118.200

KCCB CTAF (Archives)
Upland, California, United States

Feed Status: UP
Listen in your browser - HTML5 player(in browser, HTML5)
Click here to listen with your own player(launches your MP3 player)

KCCB 240015Z AUTO 24011G17KT 9SM CLR 30/14 A3001 RMK AO2

KCCB Airport Info (Airnav.com)

KCCB Flight Activity (Flightaware)

Listeners: 1 out of 1552 total

Upland CTAF: 123.000

KATL Approach (South Sat) (Archives)
Atlanta, Georgia, United States

Feed Status: UP
Listen in your browser - HTML5 player(in browser, HTML5)
Click here to listen with your own player(launches your MP3 player)

KCCO 240015Z AUTO 00000KT 10SM SCT050 SCT055 29/23 A3009 RMK AO2 T02940226

KCCO Airport Info (Airnav.com)

KCCO Flight Activity (Flightaware)

Listeners: 0 out of 1552 total

Atlanta Approach (SW Satellite): 119.800

KCCO Area Air-to-Air (Archives)
Atlanta, Georgia, United States

Feed Status: UP
Listen in your browser - HTML5 player(in browser, HTML5)
Click here to listen with your own player(launches your MP3 player)

KCCO 240015Z AUTO 00000KT 10SM SCT050 SCT055 29/23 A3009 RMK AO2 T02940226

KCCO Airport Info (Airnav.com)

KCCO Flight Activity (Flightaware)

Listeners: 0 out of 1552 total

Newnan Area Air to Air: 123.450

KCCO AWOS (Archives)
Atlanta, Georgia, United States

Feed Status: UP
Listen in your browser - HTML5 player(in browser, HTML5)
Click here to listen with your own player(launches your MP3 player)

KCCO 240015Z AUTO 00000KT 10SM SCT050 SCT055 29/23 A3009 RMK AO2 T02940226

KCCO Airport Info (Airnav.com)

KCCO Flight Activity (Flightaware)

Listeners: 0 out of 1552 total

Newnan AWOS: 118.975

KCCO CTAF (Archives)
Atlanta, Georgia, United States

Feed Status: UP
Listen in your browser - HTML5 player(in browser, HTML5)
Click here to listen with your own player(launches your MP3 player)

KCCO 240015Z AUTO 00000KT 10SM SCT050 SCT055 29/23 A3009 RMK AO2 T02940226

KCCO Airport Info (Airnav.com)

KCCO Flight Activity (Flightaware)

Listeners: 0 out of 1552 total

Emergency/Guard: 121.500
Flight School Company Channel: 123.300
Newnan CTAF: 122.700

KCCO Emergency/Guard (Archives)
Atlanta, Georgia, United States

Feed Status: UP
Listen in your browser - HTML5 player(in browser, HTML5)
Click here to listen with your own player(launches your MP3 player)

KCCO 240015Z AUTO 00000KT 10SM SCT050 SCT055 29/23 A3009 RMK AO2 T02940226

KCCO Airport Info (Airnav.com)

KCCO Flight Activity (Flightaware)

Listeners: 0 out of 1552 total

Emergency/Guard: 121.500

KCCR Gnd/Twr (Archives)
Concord, California, United States

Feed Status: UP
Listen in your browser - HTML5 player(in browser, HTML5)
Click here to listen with your own player(launches your MP3 player)

KCCR 232353Z 27010KT 10SM CLR 35/06 A2992 RMK AO2 SLP117 T03500061 10350 20244 58012

KCCR Airport Info (Airnav.com)

KCCR Flight Activity (Flightaware)

Listeners: 0 out of 1552 total

Concord Ground: 121.900
Concord Tower: 119.700

KCDC ASOS (Archives)
Cedar City, Utah, United States

Feed Status: UP
Listen in your browser - HTML5 player(in browser, HTML5)
Click here to listen with your own player(launches your MP3 player)

KCDC 232353Z AUTO 26005KT 10SM CLR 27/09 A3021 RMK AO2 LTG DSNT S-W SLP151 60000 T02720094 10300 20267 58003

KCDC Airport Info (Airnav.com)

KCDC Flight Activity (Flightaware)

Listeners: 0 out of 1552 total

Cedar City ASOS: 119.025

KCDC CTAF #1 (Archives)
Cedar City, Utah, United States

Feed Status: UP
Listen in your browser - HTML5 player(in browser, HTML5)
Click here to listen with your own player(launches your MP3 player)

KCDC 232353Z AUTO 26005KT 10SM CLR 27/09 A3021 RMK AO2 LTG DSNT S-W SLP151 60000 T02720094 10300 20267 58003

KCDC Airport Info (Airnav.com)

KCDC Flight Activity (Flightaware)

Listeners: 0 out of 1552 total

Cedar City CTAF: 123.000

KCDC CTAF #2 (Archives)
Cedar City, Utah, United States

Feed Status: UP
Listen in your browser - HTML5 player(in browser, HTML5)
Click here to listen with your own player(launches your MP3 player)

KCDC 232353Z AUTO 26005KT 10SM CLR 27/09 A3021 RMK AO2 LTG DSNT S-W SLP151 60000 T02720094 10300 20267 58003

KCDC Airport Info (Airnav.com)

KCDC Flight Activity (Flightaware)

Listeners: 0 out of 1552 total

Cedar City CTAF: 123.000

KCDC Guard (Archives)
Cedar City, Utah, United States

Feed Status: UP
Listen in your browser - HTML5 player(in browser, HTML5)
Click here to listen with your own player(launches your MP3 player)

KCDC 232353Z AUTO 26005KT 10SM CLR 27/09 A3021 RMK AO2 LTG DSNT S-W SLP151 60000 T02720094 10300 20267 58003

KCDC Airport Info (Airnav.com)

KCDC Flight Activity (Flightaware)

Listeners: 0 out of 1552 total

Emergency/Guard: 121.500

KCDC T-Bird Dispatch (Archives)
Cedar City, Utah, United States

Feed Status: UP
Listen in your browser - HTML5 player(in browser, HTML5)
Click here to listen with your own player(launches your MP3 player)

KCDC 232353Z AUTO 26005KT 10SM CLR 27/09 A3021 RMK AO2 LTG DSNT S-W SLP151 60000 T02720094 10300 20267 58003

KCDC Airport Info (Airnav.com)

KCDC Flight Activity (Flightaware)

Listeners: 0 out of 1552 total

SUU Aviation T-Bird Traffic (Dispatch): 123.500

KCDW Del/Gnd/Twr (Archives)
Caldwell, New Jersey, United States

Feed Status: UP
Listen in your browser - HTML5 player(in browser, HTML5)
Click here to listen with your own player(launches your MP3 player)

KCDW 232353Z 00000KT 10SM CLR 24/15 A3009 RMK AO2 SLP192 60001 T02440150 10294 20239 50002

KCDW Airport Info (Airnav.com)

KCDW Flight Activity (Flightaware)

Listeners: 3 out of 1552 total

Caldwell Clearance: 121.100
Caldwell Ground: 121.900
Caldwell Tower: 119.800

KCEU CTAF/App
Clemson, South Carolina, United States

Feed Status: DOWN
Offline since: 2019-10-13 21:53:39 UTC

KCEU Airport Info (Airnav.com)

CTAF: 122.700
Greer Approach/Departure: 118.800

KCEZ CTAF/ZDV (Archives)
Cortez, Colorado, United States

Feed Status: UP
Listen in your browser - HTML5 player(in browser, HTML5)
Click here to listen with your own player(launches your MP3 player)

KCEZ 232353Z AUTO 05011KT 10SM CLR 26/14 A3013 RMK AO2 SLP121 T02610144 10300 20256 56016

KCEZ Airport Info (Airnav.com)

KCEZ Flight Activity (Flightaware)

Listeners: 0 out of 1552 total

Cortez CTAF: 122.800
Denver Center (Sector 36 Farmington Low): 118.575
Emergency/Guard: 121.500

KCFD CTAF/App (Archives)
Bryan, Texas, United States

Feed Status: UP
Listen in your browser - HTML5 player(in browser, HTML5)
Click here to listen with your own player(launches your MP3 player)

KCFD 240015Z AUTO 18007KT 10SM CLR 32/22 A3003 RMK AO2 T03200219

KCFD Airport Info (Airnav.com)

KCFD Flight Activity (Flightaware)

Listeners: 0 out of 1552 total

Bryan CTAF/UNICOM: 123.000
Houston Approach/Departure: 134.300

KCFJ CTAF (Archives)
Crawfordsville, Indiana, United States

Feed Status: UP
Listen in your browser - HTML5 player(in browser, HTML5)
Click here to listen with your own player(launches your MP3 player)

KCFJ 240015Z AUTO 00000KT 7SM SCT070 SCT100 25/22 A3008 RMK AO2 T02540215

KCFJ Airport Info (Airnav.com)

KCFJ Flight Activity (Flightaware)

Listeners: 0 out of 1552 total

Crawfordsville CTAF: 122.800

KCFJ Emergency/Guard (Archives)
Crawfordsville, Indiana, United States

Feed Status: UP
Listen in your browser - HTML5 player(in browser, HTML5)
Click here to listen with your own player(launches your MP3 player)

KCFJ 240015Z AUTO 00000KT 7SM SCT070 SCT100 25/22 A3008 RMK AO2 T02540215

KCFJ Airport Info (Airnav.com)

KCFJ Flight Activity (Flightaware)

Listeners: 0 out of 1552 total

Emergency/Guard: 121.500

KCFO/KEIK/KBDU/KLMO/Misc (Archives)
Denver, Colorado, United States

Feed Status: UP
Listen in your browser - HTML5 player(in browser, HTML5)
Click here to listen with your own player(launches your MP3 player)

KDEN 232353Z 34018G32KT 10SM SCT095 SCT120 BKN170 BKN220 28/13 A3016 RMK AO2 PK WND 36034/2256 SLP127 T02830128 10350 20283 51010

KDEN Airport Info (Airnav.com)

KDEN Flight Activity (Flightaware)

Listeners: 0 out of 1552 total

Air-to-Air Fixed Wing: 122.750
Air-to-Air Informal: 123.450
Boulder CTAF: 122.725
Erie CTAF: 123.000
Front Range Tower: 120.200
KBKF Tower: 121.000
Longmont CTAF: 122.975
MULTICOM: 122.900
UNICOM: 122.950

KCGZ AWOS
Casa Grande, Arizona, United States

Feed Status: DOWN
Offline since: 2021-07-24 00:35:05 UTC

KCGZ 232356Z AUTO 03006KT 10SM -RA SCT041 BKN050 BKN060 24/21 A3007 RMK AO2 SLP172 P0002 60002 T02440211 10250 20239 56014

KCGZ Airport Info (Airnav.com)

Casa Grande AWOS: 132.175

KCGZ CTAF (Archives)
Casa Grande, Arizona, United States

Feed Status: UP
Listen in your browser - HTML5 player(in browser, HTML5)
Click here to listen with your own player(launches your MP3 player)

KCGZ 232356Z AUTO 03006KT 10SM -RA SCT041 BKN050 BKN060 24/21 A3007 RMK AO2 SLP172 P0002 60002 T02440211 10250 20239 56014

KCGZ Airport Info (Airnav.com)

KCGZ Flight Activity (Flightaware)

Listeners: 0 out of 1552 total

Casa Grande CTAF: 122.700

KCGZ SE/SW Practice Area (Archives)
Casa Grande, Arizona, United States

Feed Status: UP
Listen in your browser - HTML5 player(in browser, HTML5)
Click here to listen with your own player(launches your MP3 player)

KCGZ 232356Z AUTO 03006KT 10SM -RA SCT041 BKN050 BKN060 24/21 A3007 RMK AO2 SLP172 P0002 60002 T02440211 10250 20239 56014

KCGZ Airport Info (Airnav.com)

KCGZ Flight Activity (Flightaware)

Listeners: 0 out of 1552 total

Casa Grande SE Practice Area: 122.850

KCHD Tower (North) (Archives)
Chandler, Arizona, United States

Feed Status: UP
Listen in your browser - HTML5 player(in browser, HTML5)
Click here to listen with your own player(launches your MP3 player)

KCHD 232347Z 34006KT 10SM FEW040 OVC060 25/22 A3006

KCHD Airport Info (Airnav.com)

KCHD Flight Activity (Flightaware)

Listeners: 0 out of 1552 total

Chandler Tower (North): 126.100

KCHD Tower (South) (Archives)
Chandler, Arizona, United States

Feed Status: UP
Listen in your browser - HTML5 player(in browser, HTML5)
Click here to listen with your own player(launches your MP3 player)

KCHD 232347Z 34006KT 10SM FEW040 OVC060 25/22 A3006

KCHD Airport Info (Airnav.com)

KCHD Flight Activity (Flightaware)

Listeners: 0 out of 1552 total

Chandler Tower (South): 133.100

KCHK CTAF (Archives)
Chickasha, Oklahoma, United States

Feed Status: UP
Listen in your browser - HTML5 player(in browser, HTML5)
Click here to listen with your own player(launches your MP3 player)

KCHK 240015Z AUTO 16010KT 10SM CLR 31/22 A2997 RMK AO2 T03150217

KCHK Airport Info (Airnav.com)

KCHK Flight Activity (Flightaware)

Listeners: 0 out of 1552 total

Chickasha CTAF: 123.000

KCHO Tower (Archives)
Charlottesville, Virginia, United States

Feed Status: UP
Listen in your browser - HTML5 player(in browser, HTML5)
Click here to listen with your own player(launches your MP3 player)

KCHO 232353Z 06004KT 10SM CLR 27/16 A3011 RMK AO2 SLP189 T02720156 10311 20272 55001

KCHO Airport Info (Airnav.com)

KCHO Flight Activity (Flightaware)

Listeners: 0 out of 1552 total

Charlottesville Tower: 124.500

KCHO Tower/App (Archives)
Charlottesville, Virginia, United States

Feed Status: UP
Listen in your browser - HTML5 player(in browser, HTML5)
Click here to listen with your own player(launches your MP3 player)

KCHO 232353Z 06004KT 10SM CLR 27/16 A3011 RMK AO2 SLP189 T02720156 10311 20272 55001

KCHO Airport Info (Airnav.com)

KCHO Flight Activity (Flightaware)

Listeners: 0 out of 1552 total

Charlottesville Tower: 124.500
Potomac Approach/Departure: 132.850

KCIC Tower/ZOA42 (Archives)
Chico, California, United States

Feed Status: UP
Listen in your browser - HTML5 player(in browser, HTML5)
Click here to listen with your own player(launches your MP3 player)

KCIC 232350Z 19008KT 7SM SKC 39/M02 A2988 RMK FUHZ ALQDS

KCIC Airport Info (Airnav.com)

KCIC Flight Activity (Flightaware)

Listeners: 1 out of 1552 total

Chico CTAF/Tower: 121.000
Oakland Center (Sector 42 Low): 132.200

KCID Gnd/Twr/App/KIOW (Archives)
Cedar Rapids, Iowa, United States

Feed Status: UP
Listen in your browser - HTML5 player(in browser, HTML5)
Click here to listen with your own player(launches your MP3 player)

KCID 232352Z 20009KT 7SM CLR 29/23 A2998 RMK AO2 SLP147 T02890228 10311 20289 58011

KCID Airport Info (Airnav.com)

KCID Flight Activity (Flightaware)

Listeners: 0 out of 1552 total

Cedar Rapids Approach (091-269): 119.700
Cedar Rapids Approach (270-090): 134.050
Cedar Rapids Clearance Delivery: 125.450
Cedar Rapids Ground (0500-2330): 121.600
Cedar Rapids Tower (0500-2330): 118.700
UNICOM C17 (Marion) and surrounding area: 122.700
UNICOM IA24 Green Castle: 122.900
UNICOM KIOW (Iowa City) and surrounding area: 122.800

KCIU CTAF (Air Race Classic)
Sault Ste Marie, Michigan, United States

Feed Status: DOWN
Offline since: 2019-06-24 17:12:02 UTC

Chippewa CTAF: 123.000

KCKB App/Dep (Archives)
Clarksburg, West Virginia, United States

Feed Status: UP
Listen in your browser - HTML5 player(in browser, HTML5)
Click here to listen with your own player(launches your MP3 player)

KCKB 232353Z 34003KT 10SM CLR 25/15 A3013 RMK AO2 SLP191 T02500150 10272 20250 55009

KCKB Airport Info (Airnav.com)

KCKB Flight Activity (Flightaware)

Listeners: 0 out of 1552 total

Clarksburg Approach (East): 121.150
Clarksburg Approach (West): 119.600

KCKB App/Dep (East) (Archives)
Clarksburg, West Virginia, United States

Feed Status: UP
Listen in your browser - HTML5 player(in browser, HTML5)
Click here to listen with your own player(launches your MP3 player)

KCKB 232353Z 34003KT 10SM CLR 25/15 A3013 RMK AO2 SLP191 T02500150 10272 20250 55009

KCKB Airport Info (Airnav.com)

KCKB Flight Activity (Flightaware)

Listeners: 0 out of 1552 total

Clarksburg Approach (East): 121.150

KCKB App/Dep (West) (Archives)
Clarksburg, West Virginia, United States

Feed Status: UP
Listen in your browser - HTML5 player(in browser, HTML5)
Click here to listen with your own player(launches your MP3 player)

KCKB 232353Z 34003KT 10SM CLR 25/15 A3013 RMK AO2 SLP191 T02500150 10272 20250 55009

KCKB Airport Info (Airnav.com)

KCKB Flight Activity (Flightaware)

Listeners: 0 out of 1552 total

Clarksburg Approach (West): 119.600

KCKB Emergency/Guard (Archives)
Clarksburg, West Virginia, United States

Feed Status: UP
Listen in your browser - HTML5 player(in browser, HTML5)
Click here to listen with your own player(launches your MP3 player)

KCKB 232353Z 34003KT 10SM CLR 25/15 A3013 RMK AO2 SLP191 T02500150 10272 20250 55009

KCKB Airport Info (Airnav.com)

KCKB Flight Activity (Flightaware)

Listeners: 0 out of 1552 total

Emergency/Guard: 121.500

KCKB Ground (Archives)
Clarksburg, West Virginia, United States

Feed Status: UP
Listen in your browser - HTML5 player(in browser, HTML5)
Click here to listen with your own player(launches your MP3 player)

KCKB 232353Z 34003KT 10SM CLR 25/15 A3013 RMK AO2 SLP191 T02500150 10272 20250 55009

KCKB Airport Info (Airnav.com)

KCKB Flight Activity (Flightaware)

Listeners: 0 out of 1552 total

Clarksburg Ground: 121.900

KCKB Ground/Tower (Archives)
Clarksburg, West Virginia, United States

Feed Status: UP
Listen in your browser - HTML5 player(in browser, HTML5)
Click here to listen with your own player(launches your MP3 player)

KCKB 232353Z 34003KT 10SM CLR 25/15 A3013 RMK AO2 SLP191 T02500150 10272 20250 55009

KCKB Airport Info (Airnav.com)

KCKB Flight Activity (Flightaware)

Listeners: 1 out of 1552 total

Clarksburg Ground: 121.900
Clarksburg Tower: 126.700

KCKB Tower (Archives)
Clarksburg, West Virginia, United States

Feed Status: UP
Listen in your browser - HTML5 player(in browser, HTML5)
Click here to listen with your own player(launches your MP3 player)

KCKB 232353Z 34003KT 10SM CLR 25/15 A3013 RMK AO2 SLP191 T02500150 10272 20250 55009

KCKB Airport Info (Airnav.com)

KCKB Flight Activity (Flightaware)

Listeners: 0 out of 1552 total

Clarksburg Tower: 126.700

KCLM Del/CTAF/App (Archives)
Port Angeles, Washington, United States

Feed Status: UP
Listen in your browser - HTML5 player(in browser, HTML5)
Click here to listen with your own player(launches your MP3 player)

KCLM 232353Z AUTO 30009G14KT 10SM CLR 22/13 A3027 RMK AO2 SLP249 T02170133 10233 20189 58005

KCLM Airport Info (Airnav.com)

KCLM Flight Activity (Flightaware)

Listeners: 0 out of 1552 total

Clearance Delivery: 124.150
Fairchild CTAF: 122.975
Seattle Radio (Port Angeles RCO): 122.600
Whidbey Approach: 118.200

KCMA ATIS (Archives)
Camarillo, California, United States

Feed Status: UP
Listen in your browser - HTML5 player(in browser, HTML5)
Click here to listen with your own player(launches your MP3 player)

KCMA 232355Z 25009KT 9SM CLR 24/14 A3001 RMK AO2 SLP169 T02390144 10261 20239 58012

KCMA Airport Info (Airnav.com)

KCMA Flight Activity (Flightaware)

Listeners: 0 out of 1552 total

Camarillo ATIS: 126.025

KCMA Gnd/Twr/App (Archives)
Camarillo, California, United States

Feed Status: UP
Listen in your browser - HTML5 player(in browser, HTML5)
Click here to listen with your own player(launches your MP3 player)

KCMA 232355Z 25009KT 9SM CLR 24/14 A3001 RMK AO2 SLP169 T02390144 10261 20239 58012

KCMA Airport Info (Airnav.com)

KCMA Flight Activity (Flightaware)

Listeners: 3 out of 1552 total

Camarillo Ground: 121.800
Camarillo Tower: 128.200
Point Mugu Approach: 124.700

KWDR/KCVC/KCNI CTAF (Archives)
Canton, Georgia, United States

Feed Status: UP
Listen in your browser - HTML5 player(in browser, HTML5)
Click here to listen with your own player(launches your MP3 player)

KWDR 240015Z AUTO 00000KT 10SM CLR 27/22 A3011 RMK AO2

KWDR Airport Info (Airnav.com)

KWDR Flight Activity (Flightaware)

Listeners: 0 out of 1552 total

KWDR/KCVC/KCNI CTAF: 123.000

KCNO Ground (Archives)
Chino, California, United States

Feed Status: UP
Listen in your browser - HTML5 player(in browser, HTML5)
Click here to listen with your own player(launches your MP3 player)

KCNO 232353Z 26013KT 10SM SCT180 33/17 A2998 RMK AO2 SLP146 T03280167 10361 20300 58012

KCNO Airport Info (Airnav.com)

KCNO Flight Activity (Flightaware)

Listeners: 0 out of 1552 total

Chino Ground: 121.600

KCNO Ground/Tower (Archives)
Chino, California, United States

Feed Status: UP
Listen in your browser - HTML5 player(in browser, HTML5)
Click here to listen with your own player(launches your MP3 player)

KCNO 232353Z 26013KT 10SM SCT180 33/17 A2998 RMK AO2 SLP146 T03280167 10361 20300 58012

KCNO Airport Info (Airnav.com)

KCNO Flight Activity (Flightaware)

Listeners: 1 out of 1552 total

Chino Ground: 121.600
Chino Tower: 118.500

KCNO Tower (Archives)
Chino, California, United States

Feed Status: UP
Listen in your browser - HTML5 player(in browser, HTML5)
Click here to listen with your own player(launches your MP3 player)

KCNO 232353Z 26013KT 10SM SCT180 33/17 A2998 RMK AO2 SLP146 T03280167 10361 20300 58012

KCNO Airport Info (Airnav.com)

KCNO Flight Activity (Flightaware)

Listeners: 0 out of 1552 total

Chino Tower: 118.500

KCOE CTAF (Archives)
Coeur d'Alene, Idaho, United States

Feed Status: UP
Listen in your browser - HTML5 player(in browser, HTML5)
Click here to listen with your own player(launches your MP3 player)

KCOE 232356Z AUTO 25009KT 10SM CLR 29/01 A3015 RMK AO2 SLP210 T02890011 10294 20233 58008

KCOE Airport Info (Airnav.com)

KCOE Flight Activity (Flightaware)

Listeners: 1 out of 1552 total

Coeur d'Alene CTAF: 122.800

KCOE FSS (Archives)
Coeur d'Alene, Idaho, United States

Feed Status: UP
Listen in your browser - HTML5 player(in browser, HTML5)
Click here to listen with your own player(launches your MP3 player)

KCOE 232356Z AUTO 25009KT 10SM CLR 29/01 A3015 RMK AO2 SLP210 T02890011 10294 20233 58008

KCOE Airport Info (Airnav.com)

KCOE Flight Activity (Flightaware)

Listeners: 0 out of 1552 total

Flight Service: 122.550
Flight Service: 122.650
Flight Service: 122.000
Flight Service: 122.050

KCON/KDAW/KFIT CTAF (Archives)
Concord, New Hampshire, United States

Feed Status: UP
Listen in your browser - HTML5 player(in browser, HTML5)
Click here to listen with your own player(launches your MP3 player)

KMHT 232353Z 27003KT 10SM FEW050 SCT110 SCT250 22/13 A3007 RMK AO2 SLP192 60000 T02170128 10267 20211 51006

KMHT Airport Info (Airnav.com)

KMHT Flight Activity (Flightaware)

Listeners: 0 out of 1552 total

NH/MA Area CTAF: 122.700

MA/NH/RI/CT Area CTAF (Archives)
Concord, New Hampshire, United States

Feed Status: UP
Listen in your browser - HTML5 player(in browser, HTML5)
Click here to listen with your own player(launches your MP3 player)

KBOS 232354Z 00000KT 10SM FEW035 FEW065 SCT110 BKN250 24/12 A3008 RMK AO2 LTG DSNT SE SLP186 CB DSNT S T02390117 10250 20222 53007

KBOS Airport Info (Airnav.com)

KBOS Flight Activity (Flightaware)

Listeners: 0 out of 1552 total

Air-to-Air: 122.750
Bridgeport Flight Service: 122.200
CTAF: 122.700
CTAF: 122.800
CTAF: 122.900
CTAF: 123.000
Emergency/Guard: 121.500

MA/NH/RI/CT Area CTAF (Archives)
Concord, New Hampshire, United States

Feed Status: UP
Listen in your browser - HTML5 player(in browser, HTML5)
Click here to listen with your own player(launches your MP3 player)

KBOS 232354Z 00000KT 10SM FEW035 FEW065 SCT110 BKN250 24/12 A3008 RMK AO2 LTG DSNT SE SLP186 CB DSNT S T02390117 10250 20222 53007

KBOS Airport Info (Airnav.com)

KBOS Flight Activity (Flightaware)

Listeners: 0 out of 1552 total

Air-to-Air: 122.750
Bridgeport Flight Service: 122.200
CTAF: 122.700
CTAF: 122.800
CTAF: 122.900
CTAF: 123.000
Emergency/Guard: 121.500

MA/NH/RI/CT Area CTAF (Archives)
Concord, New Hampshire, United States

Feed Status: UP
Listen in your browser - HTML5 player(in browser, HTML5)
Click here to listen with your own player(launches your MP3 player)

KBOS 232354Z 00000KT 10SM FEW035 FEW065 SCT110 BKN250 24/12 A3008 RMK AO2 LTG DSNT SE SLP186 CB DSNT S T02390117 10250 20222 53007

KBOS Airport Info (Airnav.com)

KBOS Flight Activity (Flightaware)

Listeners: 0 out of 1552 total

Air-to-Air: 122.750
Bridgeport Flight Service: 122.200
CTAF: 122.700
CTAF: 122.800
CTAF: 122.900
CTAF: 123.000
Emergency/Guard: 121.500

KCOU CTAF/Gnd/App (Archives)
Columbia, Missouri, United States

Feed Status: UP
Listen in your browser - HTML5 player(in browser, HTML5)
Click here to listen with your own player(launches your MP3 player)

KCOU 232354Z 22006KT 10SM CLR 31/22 A3004 RMK AO2 SLP163 T03060217 10322 20300 56012

KCOU Airport Info (Airnav.com)

KCOU Flight Activity (Flightaware)

Listeners: 0 out of 1552 total

Columbia CTAF: 119.300
Columbia Ground: 121.600
Columbia UNICOM: 122.950
Mizzou Approach/Departure: 124.375

KCPM CTAF (Archives)
Compton, California, United States

Feed Status: UP
Listen in your browser - HTML5 player(in browser, HTML5)
Click here to listen with your own player(launches your MP3 player)

KCPM Airport Info (Airnav.com)

KCPM Flight Activity (Flightaware)

Listeners: 0 out of 1552 total

Compton CTAF: 123.050

KCPR Tower/App (Archives)
Casper, Wyoming, United States

Feed Status: UP
Listen in your browser - HTML5 player(in browser, HTML5)
Click here to listen with your own player(launches your MP3 player)

KCPR 232353Z 03014G17KT 7SM CLR 32/02 A3011 RMK AO2 SLP116 T03220022 10344 20261 56009 $

KCPR Airport Info (Airnav.com)

KCPR Flight Activity (Flightaware)

Listeners: 0 out of 1552 total

Casper Approach: 120.650
Casper Tower: 118.300

KCPS Del/Gnd/Twr/App (Archives)
Cahokia/St Louis, Illinois, United States

Feed Status: UP
Listen in your browser - HTML5 player(in browser, HTML5)
Click here to listen with your own player(launches your MP3 player)

KCPS 232353Z 15006KT 10SM HZ CLR 30/23 A3004 RMK AO2 SLP168 T03000228 10322 20300 56009

KCPS Airport Info (Airnav.com)

KCPS Flight Activity (Flightaware)

Listeners: 0 out of 1552 total

Downtown Clearance Delivery: 118.275
Downtown Ground: 121.800
Downtown Tower: 119.925
St. Louis Approach/Departure: 123.700

KCQF CTAF/Misc (Archives)
Fairhope, Alabama, United States

Feed Status: UP
Listen in your browser - HTML5 player(in browser, HTML5)
Click here to listen with your own player(launches your MP3 player)

KCQF 240015Z AUTO 09003KT 10SM CLR 28/24 A3005 RMK AO2

KCQF Airport Info (Airnav.com)

KCQF Flight Activity (Flightaware)

Listeners: 0 out of 1552 total

Emergency/Guard: 121.500
Fairhope CTAF: 123.000

5B6/KCQX/KPVC CTAF (Archives)
Chatham, Massachusetts, United States

Feed Status: UP
Listen in your browser - HTML5 player(in browser, HTML5)
Click here to listen with your own player(launches your MP3 player)

KHYA 232356Z 20003KT 10SM CLR 22/16 A3008 RMK AO2 SLP185 6//// T02170156 10261 20217 53007 PNO $

KHYA Airport Info (Airnav.com)

KHYA Flight Activity (Flightaware)

Listeners: 0 out of 1552 total

Falmouth/Chatham/Provincetown CTAF: 122.800

KCRE ATIS (Archives)
North Myrtle Beach, South Carolina, United States

Feed Status: UP
Listen in your browser - HTML5 player(in browser, HTML5)
Click here to listen with your own player(launches your MP3 player)

KCRE 232353Z 10008KT 10SM CLR 27/19 A3008 RMK AO1 SLP187 60000 T02720189 10294 20272 53005

KCRE Airport Info (Airnav.com)

KCRE Flight Activity (Flightaware)

Listeners: 0 out of 1552 total

Strand ATIS: 119.625

KCRE Ground/Tower (Archives)
North Myrtle Beach, South Carolina, United States

Feed Status: UP
Listen in your browser - HTML5 player(in browser, HTML5)
Click here to listen with your own player(launches your MP3 player)

KCRE 232353Z 10008KT 10SM CLR 27/19 A3008 RMK AO1 SLP187 60000 T02720189 10294 20272 53005

KCRE Airport Info (Airnav.com)

KCRE Flight Activity (Flightaware)

Listeners: 0 out of 1552 total

Strand Ground: 121.800
Strand Tower: 124.600

KCRG Gnd/Twr/App (Archives)
Jacksonville, Florida, United States

Feed Status: UP
Listen in your browser - HTML5 player(in browser, HTML5)
Click here to listen with your own player(launches your MP3 player)

KCRG 232353Z 00000KT 10SM CLR 28/25 A3004 RMK AO2 SLP172 T02780250 10328 20278 50005

KCRG Airport Info (Airnav.com)

KCRG Flight Activity (Flightaware)

Listeners: 0 out of 1552 total

Craig Clearance: 118.350
Craig Ground: 121.800
Craig Tower: 132.100
Jacksonville Approach: 118.000
Jacksonville Approach: 124.900

KCRQ Tower (Archives)
Carlsbad, California, United States

Feed Status: UP
Listen in your browser - HTML5 player(in browser, HTML5)
Click here to listen with your own player(launches your MP3 player)

KCRQ 240022Z 25007KT 9SM BKN014 21/17 A3001 RMK AO2 T02110172

KCRQ Airport Info (Airnav.com)

KCRQ Flight Activity (Flightaware)

Listeners: 4 out of 1552 total

Palomar Tower: 118.600

KCTJ/KLGC CTAF (Archives)
Carrollton, Georgia, United States

Feed Status: UP
Listen in your browser - HTML5 player(in browser, HTML5)
Click here to listen with your own player(launches your MP3 player)

KCCO 240015Z AUTO 00000KT 10SM SCT050 SCT055 29/23 A3009 RMK AO2 T02940226

KCCO Airport Info (Airnav.com)

KCCO Flight Activity (Flightaware)

Listeners: 0 out of 1552 total

KCTJ/KLGC CTAF: 122.975

51FL/KCDK/KCTY/X60 CTAF (Archives)
Cross City, Florida, United States

Feed Status: UP
Listen in your browser - HTML5 player(in browser, HTML5)
Click here to listen with your own player(launches your MP3 player)


Listeners: 0 out of 1552 total

Cedar Key CTAF: 122.900
Cross City CTAF: 122.800
Emergency/Guard: 121.500
Jacksonville Approach/Departure: 118.600
Jacksonville Center: 127.800
Williston CTAF: 122.975

KCUB CTAF (Archives)
Columbia, South Carolina, United States

Feed Status: UP
Listen in your browser - HTML5 player(in browser, HTML5)
Click here to listen with your own player(launches your MP3 player)

KCUB 232353Z AUTO 00000KT 9SM FEW055 30/21 A3006 RMK AO2 SLP177 T03000206 10333 20300 55001

KCUB Airport Info (Airnav.com)

KCUB Flight Activity (Flightaware)

Listeners: 0 out of 1552 total

Columbia CTAF: 123.075

KWDR/KCVC/KCNI CTAF (Archives)
Atlanta, Georgia, United States

Feed Status: UP
Listen in your browser - HTML5 player(in browser, HTML5)
Click here to listen with your own player(launches your MP3 player)

KWDR 240015Z AUTO 00000KT 10SM CLR 27/22 A3011 RMK AO2

KWDR Airport Info (Airnav.com)

KWDR Flight Activity (Flightaware)

Listeners: 0 out of 1552 total

KWDR/KCVC/KCNI CTAF: 123.000

KCVO CTAF/Misc (Archives)
Corvallis, Oregon, United States

Feed Status: UP
Listen in your browser - HTML5 player(in browser, HTML5)
Click here to listen with your own player(launches your MP3 player)

KCVO 232356Z AUTO 02009G18KT 10SM CLR 30/07 A3014 RMK AO2 SLP208 T03000067 10306 20222 58019

KCVO Airport Info (Airnav.com)

KCVO Flight Activity (Flightaware)

Listeners: 1 out of 1552 total

Cascade Approach: 127.500
Cascade Approach: 119.600
Corvallis CTAF: 123.075
Seattle Center (Sector 6 Low): 125.800

KCXP CTAF (Archives)
Carson City, Nevada, United States

Feed Status: UP
Listen in your browser - HTML5 player(in browser, HTML5)
Click here to listen with your own player(launches your MP3 player)

KCXP 240010Z AUTO 09006KT 9SM CLR 36/01 A3012 RMK AO2

KCXP Airport Info (Airnav.com)

KCXP Flight Activity (Flightaware)

Listeners: 0 out of 1552 total

Carson City CTAF: 123.000

KCXY Ground (Archives)
Harrisburg, Pennsylvania, United States

Feed Status: UP
Listen in your browser - HTML5 player(in browser, HTML5)
Click here to listen with your own player(launches your MP3 player)

KMDT 232356Z 24004KT 10SM FEW060 25/17 A3009 RMK AO2 SLP189 T02500167 10283 20250 56008

KMDT Airport Info (Airnav.com)

KMDT Flight Activity (Flightaware)

Listeners: 0 out of 1552 total

Capital City Ground: 121.900

KCXY Ground/Tower (Archives)
Harrisburg, Pennsylvania, United States

Feed Status: UP
Listen in your browser - HTML5 player(in browser, HTML5)
Click here to listen with your own player(launches your MP3 player)

KMDT 232356Z 24004KT 10SM FEW060 25/17 A3009 RMK AO2 SLP189 T02500167 10283 20250 56008

KMDT Airport Info (Airnav.com)

KMDT Flight Activity (Flightaware)

Listeners: 0 out of 1552 total

Capital City Ground: 121.900
Capital City Tower: 119.500

KCXY Tower (Archives)
Harrisburg, Pennsylvania, United States

Feed Status: UP
Listen in your browser - HTML5 player(in browser, HTML5)
Click here to listen with your own player(launches your MP3 player)

KMDT 232356Z 24004KT 10SM FEW060 25/17 A3009 RMK AO2 SLP189 T02500167 10283 20250 56008

KMDT Airport Info (Airnav.com)

KMDT Flight Activity (Flightaware)

Listeners: 0 out of 1552 total

Capital City Tower: 119.500

KCYS Gnd/Twr/App/Center (Archives)
Cheyenne, Wyoming, United States

Feed Status: UP
Listen in your browser - HTML5 player(in browser, HTML5)
Click here to listen with your own player(launches your MP3 player)

KCYS 232353Z 02007KT 10SM BKN100 BKN120 26/07 A3024 RMK AO2 SLP142 60000 T02610067 10294 20250 58005

KCYS Airport Info (Airnav.com)

KCYS Flight Activity (Flightaware)

Listeners: 1 out of 1552 total

Cheyenne Approach: 124.550
Cheyenne Ground: 121.900
Cheyenne Tower: 118.700
Denver Center (Sector 21 Cheyenne Low): 125.900
Emergency/Guard: 121.500

KDAA/KADW Tower (Archives)
Fort Belvoir, Virginia, United States

Feed Status: UP
Listen in your browser - HTML5 player(in browser, HTML5)
Click here to listen with your own player(launches your MP3 player)



KDAA Airport Info (Airnav.com)

KDAA Flight Activity (Flightaware)

Listeners: 0 out of 1552 total

Andrews Tower: 118.400
Andrews Tower: 349.000
Davison Tower: 241.000
Davison Tower: 126.300
Davison Tower: 229.400

KCON/KDAW/KFIT CTAF (Archives)
Rochester, New Hampshire, United States

Feed Status: UP
Listen in your browser - HTML5 player(in browser, HTML5)
Click here to listen with your own player(launches your MP3 player)

KMHT 232353Z 27003KT 10SM FEW050 SCT110 SCT250 22/13 A3007 RMK AO2 SLP192 60000 T02170128 10267 20211 51006

KMHT Airport Info (Airnav.com)

KMHT Flight Activity (Flightaware)

Listeners: 0 out of 1552 total

NH/MA Area CTAF: 122.700

KDBQ ATIS (Archives)
Dubuque, Iowa, United States

Feed Status: UP
Listen in your browser - HTML5 player(in browser, HTML5)
Click here to listen with your own player(launches your MP3 player)

KDBQ 232353Z 21008KT 8SM CLR 28/21 A3001 RMK AO2 SLP153 T02830211 10306 20283 56012

KDBQ Airport Info (Airnav.com)

KDBQ Flight Activity (Flightaware)

Listeners: 0 out of 1552 total

Dubuque ATIS: 127.250

KDBQ Ground (Archives)
Dubuque, Iowa, United States

Feed Status: UP
Listen in your browser - HTML5 player(in browser, HTML5)
Click here to listen with your own player(launches your MP3 player)

KDBQ 232353Z 21008KT 8SM CLR 28/21 A3001 RMK AO2 SLP153 T02830211 10306 20283 56012

KDBQ Airport Info (Airnav.com)

KDBQ Flight Activity (Flightaware)

Listeners: 0 out of 1552 total

Dubuque Ground: 121.800

KDBQ Ground/Tower (Archives)
Dubuque, Iowa, United States

Feed Status: UP
Listen in your browser - HTML5 player(in browser, HTML5)
Click here to listen with your own player(launches your MP3 player)

KDBQ 232353Z 21008KT 8SM CLR 28/21 A3001 RMK AO2 SLP153 T02830211 10306 20283 56012

KDBQ Airport Info (Airnav.com)

KDBQ Flight Activity (Flightaware)

Listeners: 0 out of 1552 total

Dubuque Ground: 121.800
Dubuque Tower: 119.500

KDBQ Guard (Archives)
Dubuque, Iowa, United States

Feed Status: UP
Listen in your browser - HTML5 player(in browser, HTML5)
Click here to listen with your own player(launches your MP3 player)

KDBQ 232353Z 21008KT 8SM CLR 28/21 A3001 RMK AO2 SLP153 T02830211 10306 20283 56012

KDBQ Airport Info (Airnav.com)

KDBQ Flight Activity (Flightaware)

Listeners: 0 out of 1552 total

Emergency/Guard: 121.500

KDBQ Tower (Archives)
Dubuque, Iowa, United States

Feed Status: UP
Listen in your browser - HTML5 player(in browser, HTML5)
Click here to listen with your own player(launches your MP3 player)

KDBQ 232353Z 21008KT 8SM CLR 28/21 A3001 RMK AO2 SLP153 T02830211 10306 20283 56012

KDBQ Airport Info (Airnav.com)

KDBQ Flight Activity (Flightaware)

Listeners: 0 out of 1552 total

Dubuque Tower: 119.500

KDED CTAF/Misc (Archives)
DeLand, Florida, United States

Feed Status: UP
Listen in your browser - HTML5 player(in browser, HTML5)
Click here to listen with your own player(launches your MP3 player)

KDED 240010Z AUTO 36003KT 10SM CLR 23/23 A3003 RMK AO2 LTG DSNT W T02320226

KDED Airport Info (Airnav.com)

KDED Flight Activity (Flightaware)

Listeners: 0 out of 1552 total

DeLand CTAF/UNICOM: 123.075
Skydive DeLand: 122.850

KDED/1J6 CTAF/UNICOM (Archives)
DeLand, Florida, United States

Feed Status: UP
Listen in your browser - HTML5 player(in browser, HTML5)
Click here to listen with your own player(launches your MP3 player)

KDED 240010Z AUTO 36003KT 10SM CLR 23/23 A3003 RMK AO2 LTG DSNT W T02320226

KDED Airport Info (Airnav.com)

KDED Flight Activity (Flightaware)

Listeners: 0 out of 1552 total

DeLand CTAF/UNICOM: 123.075

KDLH Gnd/Twr/App (Archives)
Duluth, Minnesota, United States

Feed Status: UP
Listen in your browser - HTML5 player(in browser, HTML5)
Click here to listen with your own player(launches your MP3 player)



KDLH Airport Info (Airnav.com)

KDLH Flight Activity (Flightaware)

Listeners: 0 out of 1552 total

Duluth Approach/Departure: 125.450
Duluth Ground: 121.900
Duluth Tower: 118.300

KDOV App/Dep (Archives)
Dover, Delaware, United States

Feed Status: UP
Listen in your browser - HTML5 player(in browser, HTML5)
Click here to listen with your own player(launches your MP3 player)

KDOV 232356Z AUTO 18005KT 10SM CLR 25/15 A3009 RMK AO2 SLP193 T02450148 10282 20245 55003 $

KDOV Airport Info (Airnav.com)

KDOV Flight Activity (Flightaware)

Listeners: 0 out of 1552 total

Dover Approach/Departure: 132.425

KDOV ATIS (Archives)
Dover, Delaware, United States

Feed Status: UP
Listen in your browser - HTML5 player(in browser, HTML5)
Click here to listen with your own player(launches your MP3 player)

KDOV 232356Z AUTO 18005KT 10SM CLR 25/15 A3009 RMK AO2 SLP193 T02450148 10282 20245 55003 $

KDOV Airport Info (Airnav.com)

KDOV Flight Activity (Flightaware)

Listeners: 0 out of 1552 total

Dover ATIS: 127.825

KDOV Del/Gnd/Twr (Archives)
Dover, Delaware, United States

Feed Status: UP
Listen in your browser - HTML5 player(in browser, HTML5)
Click here to listen with your own player(launches your MP3 player)

KDOV 232356Z AUTO 18005KT 10SM CLR 25/15 A3009 RMK AO2 SLP193 T02450148 10282 20245 55003 $

KDOV Airport Info (Airnav.com)

KDOV Flight Activity (Flightaware)

Listeners: 0 out of 1552 total

Dover Clearance Delivery: 118.050
Dover Clearance Delivery: 125.550
Dover Ground: 118.875
Dover Tower: 126.350

KDOV Gnd/App (Archives)
Dover, Delaware, United States

Feed Status: UP
Listen in your browser - HTML5 player(in browser, HTML5)
Click here to listen with your own player(launches your MP3 player)

KDOV 232356Z AUTO 18005KT 10SM CLR 25/15 A3009 RMK AO2 SLP193 T02450148 10282 20245 55003 $

KDOV Airport Info (Airnav.com)

KDOV Flight Activity (Flightaware)

Listeners: 0 out of 1552 total

Dover Approach/Departure: 132.425
Dover Ground: 118.875

KDOV Tower (Archives)
Dover, Delaware, United States

Feed Status: UP
Listen in your browser - HTML5 player(in browser, HTML5)
Click here to listen with your own player(launches your MP3 player)

KDOV 232356Z AUTO 18005KT 10SM CLR 25/15 A3009 RMK AO2 SLP193 T02450148 10282 20245 55003 $

KDOV Airport Info (Airnav.com)

KDOV Flight Activity (Flightaware)

Listeners: 0 out of 1552 total

Dover Tower: 126.350

KDPA ATIS (Archives)
Chicago, Illinois, United States

Feed Status: UP
Listen in your browser - HTML5 player(in browser, HTML5)
Click here to listen with your own player(launches your MP3 player)

KDPA 232352Z 22007KT 7SM CLR 29/21 A3002 RMK AO2 SLP158 T02940211 10311 20294 56011

KDPA Airport Info (Airnav.com)

KDPA Flight Activity (Flightaware)

Listeners: 0 out of 1552 total

DuPage ATIS: 132.075

KDPA Chicago Approach (Archives)
Chicago, Illinois, United States

Feed Status: UP
Listen in your browser - HTML5 player(in browser, HTML5)
Click here to listen with your own player(launches your MP3 player)

KORD 232351Z 23006KT 5SM HZ FEW047 SCT060 30/21 A3001 RMK AO2 SLP156 T03000211 10317 20272 58012 $

KORD Airport Info (Airnav.com)

KORD Flight Activity (Flightaware)

Listeners: 0 out of 1552 total

Chicago Approach/Departure: 133.500

KDPA Del/Gnd/Twr/Misc
Chicago, Illinois, United States

Feed Status: DOWN
Offline since: 2021-07-23 17:34:39 UTC

KDPA 232352Z 22007KT 7SM CLR 29/21 A3002 RMK AO2 SLP158 T02940211 10311 20294 56011

KDPA Airport Info (Airnav.com)

DuPage Clearance Delivery: 119.750
DuPage Flight Center (FBO): 464.375
DuPage Ground: 121.800
DuPage Ground Operations: 469.5875
DuPage Ground Operations: 453.225
DuPage Ground Operations (Airport Authority): 453.500
DuPage Tower: 120.900
DuPage UNICOM ("Flight Center"): 122.950
Flight Service Station (FSS) RCO: 122.550

KDTO ASOS (Archives)
Denton, Texas, United States

Feed Status: UP
Listen in your browser - HTML5 player(in browser, HTML5)
Click here to listen with your own player(launches your MP3 player)



KDTO Airport Info (Airnav.com)

KDTO Flight Activity (Flightaware)

Listeners: 0 out of 1552 total

Denton ASOS: 119.325

KDTO Gnd/Twr (Archives)
Denton, Texas, United States

Feed Status: UP
Listen in your browser - HTML5 player(in browser, HTML5)
Click here to listen with your own player(launches your MP3 player)



KDTO Airport Info (Airnav.com)

KDTO Flight Activity (Flightaware)

Listeners: 0 out of 1552 total

Denton Ground: 123.950
Denton Tower: 119.950

KDTO Tower (Archives)
Denton, Texas, United States

Feed Status: UP
Listen in your browser - HTML5 player(in browser, HTML5)
Click here to listen with your own player(launches your MP3 player)



KDTO Airport Info (Airnav.com)

KDTO Flight Activity (Flightaware)

Listeners: 0 out of 1552 total

Denton Tower: 119.950

KDVO CTAF (Archives)
Novato, California, United States

Feed Status: UP
Listen in your browser - HTML5 player(in browser, HTML5)
Click here to listen with your own player(launches your MP3 player)

KDVO 240015Z AUTO 34015KT 10SM CLR 30/12 A2994 RMK AO2

KDVO Airport Info (Airnav.com)

KDVO Flight Activity (Flightaware)

Listeners: 0 out of 1552 total

Novato CTAF: 123.075

KDVT ATIS (Archives)
Phoenix, Arizona, United States

Feed Status: UP
Listen in your browser - HTML5 player(in browser, HTML5)
Click here to listen with your own player(launches your MP3 player)

KDVT 232353Z 06004KT 5SM -RA BR BKN110 23/22 A3007 RMK AO2 SLP164 P0008 60028 T02280222 10239 20222 58007

KDVT Airport Info (Airnav.com)

KDVT Flight Activity (Flightaware)

Listeners: 0 out of 1552 total

Deer Valley ATIS: 126.500

KDVT Clearance Delivery (Archives)
Phoenix, Arizona, United States

Feed Status: UP
Listen in your browser - HTML5 player(in browser, HTML5)
Click here to listen with your own player(launches your MP3 player)

KDVT 232353Z 06004KT 5SM -RA BR BKN110 23/22 A3007 RMK AO2 SLP164 P0008 60028 T02280222 10239 20222 58007

KDVT Airport Info (Airnav.com)

KDVT Flight Activity (Flightaware)

Listeners: 0 out of 1552 total

Deer Valley Clearance Delivery: 123.900

KDVT Delivery/Ground (Archives)
Phoenix, Arizona, United States

Feed Status: UP
Listen in your browser - HTML5 player(in browser, HTML5)
Click here to listen with your own player(launches your MP3 player)

KDVT 232353Z 06004KT 5SM -RA BR BKN110 23/22 A3007 RMK AO2 SLP164 P0008 60028 T02280222 10239 20222 58007

KDVT Airport Info (Airnav.com)

KDVT Flight Activity (Flightaware)

Listeners: 0 out of 1552 total

Deer Valley Clearance Delivery: 123.900
Deer Valley Ground: 121.800

KDVT Ground (Archives)
Phoenix, Arizona, United States

Feed Status: UP
Listen in your browser - HTML5 player(in browser, HTML5)
Click here to listen with your own player(launches your MP3 player)

KDVT 232353Z 06004KT 5SM -RA BR BKN110 23/22 A3007 RMK AO2 SLP164 P0008 60028 T02280222 10239 20222 58007

KDVT Airport Info (Airnav.com)

KDVT Flight Activity (Flightaware)

Listeners: 0 out of 1552 total

Deer Valley Ground: 121.800

KDVT Tower (Both) (Archives)
Phoenix, Arizona, United States

Feed Status: UP
Listen in your browser - HTML5 player(in browser, HTML5)
Click here to listen with your own player(launches your MP3 player)

KDVT 232353Z 06004KT 5SM -RA BR BKN110 23/22 A3007 RMK AO2 SLP164 P0008 60028 T02280222 10239 20222 58007

KDVT Airport Info (Airnav.com)

KDVT Flight Activity (Flightaware)

Listeners: 0 out of 1552 total

Deer Valley Tower (North): 120.200
Deer Valley Tower (South): 118.400

KDVT Tower (North) (Archives)
Phoenix, Arizona, United States

Feed Status: UP
Listen in your browser - HTML5 player(in browser, HTML5)
Click here to listen with your own player(launches your MP3 player)

KDVT 232353Z 06004KT 5SM -RA BR BKN110 23/22 A3007 RMK AO2 SLP164 P0008 60028 T02280222 10239 20222 58007

KDVT Airport Info (Airnav.com)

KDVT Flight Activity (Flightaware)

Listeners: 0 out of 1552 total

Deer Valley Tower (North): 120.200

KDVT Tower (South) (Archives)
Phoenix, Arizona, United States

Feed Status: UP
Listen in your browser - HTML5 player(in browser, HTML5)
Click here to listen with your own player(launches your MP3 player)

KDVT 232353Z 06004KT 5SM -RA BR BKN110 23/22 A3007 RMK AO2 SLP164 P0008 60028 T02280222 10239 20222 58007

KDVT Airport Info (Airnav.com)

KDVT Flight Activity (Flightaware)

Listeners: 0 out of 1552 total

Deer Valley Tower (South): 118.400

KDWH Del/ Gnd/Twr (Archives)
Houston, Texas, United States

Feed Status: UP
Listen in your browser - HTML5 player(in browser, HTML5)
Click here to listen with your own player(launches your MP3 player)

KDWH 232353Z 20008G15KT 10SM FEW050 33/22 A3004 RMK AO2 SLP170 T03280222 10350 20328 56015

KDWH Airport Info (Airnav.com)

KDWH Flight Activity (Flightaware)

Listeners: 2 out of 1552 total

Hooks Clearance Delivery: 119.450
Hooks Ground: 121.800
Hooks Tower (E): 127.400
Hooks Tower (W): 118.400
Hooks UNICOM: 122.950

KDXR ATIS (Archives)
Danbury, Connecticut, United States

Feed Status: UP
Listen in your browser - HTML5 player(in browser, HTML5)
Click here to listen with your own player(launches your MP3 player)

KDXR 232353Z 26005KT 10SM BKN110 23/14 A3011 RMK AO2 LTG DSNT S RAB2255E02 SLP193 P0000 60000 T02330139 10278 20233 53005

KDXR Airport Info (Airnav.com)

KDXR Flight Activity (Flightaware)

Listeners: 0 out of 1552 total

Danbury ATIS: 127.750

KDXR Ground/Tower (Archives)
Danbury, Connecticut, United States

Feed Status: UP
Listen in your browser - HTML5 player(in browser, HTML5)
Click here to listen with your own player(launches your MP3 player)

KDXR 232353Z 26005KT 10SM BKN110 23/14 A3011 RMK AO2 LTG DSNT S RAB2255E02 SLP193 P0000 60000 T02330139 10278 20233 53005

KDXR Airport Info (Airnav.com)

KDXR Flight Activity (Flightaware)

Listeners: 1 out of 1552 total

Danbury Ground: 121.600
Danbury Tower: 119.400

KDYB CTAF (Archives)
Summerville, South Carolina, United States

Feed Status: UP
Listen in your browser - HTML5 player(in browser, HTML5)
Click here to listen with your own player(launches your MP3 player)



KDYB Airport Info (Airnav.com)

KDYB Flight Activity (Flightaware)

Listeners: 0 out of 1552 total

Summerville CTAF: 123.000

KDYL CTAF #1 (Archives)
Doylestown, Pennsylvania, United States

Feed Status: UP
Listen in your browser - HTML5 player(in browser, HTML5)
Click here to listen with your own player(launches your MP3 player)

KDYL 232354Z AUTO 00000KT 10SM CLR 24/13 A3009 RMK AO2 SLP184 T02440133 10289 20244 55005

KDYL Airport Info (Airnav.com)

KDYL Flight Activity (Flightaware)

Listeners: 1 out of 1552 total

Doylestown CTAF/UNICOM: 122.975

KDYL CTAF #2 (Archives)
Doylestown, Pennsylvania, United States

Feed Status: UP
Listen in your browser - HTML5 player(in browser, HTML5)
Click here to listen with your own player(launches your MP3 player)

KDYL 232354Z AUTO 00000KT 10SM CLR 24/13 A3009 RMK AO2 SLP184 T02440133 10289 20244 55005

KDYL Airport Info (Airnav.com)

KDYL Flight Activity (Flightaware)

Listeners: 0 out of 1552 total

Doylestown CTAF/UNICOM: 122.975

KEAR AWOS (Archives)
Kearney, Nebraska, United States

Feed Status: UP
Listen in your browser - HTML5 player(in browser, HTML5)
Click here to listen with your own player(launches your MP3 player)

KEAR 232356Z AUTO 14009KT 10SM CLR 32/22 A2994 RMK AO2 SLP119 T03170217 10333 20300 57012

KEAR Airport Info (Airnav.com)

KEAR Flight Activity (Flightaware)

Listeners: 0 out of 1552 total

Kearney AWOS: 123.875

KEAR Columbus Radio (Archives)
Kearney, Nebraska, United States

Feed Status: UP
Listen in your browser - HTML5 player(in browser, HTML5)
Click here to listen with your own player(launches your MP3 player)

KEAR 232356Z AUTO 14009KT 10SM CLR 32/22 A2994 RMK AO2 SLP119 T03170217 10333 20300 57012

KEAR Airport Info (Airnav.com)

KEAR Flight Activity (Flightaware)

Listeners: 1 out of 1552 total

Columbus Radio: 122.550

KEAR CTAF (Archives)
Kearney, Nebraska, United States

Feed Status: UP
Listen in your browser - HTML5 player(in browser, HTML5)
Click here to listen with your own player(launches your MP3 player)

KEAR 232356Z AUTO 14009KT 10SM CLR 32/22 A2994 RMK AO2 SLP119 T03170217 10333 20300 57012

KEAR Airport Info (Airnav.com)

KEAR Flight Activity (Flightaware)

Listeners: 0 out of 1552 total

Kearney CTAF: 123.000

KEAU Tower (Archives)
Eau Claire, Wisconsin, United States

Feed Status: UP
Listen in your browser - HTML5 player(in browser, HTML5)
Click here to listen with your own player(launches your MP3 player)

KEAU 232356Z 20011KT 10SM CLR 31/21 A2987 RMK AO2 SLP107 T03110211 10339 20311 58016

KEAU Airport Info (Airnav.com)

KEAU Flight Activity (Flightaware)

Listeners: 0 out of 1552 total

Eau Claire Tower: 118.575

KEDC ATIS (Archives)
Austin, Texas, United States

Feed Status: UP
Listen in your browser - HTML5 player(in browser, HTML5)
Click here to listen with your own player(launches your MP3 player)

KEDC 240015Z AUTO 16006KT 7SM CLR 32/22 A3002 RMK AO2

KEDC Airport Info (Airnav.com)

KEDC Flight Activity (Flightaware)

Listeners: 0 out of 1552 total

Executive ATIS/AWOS: 118.825

KEDC Austin App/Dep (Archives)
Austin, Texas, United States

Feed Status: UP
Listen in your browser - HTML5 player(in browser, HTML5)
Click here to listen with your own player(launches your MP3 player)

KEDC 240015Z AUTO 16006KT 7SM CLR 32/22 A3002 RMK AO2

KEDC Airport Info (Airnav.com)

KEDC Flight Activity (Flightaware)

Listeners: 0 out of 1552 total

Auston Approach/Departure: 127.225

KEDC Clearance Delivery (Archives)
Austin, Texas, United States

Feed Status: UP
Listen in your browser - HTML5 player(in browser, HTML5)
Click here to listen with your own player(launches your MP3 player)

KEDC 240015Z AUTO 16006KT 7SM CLR 32/22 A3002 RMK AO2

KEDC Airport Info (Airnav.com)

KEDC Flight Activity (Flightaware)

Listeners: 0 out of 1552 total

Executive Clearance Delivery (when Tower is closed): 126.025

KEDC Clearance/Ground (Archives)
Austin, Texas, United States

Feed Status: UP
Listen in your browser - HTML5 player(in browser, HTML5)
Click here to listen with your own player(launches your MP3 player)

KEDC 240015Z AUTO 16006KT 7SM CLR 32/22 A3002 RMK AO2

KEDC Airport Info (Airnav.com)

KEDC Flight Activity (Flightaware)

Listeners: 0 out of 1552 total

Executive Clearance Delivery (when Tower is closed): 126.025
Executive Ground: 119.450

KEDC Del/Gnd/Twr (Archives)
Austin, Texas, United States

Feed Status: UP
Listen in your browser - HTML5 player(in browser, HTML5)
Click here to listen with your own player(launches your MP3 player)

KEDC 240015Z AUTO 16006KT 7SM CLR 32/22 A3002 RMK AO2

KEDC Airport Info (Airnav.com)

KEDC Flight Activity (Flightaware)

Listeners: 0 out of 1552 total

Executive Ground: 119.450
Executive Tower: 120.300

KEDC Ground (Archives)
Austin, Texas, United States

Feed Status: UP
Listen in your browser - HTML5 player(in browser, HTML5)
Click here to listen with your own player(launches your MP3 player)

KEDC 240015Z AUTO 16006KT 7SM CLR 32/22 A3002 RMK AO2

KEDC Airport Info (Airnav.com)

KEDC Flight Activity (Flightaware)

Listeners: 0 out of 1552 total

Executive Ground: 119.450

KEDC Ground/Tower (Archives)
Austin, Texas, United States

Feed Status: UP
Listen in your browser - HTML5 player(in browser, HTML5)
Click here to listen with your own player(launches your MP3 player)

KEDC 240015Z AUTO 16006KT 7SM CLR 32/22 A3002 RMK AO2

KEDC Airport Info (Airnav.com)

KEDC Flight Activity (Flightaware)

Listeners: 1 out of 1552 total

Executive Ground: 119.450
Executive Tower: 120.300

KEDC Tower (Archives)
Austin, Texas, United States

Feed Status: UP
Listen in your browser - HTML5 player(in browser, HTML5)
Click here to listen with your own player(launches your MP3 player)

KEDC 240015Z AUTO 16006KT 7SM CLR 32/22 A3002 RMK AO2

KEDC Airport Info (Airnav.com)

KEDC Flight Activity (Flightaware)

Listeners: 0 out of 1552 total

Executive Tower: 120.300

KEDU CTAF (Archives)
Davis, California, United States

Feed Status: UP
Listen in your browser - HTML5 player(in browser, HTML5)
Click here to listen with your own player(launches your MP3 player)



KEDU Airport Info (Airnav.com)

KEDU Flight Activity (Flightaware)

Listeners: 0 out of 1552 total

University CTAF: 123.075

KEEN CTAF (Archives)
Keene, New Hampshire, United States

Feed Status: UP
Listen in your browser - HTML5 player(in browser, HTML5)
Click here to listen with your own player(launches your MP3 player)

KMHT 232353Z 27003KT 10SM FEW050 SCT110 SCT250 22/13 A3007 RMK AO2 SLP192 60000 T02170128 10267 20211 51006

KMHT Airport Info (Airnav.com)

KMHT Flight Activity (Flightaware)

Listeners: 0 out of 1552 total

Keene CTAF: 123.000

MA/NH/RI/CT Area CTAF (Archives)
Keene, New Hampshire, United States

Feed Status: UP
Listen in your browser - HTML5 player(in browser, HTML5)
Click here to listen with your own player(launches your MP3 player)

KBOS 232354Z 00000KT 10SM FEW035 FEW065 SCT110 BKN250 24/12 A3008 RMK AO2 LTG DSNT SE SLP186 CB DSNT S T02390117 10250 20222 53007

KBOS Airport Info (Airnav.com)

KBOS Flight Activity (Flightaware)

Listeners: 0 out of 1552 total

Air-to-Air: 122.750
Bridgeport Flight Service: 122.200
CTAF: 122.700
CTAF: 122.800
CTAF: 122.900
CTAF: 123.000
Emergency/Guard: 121.500

MA/NH/RI/CT Area CTAF (Archives)
Keene, New Hampshire, United States

Feed Status: UP
Listen in your browser - HTML5 player(in browser, HTML5)
Click here to listen with your own player(launches your MP3 player)

KBOS 232354Z 00000KT 10SM FEW035 FEW065 SCT110 BKN250 24/12 A3008 RMK AO2 LTG DSNT SE SLP186 CB DSNT S T02390117 10250 20222 53007

KBOS Airport Info (Airnav.com)

KBOS Flight Activity (Flightaware)

Listeners: 0 out of 1552 total

Air-to-Air: 122.750
Bridgeport Flight Service: 122.200
CTAF: 122.700
CTAF: 122.800
CTAF: 122.900
CTAF: 123.000
Emergency/Guard: 121.500

MA/NH/RI/CT Area CTAF (Archives)
Keene, New Hampshire, United States

Feed Status: UP
Listen in your browser - HTML5 player(in browser, HTML5)
Click here to listen with your own player(launches your MP3 player)

KBOS 232354Z 00000KT 10SM FEW035 FEW065 SCT110 BKN250 24/12 A3008 RMK AO2 LTG DSNT SE SLP186 CB DSNT S T02390117 10250 20222 53007

KBOS Airport Info (Airnav.com)

KBOS Flight Activity (Flightaware)

Listeners: 0 out of 1552 total

Air-to-Air: 122.750
Bridgeport Flight Service: 122.200
CTAF: 122.700
CTAF: 122.800
CTAF: 122.900
CTAF: 123.000
Emergency/Guard: 121.500

KEFD Tower (Archives)
Houston, Texas, United States

Feed Status: UP
Listen in your browser - HTML5 player(in browser, HTML5)
Click here to listen with your own player(launches your MP3 player)

KEFD 232350Z 19012KT 10SM CLR 32/23 A3005

KEFD Airport Info (Airnav.com)

KEFD Flight Activity (Flightaware)

Listeners: 0 out of 1552 total

Ellington Tower: 126.050

KFTG/KEIK/KBDU/KLMO/Misc (Archives)
Erie, Colorado, United States

Feed Status: UP
Listen in your browser - HTML5 player(in browser, HTML5)
Click here to listen with your own player(launches your MP3 player)

KDEN 232353Z 34018G32KT 10SM SCT095 SCT120 BKN170 BKN220 28/13 A3016 RMK AO2 PK WND 36034/2256 SLP127 T02830128 10350 20283 51010

KDEN Airport Info (Airnav.com)

KDEN Flight Activity (Flightaware)

Listeners: 0 out of 1552 total

Air-to-Air Fixed Wing: 122.750
Air-to-Air Informal: 123.450
Boulder CTAF: 122.725
Erie CTAF: 123.000
Front Range Tower: 120.200
KBKF Tower: 121.000
Longmont CTAF: 122.975
MULTICOM: 122.900
UNICOM: 122.950

KELM App/Dep (Archives)
Elmira, New York, United States

Feed Status: UP
Listen in your browser - HTML5 player(in browser, HTML5)
Click here to listen with your own player(launches your MP3 player)

KELM 232353Z 02004KT 10SM CLR 22/14 A3012 RMK AO2 SLP197 T02220139 10267 20222 55005

KELM Airport Info (Airnav.com)

KELM Flight Activity (Flightaware)

Listeners: 0 out of 1552 total

Elmira Approach/Departure: 128.425
Elmira Approach/Departure (Backup): 118.150
Elmira Approach/Departure (Ithica): 124.300

KELM ATIS (Archives)
Elmira, New York, United States

Feed Status: UP
Listen in your browser - HTML5 player(in browser, HTML5)
Click here to listen with your own player(launches your MP3 player)

KELM 232353Z 02004KT 10SM CLR 22/14 A3012 RMK AO2 SLP197 T02220139 10267 20222 55005

KELM Airport Info (Airnav.com)

KELM Flight Activity (Flightaware)

Listeners: 0 out of 1552 total

Elmira ATIS: 125.475

KELM Del/Gnd/Twr/App (Archives)
Elmira, New York, United States

Feed Status: UP
Listen in your browser - HTML5 player(in browser, HTML5)
Click here to listen with your own player(launches your MP3 player)

KELM 232353Z 02004KT 10SM CLR 22/14 A3012 RMK AO2 SLP197 T02220139 10267 20222 55005

KELM Airport Info (Airnav.com)

KELM Flight Activity (Flightaware)

Listeners: 0 out of 1552 total

Elmira Approach/Departure: 128.425
Elmira Approach/Departure (Backup): 118.150
Elmira Approach/Departure (Ithica): 124.300
Elmira Clearance Delivery/Ground: 121.900
Elmira Tower: 121.100

KELM Del/Ground (Archives)
Elmira, New York, United States

Feed Status: UP
Listen in your browser - HTML5 player(in browser, HTML5)
Click here to listen with your own player(launches your MP3 player)

KELM 232353Z 02004KT 10SM CLR 22/14 A3012 RMK AO2 SLP197 T02220139 10267 20222 55005

KELM Airport Info (Airnav.com)

KELM Flight Activity (Flightaware)

Listeners: 0 out of 1552 total

Elmira Clearance Delivery/Ground: 121.900

KELM Emergency/Guard (Archives)
Elmira, New York, United States

Feed Status: UP
Listen in your browser - HTML5 player(in browser, HTML5)
Click here to listen with your own player(launches your MP3 player)

KELM 232353Z 02004KT 10SM CLR 22/14 A3012 RMK AO2 SLP197 T02220139 10267 20222 55005

KELM Airport Info (Airnav.com)

KELM Flight Activity (Flightaware)

Listeners: 0 out of 1552 total

Emergency/Guard: 121.500

KELM Tower (Archives)
Elmira, New York, United States

Feed Status: UP
Listen in your browser - HTML5 player(in browser, HTML5)
Click here to listen with your own player(launches your MP3 player)

KELM 232353Z 02004KT 10SM CLR 22/14 A3012 RMK AO2 SLP197 T02220139 10267 20222 55005

KELM Airport Info (Airnav.com)

KELM Flight Activity (Flightaware)

Listeners: 0 out of 1552 total

Elmira Tower: 121.100

KEMT Gnd/Twr (Archives)
El Monte, California, United States

Feed Status: UP
Listen in your browser - HTML5 player(in browser, HTML5)
Click here to listen with your own player(launches your MP3 player)

KEMT 232345Z 20009G15KT 10SM CLR 30/17 A2998

KEMT Airport Info (Airnav.com)

KEMT Flight Activity (Flightaware)

Listeners: 0 out of 1552 total

El Monte Ground: 125.900
El Monte Tower: 121.200
Santa Fe Dam Practice Area: 123.300

KENW Ground/Tower (Archives)
Kenosha, Wisconsin, United States

Feed Status: UP
Listen in your browser - HTML5 player(in browser, HTML5)
Click here to listen with your own player(launches your MP3 player)

KENW 232353Z 22006KT 8SM SCT045 31/21 A3000 RMK AO2 SLP153 T03110211 10333 20294 56014

KENW Airport Info (Airnav.com)

KENW Flight Activity (Flightaware)

Listeners: 0 out of 1552 total

Kenosha Ground: 121.875
Kenosha Tower: 118.600

KEST CTAF (Archives)
Estherville, Iowa, United States

Feed Status: UP
Listen in your browser - HTML5 player(in browser, HTML5)
Click here to listen with your own player(launches your MP3 player)

KEST 232352Z AUTO 20012KT 10SM CLR 31/23 A2991 RMK AO2 SLP119 T03110228 10328 20300 58009

KEST Airport Info (Airnav.com)

KEST Flight Activity (Flightaware)

Listeners: 0 out of 1552 total

Estherville CTAF: 122.800

KMAN/KEUL CTAF (Archives)
Nampa, Idaho, United States

Feed Status: UP
Listen in your browser - HTML5 player(in browser, HTML5)
Click here to listen with your own player(launches your MP3 player)

KMAN 240015Z AUTO VRB05G12KT 10SM 34/M00 A3005 RMK A01

KMAN Airport Info (Airnav.com)

KMAN Flight Activity (Flightaware)

Listeners: 0 out of 1552 total

Nampa/Caldwell CTAF/UNICOM: 122.700

KEVB ATIS
New Smyrna Beach, Florida, United States

Feed Status: DOWN
Offline since: 2021-01-29 15:28:39 UTC

KEVB 232347Z 30007KT 10SM FEW010 BKN055 24/24 A3000

KEVB Airport Info (Airnav.com)

New Smyrna ATIS: 124.625

KEVB Gnd/Twr (Archives)
New Smyrna Beach, Florida, United States

Feed Status: UP
Listen in your browser - HTML5 player(in browser, HTML5)
Click here to listen with your own player(launches your MP3 player)

KEVB 232347Z 30007KT 10SM FEW010 BKN055 24/24 A3000

KEVB Airport Info (Airnav.com)

KEVB Flight Activity (Flightaware)

Listeners: 0 out of 1552 total

New Smyrna Ground: 121.325
New Smyrna Tower: 119.675

KFAR Tower (Archives)
Fargo, North Dakota, United States

Feed Status: UP
Listen in your browser - HTML5 player(in browser, HTML5)
Click here to listen with your own player(launches your MP3 player)

KFAR 232353Z 27005KT 10SM CLR 33/22 A2977 RMK AO2 SLP074 T03330222 10356 20328 56009

KFAR Airport Info (Airnav.com)

KFAR Flight Activity (Flightaware)

Listeners: 4 out of 1552 total

Fargo Tower: 133.800

KFCM Tower (Archives)
Minneapolis, Minnesota, United States

Feed Status: UP
Listen in your browser - HTML5 player(in browser, HTML5)
Click here to listen with your own player(launches your MP3 player)

KFCM 232353Z 21011G18KT 9SM CLR 31/23 A2984 RMK AO2 SLP099 T03110233 10350 20311 58012

KFCM Airport Info (Airnav.com)

KFCM Flight Activity (Flightaware)

Listeners: 3 out of 1552 total

Flying Cloud Tower: 119.150

KFDK ATIS (Archives)
Frederick, Maryland, United States

Feed Status: UP
Listen in your browser - HTML5 player(in browser, HTML5)
Click here to listen with your own player(launches your MP3 player)

KFDK 232347Z 14003KT 10SM FEW150 26/14 A3011

KFDK Airport Info (Airnav.com)

KFDK Flight Activity (Flightaware)

Listeners: 0 out of 1552 total

Frederick ATIS: 124.875

KFDK Del/Gnd/Twr/CTAF #1 (Archives)
Frederick, Maryland, United States

Feed Status: UP
Listen in your browser - HTML5 player(in browser, HTML5)
Click here to listen with your own player(launches your MP3 player)

KFDK 232347Z 14003KT 10SM FEW150 26/14 A3011

KFDK Airport Info (Airnav.com)

KFDK Flight Activity (Flightaware)

Listeners: 1 out of 1552 total

Clearance Delivery (Potomac Approach): 126.900
Frederick Ground: 121.975
Frederick Tower/CTAF: 132.400

KFDK Del/Gnd/Twr/CTAF #2 (Archives)
Frederick, Maryland, United States

Feed Status: UP
Listen in your browser - HTML5 player(in browser, HTML5)
Click here to listen with your own player(launches your MP3 player)

KFDK 232347Z 14003KT 10SM FEW150 26/14 A3011

KFDK Airport Info (Airnav.com)

KFDK Flight Activity (Flightaware)

Listeners: 0 out of 1552 total

Clearance Delivery (Potomac Approach): 126.900
Frederick Ground: 121.975
Frederick Tower/CTAF: 132.400

KFFC CTAF (Archives)
Atlanta, Georgia, United States

Feed Status: UP
Listen in your browser - HTML5 player(in browser, HTML5)
Click here to listen with your own player(launches your MP3 player)

KCCO 240015Z AUTO 00000KT 10SM SCT050 SCT055 29/23 A3009 RMK AO2 T02940226

KCCO Airport Info (Airnav.com)

KCCO Flight Activity (Flightaware)

Listeners: 0 out of 1552 total

Falcon CTAF: 123.050

KFFZ ATIS (Archives)
Mesa, Arizona, United States

Feed Status: UP
Listen in your browser - HTML5 player(in browser, HTML5)
Click here to listen with your own player(launches your MP3 player)

KFFZ Airport Info (Airnav.com)

KFFZ Flight Activity (Flightaware)

Listeners: 0 out of 1552 total

Falcon ATIS: 118.250

KFFZ Ground (Archives)
Mesa, Arizona, United States

Feed Status: UP
Listen in your browser - HTML5 player(in browser, HTML5)
Click here to listen with your own player(launches your MP3 player)

KFFZ Airport Info (Airnav.com)

KFFZ Flight Activity (Flightaware)

Listeners: 0 out of 1552 total

Falcon Ground: 121.300

KFFZ Twr #1 (Archives)
Mesa, Arizona, United States

Feed Status: UP
Listen in your browser - HTML5 player(in browser, HTML5)
Click here to listen with your own player(launches your MP3 player)

KFFZ Airport Info (Airnav.com)

KFFZ Flight Activity (Flightaware)

Listeners: 0 out of 1552 total

Falcon Tower (North, 4L/22R): 119.700
Falcon Tower (South)/CTAF: 124.600

KFFZ Twr #2 (Archives)
Mesa, Arizona, United States

Feed Status: UP
Listen in your browser - HTML5 player(in browser, HTML5)
Click here to listen with your own player(launches your MP3 player)

KFFZ Airport Info (Airnav.com)

KFFZ Flight Activity (Flightaware)

Listeners: 0 out of 1552 total

Falcon Tower (North, 4L/22R): 119.700
Falcon Tower (South)/CTAF: 124.600

KFFZ Twr (North) (Archives)
Mesa, Arizona, United States

Feed Status: UP
Listen in your browser - HTML5 player(in browser, HTML5)
Click here to listen with your own player(launches your MP3 player)

KFFZ Airport Info (Airnav.com)

KFFZ Flight Activity (Flightaware)

Listeners: 0 out of 1552 total

Falcon Tower (North, 4L/22R): 119.700

KFFZ Twr (South)/CTAF (Archives)
Mesa, Arizona, United States

Feed Status: UP
Listen in your browser - HTML5 player(in browser, HTML5)
Click here to listen with your own player(launches your MP3 player)

KFFZ Airport Info (Airnav.com)

KFFZ Flight Activity (Flightaware)

Listeners: 2 out of 1552 total

Falcon Tower (South)/CTAF: 124.600

KFHR CTAF (Archives)
Friday Harbor, Washington, United States

Feed Status: UP
Listen in your browser - HTML5 player(in browser, HTML5)
Click here to listen with your own player(launches your MP3 player)

KFHR 232353Z AUTO 10004KT 10SM CLR 21/12 A3026 RMK AO2 SLP246 T02060122 10239 20189 58010 TSNO

KFHR Airport Info (Airnav.com)

KFHR Flight Activity (Flightaware)

Listeners: 0 out of 1552 total

KFHR/San Juan Islands CTAF: 128.250

KFHU Gnd/Twr/Radar (Archives)
Fort Huachuca/Sierra Vista, Arizona, United States

Feed Status: UP
Listen in your browser - HTML5 player(in browser, HTML5)
Click here to listen with your own player(launches your MP3 player)



KFHU Airport Info (Airnav.com)

KFHU Flight Activity (Flightaware)

Listeners: 0 out of 1552 total

Libby AAF GCA Radar: 127.050
Libby AAF GCA Radar: 254.350
Libby Ground: 121.700
Libby Ground: 268.700
Libby Tower: 124.950
Libby Tower: 284.750

KCON/KDAW/KFIT CTAF (Archives)
Fitchburg, Massachusetts, United States

Feed Status: UP
Listen in your browser - HTML5 player(in browser, HTML5)
Click here to listen with your own player(launches your MP3 player)

KMHT 232353Z 27003KT 10SM FEW050 SCT110 SCT250 22/13 A3007 RMK AO2 SLP192 60000 T02170128 10267 20211 51006

KMHT Airport Info (Airnav.com)

KMHT Flight Activity (Flightaware)

Listeners: 0 out of 1552 total

NH/MA Area CTAF: 122.700

KFIT CTAF (Archives)
Fitchburg, Massachusetts, United States

Feed Status: UP
Listen in your browser - HTML5 player(in browser, HTML5)
Click here to listen with your own player(launches your MP3 player)

KFIT 232352Z AUTO 00000KT 10SM CLR 22/14 A3009 RMK AO2 SLP190 60000 T02170144 10267 20217 53009 TSNO

KFIT Airport Info (Airnav.com)

KFIT Flight Activity (Flightaware)

Listeners: 0 out of 1552 total

Fitchburg CTAF/UNICOM: 122.700

KFIT CTAF/FSS RCO (Archives)
Fitchburg, Massachusetts, United States

Feed Status: UP
Listen in your browser - HTML5 player(in browser, HTML5)
Click here to listen with your own player(launches your MP3 player)

KFIT 232352Z AUTO 00000KT 10SM CLR 22/14 A3009 RMK AO2 SLP190 60000 T02170144 10267 20217 53009 TSNO

KFIT Airport Info (Airnav.com)

KFIT Flight Activity (Flightaware)

Listeners: 0 out of 1552 total

Bridgeport Radio (FSS via RCO): 119.025
Emergency/Guard: 121.500
Fitchburg CTAF/UNICOM: 122.700

MA/NH/RI/CT Area CTAF (Archives)
Fitchburg, Massachusetts, United States

Feed Status: UP
Listen in your browser - HTML5 player(in browser, HTML5)
Click here to listen with your own player(launches your MP3 player)

KBOS 232354Z 00000KT 10SM FEW035 FEW065 SCT110 BKN250 24/12 A3008 RMK AO2 LTG DSNT SE SLP186 CB DSNT S T02390117 10250 20222 53007

KBOS Airport Info (Airnav.com)

KBOS Flight Activity (Flightaware)

Listeners: 0 out of 1552 total

Air-to-Air: 122.750
Bridgeport Flight Service: 122.200
CTAF: 122.700
CTAF: 122.800
CTAF: 122.900
CTAF: 123.000
Emergency/Guard: 121.500

MA/NH/RI/CT Area CTAF (Archives)
Fitchburg, Massachusetts, United States

Feed Status: UP
Listen in your browser - HTML5 player(in browser, HTML5)
Click here to listen with your own player(launches your MP3 player)

KBOS 232354Z 00000KT 10SM FEW035 FEW065 SCT110 BKN250 24/12 A3008 RMK AO2 LTG DSNT SE SLP186 CB DSNT S T02390117 10250 20222 53007

KBOS Airport Info (Airnav.com)

KBOS Flight Activity (Flightaware)

Listeners: 0 out of 1552 total

Air-to-Air: 122.750
Bridgeport Flight Service: 122.200
CTAF: 122.700
CTAF: 122.800
CTAF: 122.900
CTAF: 123.000
Emergency/Guard: 121.500

MA/NH/RI/CT Area CTAF (Archives)
Fitchburg, Massachusetts, United States

Feed Status: UP
Listen in your browser - HTML5 player(in browser, HTML5)
Click here to listen with your own player(launches your MP3 player)

KBOS 232354Z 00000KT 10SM FEW035 FEW065 SCT110 BKN250 24/12 A3008 RMK AO2 LTG DSNT SE SLP186 CB DSNT S T02390117 10250 20222 53007

KBOS Airport Info (Airnav.com)

KBOS Flight Activity (Flightaware)

Listeners: 0 out of 1552 total

Air-to-Air: 122.750
Bridgeport Flight Service: 122.200
CTAF: 122.700
CTAF: 122.800
CTAF: 122.900
CTAF: 123.000
Emergency/Guard: 121.500

KFKA CTAF (Archives)
Preston, Minnesota, United States

Feed Status: UP
Listen in your browser - HTML5 player(in browser, HTML5)
Click here to listen with your own player(launches your MP3 player)

KFKA 240015Z AUTO 20008KT 10SM CLR 29/22 A2995 RMK AO2 T02850221

KFKA Airport Info (Airnav.com)

KFKA Flight Activity (Flightaware)

Listeners: 0 out of 1552 total

Preston CTAF: 122.900

KFLG Ground/Tower (Archives)
Flagstaff, Arizona, United States

Feed Status: UP
Listen in your browser - HTML5 player(in browser, HTML5)
Click here to listen with your own player(launches your MP3 player)

KFLG 240025Z 19006KT 1 3/4SM VCTS RA BR SCT009 BKN020 OVC050 14/14 A3039 RMK AO2 LTG DSNT NE AND W P0005 T01440144

KFLG Airport Info (Airnav.com)

KFLG Flight Activity (Flightaware)

Listeners: 0 out of 1552 total

Flagstaff Ground: 121.900
Flagstaff Tower: 134.550

KFLO App/Dep (Archives)
Florence, South Carolina, United States

Feed Status: UP
Listen in your browser - HTML5 player(in browser, HTML5)
Click here to listen with your own player(launches your MP3 player)

KFLO 232353Z 15011KT 10SM CLR 29/21 A3007 RMK AO2 SLP179 T02940206 10322 20294 53002

KFLO Airport Info (Airnav.com)

KFLO Flight Activity (Flightaware)

Listeners: 1 out of 1552 total

Florence Approach: 135.250
Florence Approach: 118.600

KFLO ATIS (Archives)
Florence, South Carolina, United States

Feed Status: UP
Listen in your browser - HTML5 player(in browser, HTML5)
Click here to listen with your own player(launches your MP3 player)

KFLO 232353Z 15011KT 10SM CLR 29/21 A3007 RMK AO2 SLP179 T02940206 10322 20294 53002

KFLO Airport Info (Airnav.com)

KFLO Flight Activity (Flightaware)

Listeners: 0 out of 1552 total

Florence ATIS: 123.625

KFLO Emergency/Guard (Archives)
Florence, South Carolina, United States

Feed Status: UP
Listen in your browser - HTML5 player(in browser, HTML5)
Click here to listen with your own player(launches your MP3 player)

KFLO 232353Z 15011KT 10SM CLR 29/21 A3007 RMK AO2 SLP179 T02940206 10322 20294 53002

KFLO Airport Info (Airnav.com)

KFLO Flight Activity (Flightaware)

Listeners: 0 out of 1552 total

Emergency/Guard: 121.500

KFLO Gnd/Twr/App (Archives)
Florence, South Carolina, United States

Feed Status: UP
Listen in your browser - HTML5 player(in browser, HTML5)
Click here to listen with your own player(launches your MP3 player)

KFLO 232353Z 15011KT 10SM CLR 29/21 A3007 RMK AO2 SLP179 T02940206 10322 20294 53002

KFLO Airport Info (Airnav.com)

KFLO Flight Activity (Flightaware)

Listeners: 0 out of 1552 total

Florence Approach: 118.600
Florence Approach: 135.250
Florence Ground: 121.900
Florence Tower: 125.100

KFLO Ground (Archives)
Florence, South Carolina, United States

Feed Status: UP
Listen in your browser - HTML5 player(in browser, HTML5)
Click here to listen with your own player(launches your MP3 player)

KFLO 232353Z 15011KT 10SM CLR 29/21 A3007 RMK AO2 SLP179 T02940206 10322 20294 53002

KFLO Airport Info (Airnav.com)

KFLO Flight Activity (Flightaware)

Listeners: 0 out of 1552 total

Florence Ground: 121.900

KFLO Tower (Archives)
Florence, South Carolina, United States

Feed Status: UP
Listen in your browser - HTML5 player(in browser, HTML5)
Click here to listen with your own player(launches your MP3 player)

KFLO 232353Z 15011KT 10SM CLR 29/21 A3007 RMK AO2 SLP179 T02940206 10322 20294 53002

KFLO Airport Info (Airnav.com)

KFLO Flight Activity (Flightaware)

Listeners: 0 out of 1552 total

Florence Tower: 125.100

Boston Approach (Cape North) (Archives)
Falmouth, Massachusetts, United States

Feed Status: UP
Listen in your browser - HTML5 player(in browser, HTML5)
Click here to listen with your own player(launches your MP3 player)

KFMH 232356Z 00000KT 7SM -DZ SCT070 19/18 A3009

KFMH Airport Info (Airnav.com)

KFMH Flight Activity (Flightaware)

Listeners: 0 out of 1552 total

Boston Approach (Cape North Arrival): 118.200

Boston Approach (OTIS Arrival) (Archives)
Falmouth, Massachusetts, United States

Feed Status: UP
Listen in your browser - HTML5 player(in browser, HTML5)
Click here to listen with your own player(launches your MP3 player)

KFMH 232356Z 00000KT 7SM -DZ SCT070 19/18 A3009

KFMH Airport Info (Airnav.com)

KFMH Flight Activity (Flightaware)

Listeners: 0 out of 1552 total

Boston Approach (OTIS Arrival): 126.300

KFMH ATIS (Archives)
Falmouth, Massachusetts, United States

Feed Status: UP
Listen in your browser - HTML5 player(in browser, HTML5)
Click here to listen with your own player(launches your MP3 player)

KFMH 232356Z 00000KT 7SM -DZ SCT070 19/18 A3009

KFMH Airport Info (Airnav.com)

KFMH Flight Activity (Flightaware)

Listeners: 0 out of 1552 total

Coast Guard ATIS: 120.475

KFMH Ground (Archives)
Falmouth, Massachusetts, United States

Feed Status: UP
Listen in your browser - HTML5 player(in browser, HTML5)
Click here to listen with your own player(launches your MP3 player)

KFMH 232356Z 00000KT 7SM -DZ SCT070 19/18 A3009

KFMH Airport Info (Airnav.com)

KFMH Flight Activity (Flightaware)

Listeners: 0 out of 1552 total

Coast Guard Ground: 124.150

KFMH Tower (Archives)
Falmouth, Massachusetts, United States

Feed Status: UP
Listen in your browser - HTML5 player(in browser, HTML5)
Click here to listen with your own player(launches your MP3 player)

KFMH 232356Z 00000KT 7SM -DZ SCT070 19/18 A3009

KFMH Airport Info (Airnav.com)

KFMH Flight Activity (Flightaware)

Listeners: 0 out of 1552 total

Coast Guard Tower: 128.425

KFMY ATIS (Archives)
Fort Myers, Florida, United States

Feed Status: UP
Listen in your browser - HTML5 player(in browser, HTML5)
Click here to listen with your own player(launches your MP3 player)

KFMY 232353Z 31010KT 10SM CLR 31/24 A3003 RMK AO2 LTG DSNT E PRESRR SLP172 T03110239 10350 20311 53009

KFMY Airport Info (Airnav.com)

KFMY Flight Activity (Flightaware)

Listeners: 0 out of 1552 total

Page ATIS: 123.725

KFMY Del/Gnd/Twr (Archives)
Fort Myers, Florida, United States

Feed Status: UP
Listen in your browser - HTML5 player(in browser, HTML5)
Click here to listen with your own player(launches your MP3 player)

KFMY 232353Z 31010KT 10SM CLR 31/24 A3003 RMK AO2 LTG DSNT E PRESRR SLP172 T03110239 10350 20311 53009

KFMY Airport Info (Airnav.com)

KFMY Flight Activity (Flightaware)

Listeners: 0 out of 1552 total

Page Clearance/Ground: 121.700
Page Tower: 119.000

KFNL ASRI (FBO) (Archives)
Fort Collins/Loveland, Colorado, United States

Feed Status: UP
Listen in your browser - HTML5 player(in browser, HTML5)
Click here to listen with your own player(launches your MP3 player)

KFNL 232356Z 01008KT 10SM SCT110 24/16 A3016 RMK AO2 RAB15E37 SLP152 P0000 60000 T02440156 10361 20233 58002

KFNL Airport Info (Airnav.com)

KFNL Flight Activity (Flightaware)

Listeners: 0 out of 1552 total

Fort Collins ASRI (FBO): 130.575

KFNL Ground (Archives)
Fort Collins/Loveland, Colorado, United States

Feed Status: UP
Listen in your browser - HTML5 player(in browser, HTML5)
Click here to listen with your own player(launches your MP3 player)

KFNL 232356Z 01008KT 10SM SCT110 24/16 A3016 RMK AO2 RAB15E37 SLP152 P0000 60000 T02440156 10361 20233 58002

KFNL Airport Info (Airnav.com)

KFNL Flight Activity (Flightaware)

Listeners: 0 out of 1552 total

Fort Collins Ground: 121.650

KFNL Tower/CTAF (Archives)
Fort Collins/Loveland, Colorado, United States

Feed Status: UP
Listen in your browser - HTML5 player(in browser, HTML5)
Click here to listen with your own player(launches your MP3 player)

KFNL 232356Z 01008KT 10SM SCT110 24/16 A3016 RMK AO2 RAB15E37 SLP152 P0000 60000 T02440156 10361 20233 58002

KFNL Airport Info (Airnav.com)

KFNL Flight Activity (Flightaware)

Listeners: 0 out of 1552 total

Fort Collins Tower/CTAF: 118.400

KFPR ATIS #1 (Archives)
Fort Pierce, Florida, United States

Feed Status: UP
Listen in your browser - HTML5 player(in browser, HTML5)
Click here to listen with your own player(launches your MP3 player)

KFPR 240026Z AUTO 05006KT 1 1/4SM +TSRA BR BKN020 OVC034 25/23 A3004 RMK AO2 LTG DSNT N AND E AND W TSB01 P0077 T02500233

KFPR Airport Info (Airnav.com)

KFPR Flight Activity (Flightaware)

Listeners: 0 out of 1552 total

Fort Pierce ATIS: 134.825

KFPR Gnd/Twr #1 (Archives)
Fort Pierce, Florida, United States

Feed Status: UP
Listen in your browser - HTML5 player(in browser, HTML5)
Click here to listen with your own player(launches your MP3 player)

KFPR 240026Z AUTO 05006KT 1 1/4SM +TSRA BR BKN020 OVC034 25/23 A3004 RMK AO2 LTG DSNT N AND E AND W TSB01 P0077 T02500233

KFPR Airport Info (Airnav.com)

KFPR Flight Activity (Flightaware)

Listeners: 0 out of 1552 total

Ft Pierce Ground: 119.550
Ft Pierce Tower: 128.200

KFPR Ground (Archives)
Fort Pierce, Florida, United States

Feed Status: UP
Listen in your browser - HTML5 player(in browser, HTML5)
Click here to listen with your own player(launches your MP3 player)

KFPR 240026Z AUTO 05006KT 1 1/4SM +TSRA BR BKN020 OVC034 25/23 A3004 RMK AO2 LTG DSNT N AND E AND W TSB01 P0077 T02500233

KFPR Airport Info (Airnav.com)

KFPR Flight Activity (Flightaware)

Listeners: 0 out of 1552 total

Ft Pierce Ground: 119.550

KFPR Tower (Archives)
Fort Pierce, Florida, United States

Feed Status: UP
Listen in your browser - HTML5 player(in browser, HTML5)
Click here to listen with your own player(launches your MP3 player)

KFPR 240026Z AUTO 05006KT 1 1/4SM +TSRA BR BKN020 OVC034 25/23 A3004 RMK AO2 LTG DSNT N AND E AND W TSB01 P0077 T02500233

KFPR Airport Info (Airnav.com)

KFPR Flight Activity (Flightaware)

Listeners: 0 out of 1552 total

Ft Pierce Tower: 128.200

Palm Beach App/Dep (Archives)
Fort Pierce, Florida, United States

Feed Status: UP
Listen in your browser - HTML5 player(in browser, HTML5)
Click here to listen with your own player(launches your MP3 player)

KFPR 240026Z AUTO 05006KT 1 1/4SM +TSRA BR BKN020 OVC034 25/23 A3004 RMK AO2 LTG DSNT N AND E AND W TSB01 P0077 T02500233

KFPR Airport Info (Airnav.com)

KFPR Flight Activity (Flightaware)

Listeners: 1 out of 1552 total

Palm Beach Approach/Departure: 123.625

Jones Beach Air Show
Farmingdale, New York, United States

Feed Status: DOWN
Offline since: 2021-06-02 16:20:22 UTC

KFRG 232353Z 36005KT 10SM CLR 26/13 A3008 RMK AO2 LTG DSNT N SLP186 T02610128 10283 20261 55000

KFRG Airport Info (Airnav.com)


KFRG ATIS (Archives)
Farmingdale, New York, United States

Feed Status: UP
Listen in your browser - HTML5 player(in browser, HTML5)
Click here to listen with your own player(launches your MP3 player)

KFRG 232353Z 36005KT 10SM CLR 26/13 A3008 RMK AO2 LTG DSNT N SLP186 T02610128 10283 20261 55000

KFRG Airport Info (Airnav.com)

KFRG Flight Activity (Flightaware)

Listeners: 0 out of 1552 total

Republic ATIS: 126.650

KFRG Delivery/Ground (Archives)
Farmingdale, New York, United States

Feed Status: UP
Listen in your browser - HTML5 player(in browser, HTML5)
Click here to listen with your own player(launches your MP3 player)

KFRG 232353Z 36005KT 10SM CLR 26/13 A3008 RMK AO2 LTG DSNT N SLP186 T02610128 10283 20261 55000

KFRG Airport Info (Airnav.com)

KFRG Flight Activity (Flightaware)

Listeners: 0 out of 1552 total

Emergency/Guard: 121.500
Republic Clearance Delivery: 128.250
Republic Ground: 121.600

KFRG Tower (Archives)
Farmingdale, New York, United States

Feed Status: UP
Listen in your browser - HTML5 player(in browser, HTML5)
Click here to listen with your own player(launches your MP3 player)

KFRG 232353Z 36005KT 10SM CLR 26/13 A3008 RMK AO2 LTG DSNT N SLP186 T02610128 10283 20261 55000

KFRG Airport Info (Airnav.com)

KFRG Flight Activity (Flightaware)

Listeners: 0 out of 1552 total

Republic Tower: 118.800

KFRM CTAF (Air Race Classic)
Fairmont, Minnesota, United States

Feed Status: DOWN
Offline since: 2019-06-25 18:58:03 UTC

Fairmont CTAF: 122.800

KFSD Twr/App/Dep/ZMP (Archives)
Sioux Falls, South Dakota, United States

Feed Status: UP
Listen in your browser - HTML5 player(in browser, HTML5)
Click here to listen with your own player(launches your MP3 player)

KFSD 232356Z 20011KT 10SM SCT110 BKN140 32/21 A2988 RMK AO2 SLP106 T03220211 10344 20317 56009

KFSD Airport Info (Airnav.com)

KFSD Flight Activity (Flightaware)

Listeners: 1 out of 1552 total

Minneapolis Center (Sector 33 PIR Low): 132.050
Sioux Falls Approach/Departure: 125.800
Sioux Falls Tower: 118.300

KFTW Del/Gnd/Twr (Archives)
Fort Worth, Texas, United States

Feed Status: UP
Listen in your browser - HTML5 player(in browser, HTML5)
Click here to listen with your own player(launches your MP3 player)

KFTW 232353Z 16014G19KT 10SM FEW060 33/20 A2998 RMK AO2 SLP141 T03280200 10356 20311 56017

KFTW Airport Info (Airnav.com)

KFTW Flight Activity (Flightaware)

Listeners: 2 out of 1552 total

Meacham Clearance Delivery: 124.650
Meacham Ground: 121.900
Meacham Tower: 118.300

KFTW Del/Ground (Archives)
Fort Worth, Texas, United States

Feed Status: UP
Listen in your browser - HTML5 player(in browser, HTML5)
Click here to listen with your own player(launches your MP3 player)

KFTW 232353Z 16014G19KT 10SM FEW060 33/20 A2998 RMK AO2 SLP141 T03280200 10356 20311 56017

KFTW Airport Info (Airnav.com)

KFTW Flight Activity (Flightaware)

Listeners: 0 out of 1552 total

Meacham Clearance Delivery: 124.650
Meacham Ground: 121.900

KFTW Tower (Archives)
Fort Worth, Texas, United States

Feed Status: UP
Listen in your browser - HTML5 player(in browser, HTML5)
Click here to listen with your own player(launches your MP3 player)

KFTW 232353Z 16014G19KT 10SM FEW060 33/20 A2998 RMK AO2 SLP141 T03280200 10356 20311 56017

KFTW Airport Info (Airnav.com)

KFTW Flight Activity (Flightaware)

Listeners: 1 out of 1552 total

Meacham Tower: 118.300

Regional App (Meacham North) (Archives)
Fort Worth, Texas, United States

Feed Status: UP
Listen in your browser - HTML5 player(in browser, HTML5)
Click here to listen with your own player(launches your MP3 player)

KFTW 232353Z 16014G19KT 10SM FEW060 33/20 A2998 RMK AO2 SLP141 T03280200 10356 20311 56017

KFTW Airport Info (Airnav.com)

KFTW Flight Activity (Flightaware)

Listeners: 0 out of 1552 total

Regional Approach (Meacham North): 118.100

Regional App (Meacham South) (Archives)
Fort Worth, Texas, United States

Feed Status: UP
Listen in your browser - HTML5 player(in browser, HTML5)
Click here to listen with your own player(launches your MP3 player)

KDFW 232353Z 17014G21KT 10SM SCT060 34/19 A2998 RMK AO2 SLP141 T03390194 10356 20322 56015

KDFW Airport Info (Airnav.com)

KDFW Flight Activity (Flightaware)

Listeners: 0 out of 1552 total

Regional Approach (Meacham South): 135.975

Regional Approach (Meacham North/South) (Archives)
Fort Worth, Texas, United States

Feed Status: UP
Listen in your browser - HTML5 player(in browser, HTML5)
Click here to listen with your own player(launches your MP3 player)

KFTW 232353Z 16014G19KT 10SM FEW060 33/20 A2998 RMK AO2 SLP141 T03280200 10356 20311 56017

KFTW Airport Info (Airnav.com)

KFTW Flight Activity (Flightaware)

Listeners: 0 out of 1552 total

Regional Approach (Meacham North): 118.100
Regional Approach (Meacham South): 135.975

Atlanta Approach (N. Sat) (Archives)
Atlanta, Georgia, United States

Feed Status: UP
Listen in your browser - HTML5 player(in browser, HTML5)
Click here to listen with your own player(launches your MP3 player)

KRYY 232350Z 00000KT 10SM CLR 28/22 A3009 RMK AO2 LTG DSNT E SLP178 6//// T02780222 10322 20278 53001 PNO $

KRYY Airport Info (Airnav.com)

KRYY Flight Activity (Flightaware)

Listeners: 0 out of 1552 total

Atlanta Approach (North Satellite): 121.000

KFTY Ground/Tower (Archives)
Atlanta, Georgia, United States

Feed Status: UP
Listen in your browser - HTML5 player(in browser, HTML5)
Click here to listen with your own player(launches your MP3 player)

KFTY 232353Z 00000KT 10SM BKN050 BKN060 27/22 A3008 RMK AO2 LTG DSNT NE SLP177 T02720222 10328 20261 51006

KFTY Airport Info (Airnav.com)

KFTY Flight Activity (Flightaware)

Listeners: 0 out of 1552 total

County Ground: 121.700
County Tower: 118.450

KFUL Ground/Tower (Archives)
Fullerton, California, United States

Feed Status: UP
Listen in your browser - HTML5 player(in browser, HTML5)
Click here to listen with your own player(launches your MP3 player)

KFUL 232353Z 18007KT 10SM CLR 27/18 A2998 RMK AO2 SLP152 T02720178 10294 20256 57010

KFUL Airport Info (Airnav.com)

KFUL Flight Activity (Flightaware)

Listeners: 0 out of 1552 total

Fullerton Ground: 121.800
Fullerton Tower: 119.100

KFWS Ground/Tower (Archives)
Fort Worth, Texas, United States

Feed Status: UP
Listen in your browser - HTML5 player(in browser, HTML5)
Click here to listen with your own player(launches your MP3 player)

KFWS 232347Z 15006KT 10SM CLR 33/20 A3002

KFWS Airport Info (Airnav.com)

KFWS Flight Activity (Flightaware)

Listeners: 1 out of 1552 total

Spinks Ground: 119.475
Spinks Tower/CTAF: 124.625

KFXE ATIS (Archives)
Fort Lauderdale, Florida, United States

Feed Status: UP
Listen in your browser - HTML5 player(in browser, HTML5)
Click here to listen with your own player(launches your MP3 player)

KFXE 232353Z 00000KT 10SM CLR 26/24 A3002 RMK AO2 SLP168 60071 T02610244 10339 20239 58001

KFXE Airport Info (Airnav.com)

KFXE Flight Activity (Flightaware)

Listeners: 0 out of 1552 total

Executive ATIS: 119.850

KFXE Ground (Archives)
Fort Lauderdale, Florida, United States

Feed Status: UP
Listen in your browser - HTML5 player(in browser, HTML5)
Click here to listen with your own player(launches your MP3 player)

KFXE 232353Z 00000KT 10SM CLR 26/24 A3002 RMK AO2 SLP168 60071 T02610244 10339 20239 58001

KFXE Airport Info (Airnav.com)

KFXE Flight Activity (Flightaware)

Listeners: 0 out of 1552 total

Executive Ground: 121.750

KFXE Practice Area (Archives)
Fort Lauderdale, Florida, United States

Feed Status: UP
Listen in your browser - HTML5 player(in browser, HTML5)
Click here to listen with your own player(launches your MP3 player)

KFXE 232353Z 00000KT 10SM CLR 26/24 A3002 RMK AO2 SLP168 60071 T02610244 10339 20239 58001

KFXE Airport Info (Airnav.com)

KFXE Flight Activity (Flightaware)

Listeners: 0 out of 1552 total

Coral Springs/Everglades Practice Area: 123.450

KFXE Tower #1 (Archives)
Fort Lauderdale, Florida, United States

Feed Status: UP
Listen in your browser - HTML5 player(in browser, HTML5)
Click here to listen with your own player(launches your MP3 player)

KFXE 232353Z 00000KT 10SM CLR 26/24 A3002 RMK AO2 SLP168 60071 T02610244 10339 20239 58001

KFXE Airport Info (Airnav.com)

KFXE Flight Activity (Flightaware)

Listeners: 0 out of 1552 total

Ft. Lauderdale Exec Tower: 120.900

KFYV Gnd/Twr/App/ZME (Archives)
Fayetteville, Arkansas, United States

Feed Status: UP
Listen in your browser - HTML5 player(in browser, HTML5)
Click here to listen with your own player(launches your MP3 player)

KFYV 232353Z 21005KT 10SM CLR 31/22 A3007 RMK AO2 SLP166 T03060217 10322 20294 58012

KFYV Airport Info (Airnav.com)

KFYV Flight Activity (Flightaware)

Listeners: 1 out of 1552 total

Drake Ground: 121.800
Drake Tower: 128.000
Jonesboro Flight Service Station (FSS): 122.300
Memphis Center (High): 132.550
Memphis Center (High): 353.800
Razorback Approach: 121.000

KGAI CTAF/UNICOM (Archives)
Gaithersburg, Maryland, United States

Feed Status: UP
Listen in your browser - HTML5 player(in browser, HTML5)
Click here to listen with your own player(launches your MP3 player)

KGAI 232356Z AUTO 00000KT 10SM CLR 24/14 A3014 RMK AO2 SLP216 T02390139 10283 20239 55005

KGAI Airport Info (Airnav.com)

KGAI Flight Activity (Flightaware)

Listeners: 0 out of 1552 total

Gaithersburg CTAF: 123.075

KGBR/20N CTAF
Great Barrington, Massachusetts, United States

Feed Status: DOWN
Offline since: 2020-11-21 13:08:39 UTC

KGBR Airport Info (Airnav.com)

Great Barrington CTAF: 122.800

KGDM/KORE CTAF (Archives)
Gardner, Massachusetts, United States

Feed Status: UP
Listen in your browser - HTML5 player(in browser, HTML5)
Click here to listen with your own player(launches your MP3 player)

KGDM Airport Info (Airnav.com)

KGDM Flight Activity (Flightaware)

Listeners: 0 out of 1552 total

Gardner CTAF: 122.800

KGED ASOS (Archives)
Georgetown, Delaware, United States

Feed Status: UP
Listen in your browser - HTML5 player(in browser, HTML5)
Click here to listen with your own player(launches your MP3 player)

KGED 232354Z AUTO 00000KT 10SM CLR 26/14 A3011 RMK AO2 SLP194 T02610139 10300 20261 55003

KGED Airport Info (Airnav.com)

KGED Flight Activity (Flightaware)

Listeners: 0 out of 1552 total

Georgetown ASOS: 118.375

KGED Clearance Delivery (Archives)
Georgetown, Delaware, United States

Feed Status: UP
Listen in your browser - HTML5 player(in browser, HTML5)
Click here to listen with your own player(launches your MP3 player)

KGED 232354Z AUTO 00000KT 10SM CLR 26/14 A3011 RMK AO2 SLP194 T02610139 10300 20261 55003

KGED Airport Info (Airnav.com)

KGED Flight Activity (Flightaware)

Listeners: 0 out of 1552 total

Georgetown Clearance Delivery (Dover Approach): 125.550

KGED CTAF (Archives)
Georgetown, Delaware, United States

Feed Status: UP
Listen in your browser - HTML5 player(in browser, HTML5)
Click here to listen with your own player(launches your MP3 player)

KGED 232354Z AUTO 00000KT 10SM CLR 26/14 A3011 RMK AO2 SLP194 T02610139 10300 20261 55003

KGED Airport Info (Airnav.com)

KGED Flight Activity (Flightaware)

Listeners: 0 out of 1552 total

Georgetown CTAF: 123.000

KGED Emergency/Guard (Archives)
Georgetown, Delaware, United States

Feed Status: UP
Listen in your browser - HTML5 player(in browser, HTML5)
Click here to listen with your own player(launches your MP3 player)

KGED 232354Z AUTO 00000KT 10SM CLR 26/14 A3011 RMK AO2 SLP194 T02610139 10300 20261 55003

KGED Airport Info (Airnav.com)

KGED Flight Activity (Flightaware)

Listeners: 0 out of 1552 total

Emergency/Guard: 121.500

KGEU App/Dep (Archives)
Glendale, Arizona, United States

Feed Status: UP
Listen in your browser - HTML5 player(in browser, HTML5)
Click here to listen with your own player(launches your MP3 player)

KGEU 232355Z 35005KT 10SM SCT014 SCT075 BKN100 OVC140 23/23 A3008 RA

KGEU Airport Info (Airnav.com)

KGEU Flight Activity (Flightaware)

Listeners: 1 out of 1552 total

Luke Approach/Departure: 118.150

KGEU ATIS (Archives)
Glendale, Arizona, United States

Feed Status: UP
Listen in your browser - HTML5 player(in browser, HTML5)
Click here to listen with your own player(launches your MP3 player)

KGEU 232355Z 35005KT 10SM SCT014 SCT075 BKN100 OVC140 23/23 A3008 RA

KGEU Airport Info (Airnav.com)

KGEU Flight Activity (Flightaware)

Listeners: 0 out of 1552 total

Glendale ATIS: 119.425

KGEU Ground (Archives)
Glendale, Arizona, United States

Feed Status: UP
Listen in your browser - HTML5 player(in browser, HTML5)
Click here to listen with your own player(launches your MP3 player)

KGEU 232355Z 35005KT 10SM SCT014 SCT075 BKN100 OVC140 23/23 A3008 RA

KGEU Airport Info (Airnav.com)

KGEU Flight Activity (Flightaware)

Listeners: 0 out of 1552 total

Glendale Ground: 118.000

KGEU Tower (Archives)
Glendale, Arizona, United States

Feed Status: UP
Listen in your browser - HTML5 player(in browser, HTML5)
Click here to listen with your own player(launches your MP3 player)

KGEU 232355Z 35005KT 10SM SCT014 SCT075 BKN100 OVC140 23/23 A3008 RA

KGEU Airport Info (Airnav.com)

KGEU Flight Activity (Flightaware)

Listeners: 0 out of 1552 total

Glendale Tower: 121.000

KGFK Approach (Archives)
Grand Forks, North Dakota, United States

Feed Status: UP
Listen in your browser - HTML5 player(in browser, HTML5)
Click here to listen with your own player(launches your MP3 player)

KGFK 232353Z 33005KT 10SM BKN190 31/19 A2976 RMK AO2 SLP071 T03060194 10356 20306 55006

KGFK Airport Info (Airnav.com)

KGFK Flight Activity (Flightaware)

Listeners: 0 out of 1552 total

Grand Forks Approach: 118.100
Grand Forks Approach (VFR): 132.300

KGFK ATIS (Archives)
Grand Forks, North Dakota, United States

Feed Status: UP
Listen in your browser - HTML5 player(in browser, HTML5)
Click here to listen with your own player(launches your MP3 player)

KGFK 232353Z 33005KT 10SM BKN190 31/19 A2976 RMK AO2 SLP071 T03060194 10356 20306 55006

KGFK Airport Info (Airnav.com)

KGFK Flight Activity (Flightaware)

Listeners: 1 out of 1552 total

Grand Forks ATIS: 119.400

KGFK Ground (Archives)
Grand Forks, North Dakota, United States

Feed Status: UP
Listen in your browser - HTML5 player(in browser, HTML5)
Click here to listen with your own player(launches your MP3 player)

KGFK 232353Z 33005KT 10SM BKN190 31/19 A2976 RMK AO2 SLP071 T03060194 10356 20306 55006

KGFK Airport Info (Airnav.com)

KGFK Flight Activity (Flightaware)

Listeners: 0 out of 1552 total

Grand Forks Ground: 124.575

KGFK Tower 1 (118.4/IFR/VFR) (Archives)
Grand Forks, North Dakota, United States

Feed Status: UP
Listen in your browser - HTML5 player(in browser, HTML5)
Click here to listen with your own player(launches your MP3 player)

KGFK 232353Z 33005KT 10SM BKN190 31/19 A2976 RMK AO2 SLP071 T03060194 10356 20306 55006

KGFK Airport Info (Airnav.com)

KGFK Flight Activity (Flightaware)

Listeners: 0 out of 1552 total

Grand Forks Tower (IFR/VFR): 118.400

KGFK Tower 2 (120.55/VFR) (Archives)
Grand Forks, North Dakota, United States

Feed Status: UP
Listen in your browser - HTML5 player(in browser, HTML5)
Click here to listen with your own player(launches your MP3 player)

KGFK 232353Z 33005KT 10SM BKN190 31/19 A2976 RMK AO2 SLP071 T03060194 10356 20306 55006

KGFK Airport Info (Airnav.com)

KGFK Flight Activity (Flightaware)

Listeners: 0 out of 1552 total

Grand Forks Tower (VFR): 120.550

KGFL CTAF/App (Archives)
Glens Falls, New York, United States

Feed Status: UP
Listen in your browser - HTML5 player(in browser, HTML5)
Click here to listen with your own player(launches your MP3 player)

KGFL 232353Z AUTO 00000KT 10SM CLR 19/18 A3010 RMK AO2 SLP191 60005 T01940178 10239 20183 53002

KGFL Airport Info (Airnav.com)

KGFL Flight Activity (Flightaware)

Listeners: 0 out of 1552 total

Albany Approach: 118.050
Albany Approach: 132.825
Glens Falls Unicom: 123.000
Unicom (Granville, Schroon Lake, Argyle, Heber Air: 122.900
Unicom (Saratoga Co., Rutland, Ticonderoga, Round : 122.800

KGGG App/Dep
Longview, Texas, United States

Feed Status: DOWN
Offline since: 2021-04-17 05:28:05 UTC

KGGG 232353Z 09007KT 10SM CLR 29/24 A3005 RMK AO2 LTG DSNT NE AND E SLP167 60004 T02890244 10333 20272 58009

KGGG Airport Info (Airnav.com)

Longview Approach (East): 127.325
Longview Approach (West): 128.750

KGGG Gnd/Twr
Longview, Texas, United States

Feed Status: DOWN
Offline since: 2021-05-17 21:56:05 UTC

KGGG 232353Z 09007KT 10SM CLR 29/24 A3005 RMK AO2 LTG DSNT NE AND E SLP167 60004 T02890244 10333 20272 58009

KGGG Airport Info (Airnav.com)

EastTex Ground: 121.600
EastTex Tower: 119.200

KGIF ASOS (Archives)
Winter Haven, Florida, United States

Feed Status: UP
Listen in your browser - HTML5 player(in browser, HTML5)
Click here to listen with your own player(launches your MP3 player)

KGIF 232353Z AUTO 11008KT 10SM FEW120 26/23 A3007 RMK AO2 LTG DSNT ALQDS RAB00E17 SLP179 P0000 60005 T02610228 10350 20250 53017

KGIF Airport Info (Airnav.com)

KGIF Flight Activity (Flightaware)

Listeners: 0 out of 1552 total

Winter Haven ASOS: 133.675

KGIF CTAF/GCO/Guard (Archives)
Winter Haven, Florida, United States

Feed Status: UP
Listen in your browser - HTML5 player(in browser, HTML5)
Click here to listen with your own player(launches your MP3 player)

KGIF 232353Z AUTO 11008KT 10SM FEW120 26/23 A3007 RMK AO2 LTG DSNT ALQDS RAB00E17 SLP179 P0000 60005 T02610228 10350 20250 53017

KGIF Airport Info (Airnav.com)

KGIF Flight Activity (Flightaware)

Listeners: 0 out of 1552 total

Emergency/Guard: 121.500
Winter Haven CTAF: 123.050
Winter Haven GCO (Clearance Delivery): 121.725

KGIF GCO/Guard (Archives)
Winter Haven, Florida, United States

Feed Status: UP
Listen in your browser - HTML5 player(in browser, HTML5)
Click here to listen with your own player(launches your MP3 player)

KGIF 232353Z AUTO 11008KT 10SM FEW120 26/23 A3007 RMK AO2 LTG DSNT ALQDS RAB00E17 SLP179 P0000 60005 T02610228 10350 20250 53017

KGIF Airport Info (Airnav.com)

KGIF Flight Activity (Flightaware)

Listeners: 0 out of 1552 total

Emergency/Guard: 121.500
Winter Haven GCO (Clearance Delivery): 121.725

KGIF/F57 CTAF (Archives)
Winter Haven, Florida, United States

Feed Status: UP
Listen in your browser - HTML5 player(in browser, HTML5)
Click here to listen with your own player(launches your MP3 player)

KGIF 232353Z AUTO 11008KT 10SM FEW120 26/23 A3007 RMK AO2 LTG DSNT ALQDS RAB00E17 SLP179 P0000 60005 T02610228 10350 20250 53017

KGIF Airport Info (Airnav.com)

KGIF Flight Activity (Flightaware)

Listeners: 0 out of 1552 total

Winter Haven CTAF: 123.050

KGJT Gnd/Twr/App/ZDV (Archives)
Grand Junction, Colorado, United States

Feed Status: UP
Listen in your browser - HTML5 player(in browser, HTML5)
Click here to listen with your own player(launches your MP3 player)

KGJT 232353Z 30013G23KT 10SM CLR 34/10 A3001 RMK AO2 PK WND 30033/2318 LTG DSNT E AND SE SLP080 T03440100 10361 20306 56018

KGJT Airport Info (Airnav.com)

KGJT Flight Activity (Flightaware)

Listeners: 1 out of 1552 total

Denver Approach: 119.700
Denver Center (Sector 11 Grand Junction Low): 134.500
Grand Junction Ground: 121.700
Grand Junction Tower: 118.100

KGKT CTAF (Archives)
Sevierville, Tennessee, United States

Feed Status: UP
Listen in your browser - HTML5 player(in browser, HTML5)
Click here to listen with your own player(launches your MP3 player)

KGKT 240015Z AUTO 00000KT 10SM CLR 28/19 A3006 RMK A01

KGKT Airport Info (Airnav.com)

KGKT Flight Activity (Flightaware)

Listeners: 0 out of 1552 total

Gatlinburg CTAF: 123.000

KGKY Ground/Tower
Arlington, Texas, United States

Feed Status: DOWN
Offline since: 2021-07-11 22:04:38 UTC

KGKY 232353Z 18006KT 10SM CLR 36/20 A2999 RMK AO2 SLP144 T03560200 10361 20328 56015

KGKY Airport Info (Airnav.com)

Arlington Ground: 121.875
Arlington Tower: 128.625

KGMU ATIS (Archives)
Greenville, South Carolina, United States

Feed Status: UP
Listen in your browser - HTML5 player(in browser, HTML5)
Click here to listen with your own player(launches your MP3 player)

KGMU 232353Z 00000KT 6SM -RA BKN041 BKN065 26/23 A3011 RMK AO2 RAB32 TSB2258E35 SLP185 P0000 60000 T02610228 10328 20256 53003

KGMU Airport Info (Airnav.com)

KGMU Flight Activity (Flightaware)

Listeners: 0 out of 1552 total

Greenville ATIS: 127.075

KGMU Ground (Archives)
Greenville, South Carolina, United States

Feed Status: UP
Listen in your browser - HTML5 player(in browser, HTML5)
Click here to listen with your own player(launches your MP3 player)

KGMU 232353Z 00000KT 6SM -RA BKN041 BKN065 26/23 A3011 RMK AO2 RAB32 TSB2258E35 SLP185 P0000 60000 T02610228 10328 20256 53003

KGMU Airport Info (Airnav.com)

KGMU Flight Activity (Flightaware)

Listeners: 0 out of 1552 total

Greenville Ground: 121.250

KGMU Ground/Tower (Archives)
Greenville, South Carolina, United States

Feed Status: UP
Listen in your browser - HTML5 player(in browser, HTML5)
Click here to listen with your own player(launches your MP3 player)

KGMU 232353Z 00000KT 6SM -RA BKN041 BKN065 26/23 A3011 RMK AO2 RAB32 TSB2258E35 SLP185 P0000 60000 T02610228 10328 20256 53003

KGMU Airport Info (Airnav.com)

KGMU Flight Activity (Flightaware)

Listeners: 0 out of 1552 total

Greenville Ground: 121.250
Greenville Tower: 119.900

KGMU Tower (Archives)
Greenville, South Carolina, United States

Feed Status: UP
Listen in your browser - HTML5 player(in browser, HTML5)
Click here to listen with your own player(launches your MP3 player)

KGMU 232353Z 00000KT 6SM -RA BKN041 BKN065 26/23 A3011 RMK AO2 RAB32 TSB2258E35 SLP185 P0000 60000 T02610228 10328 20256 53003

KGMU Airport Info (Airnav.com)

KGMU Flight Activity (Flightaware)

Listeners: 0 out of 1552 total

Greenville Tower: 119.900

KGNV Ground/Tower (Archives)
Gainesville, Florida, United States

Feed Status: UP
Listen in your browser - HTML5 player(in browser, HTML5)
Click here to listen with your own player(launches your MP3 player)

KGNV 232353Z 00000KT 10SM CLR 23/22 A3005 RMK AO2 LTG DSNT N RAE04 SLP173 P0000 60059 T02330217 10339 20228 58022

KGNV Airport Info (Airnav.com)

KGNV Flight Activity (Flightaware)

Listeners: 0 out of 1552 total

Gainesville Ground: 121.700
Gainesville Tower: 119.550

KGPM Tower (Archives)
Grand Prairie, Texas, United States

Feed Status: UP
Listen in your browser - HTML5 player(in browser, HTML5)
Click here to listen with your own player(launches your MP3 player)

KGPM 232350Z 15010G16KT 10SM SCT060 33/18 A3001

KGPM Airport Info (Airnav.com)

KGPM Flight Activity (Flightaware)

Listeners: 0 out of 1552 total

Grand Prairie Tower: 128.550

KGQQ CTAF/Del/App (Archives)
Galion, Ohio, United States

Feed Status: UP
Listen in your browser - HTML5 player(in browser, HTML5)
Click here to listen with your own player(launches your MP3 player)

KGQQ Airport Info (Airnav.com)

KGQQ Flight Activity (Flightaware)

Listeners: 0 out of 1552 total

Galion Clearance Delivery: 126.800
Galion CTAF/UNICOM: 122.800
Mansfield Approach: 124.200

KGRK Twr/App
Fort Hood (Killeen), Texas, United States

Feed Status: DOWN
Offline since: 2019-11-24 15:09:39 UTC

KGRK 232356Z AUTO 15013KT 10SM CLR 32/19 A3001 RMK AO2 SLP151 T03220194 10335 20313 57017

KGRK Airport Info (Airnav.com)

Gray Tower: 120.750

KGTU Gnd/Twr
Georgetown, Texas, United States

Feed Status: DOWN
Offline since: 2021-07-19 15:25:22 UTC

KGTU 232356Z 17011G17KT 10SM FEW055 33/21 A3004 RMK AO2 SLP166 T03280206 10344 20322 56014

KGTU Airport Info (Airnav.com)

Georgetown Ground: 119.125
Georgetown Tower: 120.225

KGVL AWOS (Archives)
Gainesville, Georgia, United States

Feed Status: UP
Listen in your browser - HTML5 player(in browser, HTML5)
Click here to listen with your own player(launches your MP3 player)

KGVL 232353Z AUTO 10004KT 10SM CLR 29/22 A3012 RMK AO2 LTG DSNT SW SLP182 T02890217 10322 20289 53001

KGVL Airport Info (Airnav.com)

KGVL Flight Activity (Flightaware)

Listeners: 0 out of 1552 total

Gainesville AWOS: 126.475

KGVL CTAF/Clearance (Archives)
Gainesville, Georgia, United States

Feed Status: UP
Listen in your browser - HTML5 player(in browser, HTML5)
Click here to listen with your own player(launches your MP3 player)

KGVL 232353Z AUTO 10004KT 10SM CLR 29/22 A3012 RMK AO2 LTG DSNT SW SLP182 T02890217 10322 20289 53001

KGVL Airport Info (Airnav.com)

KGVL Flight Activity (Flightaware)

Listeners: 1 out of 1552 total

Gainesville Clearance (Atlanta Center or TRACON): 134.800
Gainesville CTAF: 123.075

KGWB AWOS (Archives)
Auburn, Indiana, United States

Feed Status: UP
Listen in your browser - HTML5 player(in browser, HTML5)
Click here to listen with your own player(launches your MP3 player)

KGWB 240015Z AUTO 00000KT 10SM CLR 25/22 A3008 RMK AO2

KGWB Airport Info (Airnav.com)

KGWB Flight Activity (Flightaware)

Listeners: 0 out of 1552 total

De Kalb AWOS: 124.150

KGWB Clearance Delivery (Archives)
Auburn, Indiana, United States

Feed Status: UP
Listen in your browser - HTML5 player(in browser, HTML5)
Click here to listen with your own player(launches your MP3 player)

KGWB 240015Z AUTO 00000KT 10SM CLR 25/22 A3008 RMK AO2

KGWB Airport Info (Airnav.com)

KGWB Flight Activity (Flightaware)

Listeners: 0 out of 1552 total

De Kalb Clearance Delivery (Indy Approach): 126.600

KGWB CTAF (Archives)
Auburn, Indiana, United States

Feed Status: UP
Listen in your browser - HTML5 player(in browser, HTML5)
Click here to listen with your own player(launches your MP3 player)

KGWB 240015Z AUTO 00000KT 10SM CLR 25/22 A3008 RMK AO2

KGWB Airport Info (Airnav.com)

KGWB Flight Activity (Flightaware)

Listeners: 0 out of 1552 total

De Kalb CTAF: 123.000

KGWS CTAF/Guard (Archives)
Glenwood Springs, Colorado, United States

Feed Status: UP
Listen in your browser - HTML5 player(in browser, HTML5)
Click here to listen with your own player(launches your MP3 player)

KGWS Airport Info (Airnav.com)

KGWS Flight Activity (Flightaware)

Listeners: 0 out of 1552 total

Emergency/Guard: 121.500
Glenwood Springs CTAF: 123.000

KGXY RCO (Denver Radio) (Archives)
Greeley, Colorado, United States

Feed Status: UP
Listen in your browser - HTML5 player(in browser, HTML5)
Click here to listen with your own player(launches your MP3 player)

KGXY 232356Z 34014KT 10SM CLR 28/13 A3013 RMK AO2 SLP157 T02780133 10350 20278 50002

KGXY Airport Info (Airnav.com)

KGXY Flight Activity (Flightaware)

Listeners: 0 out of 1552 total

Greeley RCO (Denver Radio): 122.650

KGYH Tower (Archives)
Greenville, South Carolina, United States

Feed Status: UP
Listen in your browser - HTML5 player(in browser, HTML5)
Click here to listen with your own player(launches your MP3 player)

KGMU 232353Z 00000KT 6SM -RA BKN041 BKN065 26/23 A3011 RMK AO2 RAB32 TSB2258E35 SLP185 P0000 60000 T02610228 10328 20256 53003

KGMU Airport Info (Airnav.com)

KGMU Flight Activity (Flightaware)

Listeners: 0 out of 1552 total

Donaldson Tower: 133.325

KGYI ATIS (Archives)
Sherman/Denison, Texas, United States

Feed Status: UP
Listen in your browser - HTML5 player(in browser, HTML5)
Click here to listen with your own player(launches your MP3 player)

KGYI 240015Z AUTO 15009KT 10SM CLR 32/22 A3002 RMK AO2 T03200221

KGYI Airport Info (Airnav.com)

KGYI Flight Activity (Flightaware)

Listeners: 0 out of 1552 total

North Texas ATIS: 118.775

KGYI Ground/Tower (Archives)
Sherman/Denison, Texas, United States

Feed Status: UP
Listen in your browser - HTML5 player(in browser, HTML5)
Click here to listen with your own player(launches your MP3 player)

KGYI 240015Z AUTO 15009KT 10SM CLR 32/22 A3002 RMK AO2 T03200221

KGYI Airport Info (Airnav.com)

KGYI Flight Activity (Flightaware)

Listeners: 1 out of 1552 total

North Texas Ground: 124.125
North Texas Tower: 120.575

KGYR Ground (Archives)
Goodyear, Arizona, United States

Feed Status: UP
Listen in your browser - HTML5 player(in browser, HTML5)
Click here to listen with your own player(launches your MP3 player)

KGYR 232347Z 03006KT 10SM DZ FEW022 SCT030 BKN060 24/22 A3007

KGYR Airport Info (Airnav.com)

KGYR Flight Activity (Flightaware)

Listeners: 0 out of 1552 total

Goodyear Ground: 121.700

KGYR Ground/Tower (Archives)
Goodyear, Arizona, United States

Feed Status: UP
Listen in your browser - HTML5 player(in browser, HTML5)
Click here to listen with your own player(launches your MP3 player)

KGYR 232347Z 03006KT 10SM DZ FEW022 SCT030 BKN060 24/22 A3007

KGYR Airport Info (Airnav.com)

KGYR Flight Activity (Flightaware)

Listeners: 0 out of 1552 total

Goodyear Ground: 121.700
Goodyear Tower: 120.100

KGYR Tower (Archives)
Goodyear, Arizona, United States

Feed Status: UP
Listen in your browser - HTML5 player(in browser, HTML5)
Click here to listen with your own player(launches your MP3 player)

KGYR 232347Z 03006KT 10SM DZ FEW022 SCT030 BKN060 24/22 A3007

KGYR Airport Info (Airnav.com)

KGYR Flight Activity (Flightaware)

Listeners: 0 out of 1552 total

Goodyear Tower: 120.100

KHBG CTAF (Air Race Classic)
Hattiesburg, Mississippi, United States

Feed Status: DOWN
Offline since: 2019-07-19 17:38:22 UTC

Hattiesburg CTAF: 122.800

KHBZ CTAF (Archives)
Heber Springs, Arkansas, United States

Feed Status: UP
Listen in your browser - HTML5 player(in browser, HTML5)
Click here to listen with your own player(launches your MP3 player)

KHBZ Airport Info (Airnav.com)

KHBZ Flight Activity (Flightaware)

Listeners: 0 out of 1552 total

Heber Springs CTAF/UNICOM: 122.700

KHDC De/Gnd/Twr/App/ZHU (Archives)
Hammond, Louisiana, United States

Feed Status: UP
Listen in your browser - HTML5 player(in browser, HTML5)
Click here to listen with your own player(launches your MP3 player)



KHDC Airport Info (Airnav.com)

KHDC Flight Activity (Flightaware)

Listeners: 0 out of 1552 total

Hammond CTAF: 122.700
Hammond Ground: 119.850
Hammond Tower: 120.575
Houston Center (Low): 126.350
New Orleans Approach (West): 125.500
New Orleans Clearance/Approach: 119.300

KHEF Del/Gnd/Twr (Archives)
Manassas, Virginia, United States

Feed Status: UP
Listen in your browser - HTML5 player(in browser, HTML5)
Click here to listen with your own player(launches your MP3 player)

KHEF 232356Z 01006KT 10SM CLR 27/13 A3011 RMK AO2 SLP200 T02670128 10306 20267 57003

KHEF Airport Info (Airnav.com)

KHEF Flight Activity (Flightaware)

Listeners: 0 out of 1552 total

Manassas Clearance Delivery (after Tower closes): 120.200
Manassas Ground: 121.800
Manassas Tower: 133.100

KHFD Ground/Tower (Archives)
Hartford, Connecticut, United States

Feed Status: UP
Listen in your browser - HTML5 player(in browser, HTML5)
Click here to listen with your own player(launches your MP3 player)

KHFD 232353Z 00000KT 10SM CLR 23/15 A3007 RMK AO2 SLP183 60000 T02280150 10283 20228 51008

KHFD Airport Info (Airnav.com)

KHFD Flight Activity (Flightaware)

Listeners: 0 out of 1552 total

Brainard Ground: 121.600
Brainard Tower: 119.600

KHGR Tower (Archives)
Hagerstown, Maryland, United States

Feed Status: UP
Listen in your browser - HTML5 player(in browser, HTML5)
Click here to listen with your own player(launches your MP3 player)

KMRB 232353Z 00000KT 10SM CLR 24/13 A3011 RMK AO2 SLP191 T02440133 10272 20244 55006

KMRB Airport Info (Airnav.com)

KMRB Flight Activity (Flightaware)

Listeners: 1 out of 1552 total

Hagerstown Tower: 120.300

KHIO Ground (Archives)
Portland, Oregon, United States

Feed Status: UP
Listen in your browser - HTML5 player(in browser, HTML5)
Click here to listen with your own player(launches your MP3 player)

KHIO 232353Z AUTO 33005KT 10SM CLR 29/09 A3016 RMK AO2 SLP212 T02940089 10300 20211 58019

KHIO Airport Info (Airnav.com)

KHIO Flight Activity (Flightaware)

Listeners: 0 out of 1552 total

Hillsboro Ground: 121.700

KHIO Tower (Both) (Archives)
Portland, Oregon, United States

Feed Status: UP
Listen in your browser - HTML5 player(in browser, HTML5)
Click here to listen with your own player(launches your MP3 player)

KHIO 232353Z AUTO 33005KT 10SM CLR 29/09 A3016 RMK AO2 SLP212 T02940089 10300 20211 58019

KHIO Airport Info (Airnav.com)

KHIO Flight Activity (Flightaware)

Listeners: 0 out of 1552 total

Hillsboro Tower: 119.300
Hillsboro Tower: 132.800

KHIO Tower (Primary) (Archives)
Portland, Oregon, United States

Feed Status: UP
Listen in your browser - HTML5 player(in browser, HTML5)
Click here to listen with your own player(launches your MP3 player)

KHIO 232353Z AUTO 33005KT 10SM CLR 29/09 A3016 RMK AO2 SLP212 T02940089 10300 20211 58019

KHIO Airport Info (Airnav.com)

KHIO Flight Activity (Flightaware)

Listeners: 0 out of 1552 total

Hillsboro Tower: 119.300

KHKY ASOS (Archives)
Hickory, North Carolina, United States

Feed Status: UP
Listen in your browser - HTML5 player(in browser, HTML5)
Click here to listen with your own player(launches your MP3 player)

KHKY 232353Z 00000KT 9SM FEW048 28/20 A3010 RMK AO2 SLP169 T02830200 10317 20283 55004

KHKY Airport Info (Airnav.com)

KHKY Flight Activity (Flightaware)

Listeners: 0 out of 1552 total

Hickory ASOS: 118.325

KHKY Clearance Delivery (ZTL) (Archives)
Hickory, North Carolina, United States

Feed Status: UP
Listen in your browser - HTML5 player(in browser, HTML5)
Click here to listen with your own player(launches your MP3 player)

KHKY 232353Z 00000KT 9SM FEW048 28/20 A3010 RMK AO2 SLP169 T02830200 10317 20283 55004

KHKY Airport Info (Airnav.com)

KHKY Flight Activity (Flightaware)

Listeners: 0 out of 1552 total

Hickory Clearance Delivery (Atlanta Center): 124.250

KHKY Emergency/Guard (Archives)
Hickory, North Carolina, United States

Feed Status: UP
Listen in your browser - HTML5 player(in browser, HTML5)
Click here to listen with your own player(launches your MP3 player)

KHKY 232353Z 00000KT 9SM FEW048 28/20 A3010 RMK AO2 SLP169 T02830200 10317 20283 55004

KHKY Airport Info (Airnav.com)

KHKY Flight Activity (Flightaware)

Listeners: 0 out of 1552 total

Emergency/Guard: 121.500

KHKY Ground (Archives)
Hickory, North Carolina, United States

Feed Status: UP
Listen in your browser - HTML5 player(in browser, HTML5)
Click here to listen with your own player(launches your MP3 player)

KHKY 232353Z 00000KT 9SM FEW048 28/20 A3010 RMK AO2 SLP169 T02830200 10317 20283 55004

KHKY Airport Info (Airnav.com)

KHKY Flight Activity (Flightaware)

Listeners: 0 out of 1552 total

Hickory Ground: 121.700

KHKY Tower (Archives)
Hickory, North Carolina, United States

Feed Status: UP
Listen in your browser - HTML5 player(in browser, HTML5)
Click here to listen with your own player(launches your MP3 player)

KHKY 232353Z 00000KT 9SM FEW048 28/20 A3010 RMK AO2 SLP169 T02830200 10317 20283 55004

KHKY Airport Info (Airnav.com)

KHKY Flight Activity (Flightaware)

Listeners: 1 out of 1552 total

Hickory Tower: 128.150

KHND ATIS (Archives)
Las Vegas, Nevada, United States

Feed Status: UP
Listen in your browser - HTML5 player(in browser, HTML5)
Click here to listen with your own player(launches your MP3 player)

KHND 232356Z 24017G22KT 10SM CLR 39/13 A2995 RMK AO2 SLP122 T03940128 10394 20350 56021

KHND Airport Info (Airnav.com)

KHND Flight Activity (Flightaware)

Listeners: 0 out of 1552 total

Henderson ATIS: 120.775

KHND Ground/Tower (Archives)
Las Vegas, Nevada, United States

Feed Status: UP
Listen in your browser - HTML5 player(in browser, HTML5)
Click here to listen with your own player(launches your MP3 player)

KHND 232356Z 24017G22KT 10SM CLR 39/13 A2995 RMK AO2 SLP122 T03940128 10394 20350 56021

KHND Airport Info (Airnav.com)

KHND Flight Activity (Flightaware)

Listeners: 1 out of 1552 total

Henderson Ground: 127.800
Henderson Tower: 125.100

KHPN ATIS (Archives)
White Plains, New York, United States

Feed Status: UP
Listen in your browser - HTML5 player(in browser, HTML5)
Click here to listen with your own player(launches your MP3 player)

KHPN 232356Z 05008KT 10SM VCTS SCT110 22/13 A3010 RMK AO2 SLP187 60000 T02220133 10267 20222 53003

KHPN Airport Info (Airnav.com)

KHPN Flight Activity (Flightaware)

Listeners: 0 out of 1552 total

Westchester County ATIS: 133.800

KHPN Del/Gnd/Tower #1 (Archives)
White Plains, New York, United States

Feed Status: UP
Listen in your browser - HTML5 player(in browser, HTML5)
Click here to listen with your own player(launches your MP3 player)

KHPN 232356Z 05008KT 10SM VCTS SCT110 22/13 A3010 RMK AO2 SLP187 60000 T02220133 10267 20222 53003

KHPN Airport Info (Airnav.com)

KHPN Flight Activity (Flightaware)

Listeners: 0 out of 1552 total

Westchester Clearance Delivery: 127.250
Westchester Ground: 121.825
Westchester Tower: 118.575

KHPN Del/Gnd/Tower #2 (Archives)
White Plains, New York, United States

Feed Status: UP
Listen in your browser - HTML5 player(in browser, HTML5)
Click here to listen with your own player(launches your MP3 player)

KHPN 232356Z 05008KT 10SM VCTS SCT110 22/13 A3010 RMK AO2 SLP187 60000 T02220133 10267 20222 53003

KHPN Airport Info (Airnav.com)

KHPN Flight Activity (Flightaware)

Listeners: 0 out of 1552 total

Westchester Clearance Delivery: 127.250
Westchester Ground: 121.825
Westchester Tower: 118.575

KHPN Delivery/Ground (Archives)
White Plains, New York, United States

Feed Status: UP
Listen in your browser - HTML5 player(in browser, HTML5)
Click here to listen with your own player(launches your MP3 player)

KHPN 232356Z 05008KT 10SM VCTS SCT110 22/13 A3010 RMK AO2 SLP187 60000 T02220133 10267 20222 53003

KHPN Airport Info (Airnav.com)

KHPN Flight Activity (Flightaware)

Listeners: 0 out of 1552 total

Westchester Clearance Delivery: 127.250
Westchester Ground: 121.825

KHPN Tower (Archives)
New York, New York, United States

Feed Status: UP
Listen in your browser - HTML5 player(in browser, HTML5)
Click here to listen with your own player(launches your MP3 player)

KHPN 232356Z 05008KT 10SM VCTS SCT110 22/13 A3010 RMK AO2 SLP187 60000 T02220133 10267 20222 53003

KHPN Airport Info (Airnav.com)

KHPN Flight Activity (Flightaware)

Listeners: 1 out of 1552 total

Westchester Tower: 118.575

KHPN Tower (Archives)
New York, New York, United States

Feed Status: UP
Listen in your browser - HTML5 player(in browser, HTML5)
Click here to listen with your own player(launches your MP3 player)

KHPN 232356Z 05008KT 10SM VCTS SCT110 22/13 A3010 RMK AO2 SLP187 60000 T02220133 10267 20222 53003

KHPN Airport Info (Airnav.com)

KHPN Flight Activity (Flightaware)

Listeners: 1 out of 1552 total

Westchester Tower: 118.575

NY Approach (NOBBI/NYACK/HAARP) (Archives)
New York, New York, United States

Feed Status: UP
Listen in your browser - HTML5 player(in browser, HTML5)
Click here to listen with your own player(launches your MP3 player)

KHPN 232356Z 05008KT 10SM VCTS SCT110 22/13 A3010 RMK AO2 SLP187 60000 T02220133 10267 20222 53003

KHPN Airport Info (Airnav.com)

KHPN Flight Activity (Flightaware)

Listeners: 0 out of 1552 total

New York Approach (HAARP Sector): 135.350
New York Approach (HAARP Sector): 120.800
New York Approach (NOBBI Sector): 126.400
New York Approach (NYACK Sector): 120.550

KHQZ Gnd/Twr
Mesquite, Texas, United States

Feed Status: DOWN
Offline since: 2021-06-28 21:37:05 UTC

KHQZ 232350Z 15008G15KT 10SM SCT060 32/22 A3000

KHQZ Airport Info (Airnav.com)

Mesquite Ground: 118.850
Mesquite Tower: 120.300

KHRL Gnd/Twr/App (Archives)
Harlingen, Texas, United States

Feed Status: UP
Listen in your browser - HTML5 player(in browser, HTML5)
Click here to listen with your own player(launches your MP3 player)

KHRL 232352Z 16015KT 10SM -RA CLR 31/25 A3002 RMK AO2 RAB50 SLP166 P0000 60000 T03110250 10339 20311 56014

KHRL Airport Info (Airnav.com)

KHRL Flight Activity (Flightaware)

Listeners: 0 out of 1552 total

Harlingen Clearance/Ground: 121.700
Harlingen Tower: 119.300
Valley Approach: 120.700

KHRO CTAF/ZME/Misc (Archives)
Harrison, Arkansas, United States

Feed Status: UP
Listen in your browser - HTML5 player(in browser, HTML5)
Click here to listen with your own player(launches your MP3 player)

KHRO 232353Z AUTO 12007KT 10SM FEW050 30/22 A3008 RMK AO2 SLP170 T03000217 10328 20300 58010

KHRO Airport Info (Airnav.com)

KHRO Flight Activity (Flightaware)

Listeners: 1 out of 1552 total

Boone County CTAF: 123.000
Jonesboro FSS: 122.450
Jonesboro FSS: 255.400
KBBG Tower (aircraft only): 128.150
Memphis Center (Low): 126.850
Memphis Center (Low): 281.550
Memphis Center (Ultra-High): 133.025
Memphis Center (Ultra-High): 284.750
Springfield Approach (aircraft only): 126.350

KHSD CTAF (Archives)
Oklahoma City, Oklahoma, United States

Feed Status: UP
Listen in your browser - HTML5 player(in browser, HTML5)
Click here to listen with your own player(launches your MP3 player)

KHSD Airport Info (Airnav.com)

KHSD Flight Activity (Flightaware)

Listeners: 0 out of 1552 total

Sundance CTAF: 122.700

KHUF App/Dep (Archives)
Terre Haute, Indiana, United States

Feed Status: UP
Listen in your browser - HTML5 player(in browser, HTML5)
Click here to listen with your own player(launches your MP3 player)

KHUF 232353Z 19007KT 7SM CLR 29/22 A3007 RMK AO2 SLP179 T02890217 10311 20289 56010

KHUF Airport Info (Airnav.com)

KHUF Flight Activity (Flightaware)

Listeners: 0 out of 1552 total

Hulman Approach: 125.450

KHUF Emergency/Guard (Archives)
Terre Haute, Indiana, United States

Feed Status: UP
Listen in your browser - HTML5 player(in browser, HTML5)
Click here to listen with your own player(launches your MP3 player)

KHUF 232353Z 19007KT 7SM CLR 29/22 A3007 RMK AO2 SLP179 T02890217 10311 20289 56010

KHUF Airport Info (Airnav.com)

KHUF Flight Activity (Flightaware)

Listeners: 0 out of 1552 total

Emergency/Guard: 121.500

KHUF Gnd/Twr (Archives)
Terre Haute, Indiana, United States

Feed Status: UP
Listen in your browser - HTML5 player(in browser, HTML5)
Click here to listen with your own player(launches your MP3 player)

KHUF 232353Z 19007KT 7SM CLR 29/22 A3007 RMK AO2 SLP179 T02890217 10311 20289 56010

KHUF Airport Info (Airnav.com)

KHUF Flight Activity (Flightaware)

Listeners: 0 out of 1552 total

Hulman Ground/Clearance: 121.600
Hulman Tower: 134.725

KHUF Gnd/Twr/App (Archives)
Terre Haute, Indiana, United States

Feed Status: UP
Listen in your browser - HTML5 player(in browser, HTML5)
Click here to listen with your own player(launches your MP3 player)

KHUF 232353Z 19007KT 7SM CLR 29/22 A3007 RMK AO2 SLP179 T02890217 10311 20289 56010

KHUF Airport Info (Airnav.com)

KHUF Flight Activity (Flightaware)

Listeners: 0 out of 1552 total

Hulman Approach: 125.450
Hulman Ground/Clearance: 121.600
Hulman Tower: 134.725
Indianapolis Center (Sector 35 Terre Haute Low): 132.200
Indianapolis Center (Sector 80 King High): 134.175

KHUF Ground (Archives)
Terre Haute, Indiana, United States

Feed Status: UP
Listen in your browser - HTML5 player(in browser, HTML5)
Click here to listen with your own player(launches your MP3 player)

KHUF 232353Z 19007KT 7SM CLR 29/22 A3007 RMK AO2 SLP179 T02890217 10311 20289 56010

KHUF Airport Info (Airnav.com)

KHUF Flight Activity (Flightaware)

Listeners: 0 out of 1552 total

Hulman Ground/Clearance: 121.600

KHUF Tower (Archives)
Terre Haute, Indiana, United States

Feed Status: UP
Listen in your browser - HTML5 player(in browser, HTML5)
Click here to listen with your own player(launches your MP3 player)

KHUF 232353Z 19007KT 7SM CLR 29/22 A3007 RMK AO2 SLP179 T02890217 10311 20289 56010

KHUF Airport Info (Airnav.com)

KHUF Flight Activity (Flightaware)

Listeners: 0 out of 1552 total

Hulman Tower: 134.725

KHUL ASOS (Archives)
Houlton, Maine, United States

Feed Status: UP
Listen in your browser - HTML5 player(in browser, HTML5)
Click here to listen with your own player(launches your MP3 player)

KHUL 232353Z AUTO 00000KT 10SM CLR 17/13 A3003 RMK AO2 SLP171 T01670128 10239 20167 53007

KHUL Airport Info (Airnav.com)

KHUL Flight Activity (Flightaware)

Listeners: 0 out of 1552 total

Houlton ASOS: 132.025

KHUL/KPQI/ZBW01/15 (Archives)
Houlton, Maine, United States

Feed Status: UP
Listen in your browser - HTML5 player(in browser, HTML5)
Click here to listen with your own player(launches your MP3 player)

KHUL 232353Z AUTO 00000KT 10SM CLR 17/13 A3003 RMK AO2 SLP171 T01670128 10239 20167 53007

KHUL Airport Info (Airnav.com)

KHUL Flight Activity (Flightaware)

Listeners: 0 out of 1552 total

Boston Center (Sector 01 Millinocket High Sector): 128.050
Boston Center (Sector 01 Millinocket High Sector): 319.100
Boston Center (Surry 15 Low Sector): 120.250
Boston Center (Surry 15 Low Sector): 346.400
Boston Center (Surry 15 Low Sector): 124.750
Emergency/Guard: 121.500
Houlton CTAF/UNICOM: 122.800
Presque Isle CTAF/UNICOM: 122.800

KHUT Ground/Twr (Archives)
Hutchinson, Kansas, United States

Feed Status: UP
Listen in your browser - HTML5 player(in browser, HTML5)
Click here to listen with your own player(launches your MP3 player)

KHUT 232352Z 16012KT 10SM CLR 35/16 A2995 RMK AO2 SLP118 T03500156 10372 20333 58016

KHUT Airport Info (Airnav.com)

KHUT Flight Activity (Flightaware)

Listeners: 0 out of 1552 total

Emergency/Guard: 121.500
Hutchinson Ground: 121.900
Hutchinson Tower: 118.500

KHVN Ground/Tower (Archives)
New Haven, Connecticut, United States

Feed Status: UP
Listen in your browser - HTML5 player(in browser, HTML5)
Click here to listen with your own player(launches your MP3 player)

KHVN 232353Z 32003KT 10SM FEW065 26/14 A3007 RMK AO2 LTG DSNT W SLP182 T02610144 10278 20250 55000

KHVN Airport Info (Airnav.com)

KHVN Flight Activity (Flightaware)

Listeners: 0 out of 1552 total

New Haven Ground: 121.700
New Haven Tower: 124.800

KHWD Ground/Tower (Archives)
Hayward, California, United States

Feed Status: UP
Listen in your browser - HTML5 player(in browser, HTML5)
Click here to listen with your own player(launches your MP3 player)

KHWD 232354Z 30010KT 10SM CLR 24/12 A2997 RMK AO2 SLP158 T02440122 10256 20194 56007

KHWD Airport Info (Airnav.com)

KHWD Flight Activity (Flightaware)

Listeners: 1 out of 1552 total

Hayward Ground: 121.400
Hayward Tower: 118.900
Hayward Tower: 120.200

KHWO ATIS (Archives)
Hollywood, Florida, United States

Feed Status: UP
Listen in your browser - HTML5 player(in browser, HTML5)
Click here to listen with your own player(launches your MP3 player)

KHWO 240022Z 23005KT 10SM BKN026 28/24 A3005 RMK AO2 T02780244

KHWO Airport Info (Airnav.com)

KHWO Flight Activity (Flightaware)

Listeners: 0 out of 1552 total

North Perry ATIS: 135.475

KHWO Ground (Archives)
Hollywood, Florida, United States

Feed Status: UP
Listen in your browser - HTML5 player(in browser, HTML5)
Click here to listen with your own player(launches your MP3 player)

KHWO 240022Z 23005KT 10SM BKN026 28/24 A3005 RMK AO2 T02780244

KHWO Airport Info (Airnav.com)

KHWO Flight Activity (Flightaware)

Listeners: 0 out of 1552 total

North Perry Ground: 120.450

KHWO Tower (Both) (Archives)
Hollywood, Florida, United States

Feed Status: UP
Listen in your browser - HTML5 player(in browser, HTML5)
Click here to listen with your own player(launches your MP3 player)

KHWO 240022Z 23005KT 10SM BKN026 28/24 A3005 RMK AO2 T02780244

KHWO Airport Info (Airnav.com)

KHWO Flight Activity (Flightaware)

Listeners: 0 out of 1552 total

North Perry Tower (Primary): 132.100
North Perry Tower (Secondary): 134.300

KHWO Tower (Primary)
Hollywood, Florida, United States

Feed Status: DOWN
Offline since: 2019-12-30 16:50:05 UTC

KHWO 240022Z 23005KT 10SM BKN026 28/24 A3005 RMK AO2 T02780244

KHWO Airport Info (Airnav.com)

North Perry Tower (Primary): 132.100

KHWO Tower (Secondary) (Archives)
Hollywood, Florida, United States

Feed Status: UP
Listen in your browser - HTML5 player(in browser, HTML5)
Click here to listen with your own player(launches your MP3 player)

KHWO 240022Z 23005KT 10SM BKN026 28/24 A3005 RMK AO2 T02780244

KHWO Airport Info (Airnav.com)

KHWO Flight Activity (Flightaware)

Listeners: 0 out of 1552 total

North Perry Tower (Secondary): 134.300

KHWV CTAF (Archives)
Shirley, New York, United States

Feed Status: UP
Listen in your browser - HTML5 player(in browser, HTML5)
Click here to listen with your own player(launches your MP3 player)

KHWV 232356Z AUTO 00000KT 10SM CLR 24/16 A3008 RMK AO2 SLP184 T02390156 10283 20239 55000

KHWV Airport Info (Airnav.com)

KHWV Flight Activity (Flightaware)

Listeners: 0 out of 1552 total

Brookhaven CTAF: 122.800
Emergency/Guard: 121.500

KHXD Ground/Tower (Archives)
Hilton Head Island, South Carolina, United States

Feed Status: UP
Listen in your browser - HTML5 player(in browser, HTML5)
Click here to listen with your own player(launches your MP3 player)

KHXD 232350Z 10005KT 7SM CLR 28/24 A3006

KHXD Airport Info (Airnav.com)

KHXD Flight Activity (Flightaware)

Listeners: 0 out of 1552 total

Hilton Head Ground: 121.100
Hilton Head Tower: 118.975

ARINC Oceanic (Archives)
Hyannis, Massachusetts, United States

Feed Status: UP
Listen in your browser - HTML5 player(in browser, HTML5)
Click here to listen with your own player(launches your MP3 player)

KHYA 232356Z 20003KT 10SM CLR 22/16 A3008 RMK AO2 SLP185 6//// T02170156 10261 20217 53007 PNO $

KHYA Airport Info (Airnav.com)

KHYA Flight Activity (Flightaware)

Listeners: 0 out of 1552 total

ARINC Oceanic: 129.900

Boston Approach (Cape North) (Archives)
Hyannis, Massachusetts, United States

Feed Status: UP
Listen in your browser - HTML5 player(in browser, HTML5)
Click here to listen with your own player(launches your MP3 player)

KFMH 232356Z 00000KT 7SM -DZ SCT070 19/18 A3009

KFMH Airport Info (Airnav.com)

KFMH Flight Activity (Flightaware)

Listeners: 0 out of 1552 total

Boston Approach (Cape North Arrival): 118.200

KHYA ATIS (Archives)
Hyannis, Massachusetts, United States

Feed Status: UP
Listen in your browser - HTML5 player(in browser, HTML5)
Click here to listen with your own player(launches your MP3 player)

KHYA 232356Z 20003KT 10SM CLR 22/16 A3008 RMK AO2 SLP185 6//// T02170156 10261 20217 53007 PNO $

KHYA Airport Info (Airnav.com)

KHYA Flight Activity (Flightaware)

Listeners: 0 out of 1552 total

Hyannis ATIS: 123.800

KHYA Del/Gnd (Archives)
Hyannis, Massachusetts, United States

Feed Status: UP
Listen in your browser - HTML5 player(in browser, HTML5)
Click here to listen with your own player(launches your MP3 player)

KHYA 232356Z 20003KT 10SM CLR 22/16 A3008 RMK AO2 SLP185 6//// T02170156 10261 20217 53007 PNO $

KHYA Airport Info (Airnav.com)

KHYA Flight Activity (Flightaware)

Listeners: 0 out of 1552 total

Hyannis Clearance Delivery: 125.150
Hyannis Ground: 118.450

KHYA Del/Gnd/Twr (Archives)
Hyannis, Massachusetts, United States

Feed Status: UP
Listen in your browser - HTML5 player(in browser, HTML5)
Click here to listen with your own player(launches your MP3 player)

KHYA 232356Z 20003KT 10SM CLR 22/16 A3008 RMK AO2 SLP185 6//// T02170156 10261 20217 53007 PNO $

KHYA Airport Info (Airnav.com)

KHYA Flight Activity (Flightaware)

Listeners: 0 out of 1552 total

Hyannis Clearance Delivery: 125.150
Hyannis Ground: 118.450
Hyannis Tower: 119.500

KHYA Emergency/Guard (Archives)
Hyannis, Massachusetts, United States

Feed Status: UP
Listen in your browser - HTML5 player(in browser, HTML5)
Click here to listen with your own player(launches your MP3 player)

KHYA 232356Z 20003KT 10SM CLR 22/16 A3008 RMK AO2 SLP185 6//// T02170156 10261 20217 53007 PNO $

KHYA Airport Info (Airnav.com)

KHYA Flight Activity (Flightaware)

Listeners: 0 out of 1552 total

Emergency/Guard: 121.500

KHYA Tower (Archives)
Hyannis, Massachusetts, United States

Feed Status: UP
Listen in your browser - HTML5 player(in browser, HTML5)
Click here to listen with your own player(launches your MP3 player)

KHYA 232356Z 20003KT 10SM CLR 22/16 A3008 RMK AO2 SLP185 6//// T02170156 10261 20217 53007 PNO $

KHYA Airport Info (Airnav.com)

KHYA Flight Activity (Flightaware)

Listeners: 0 out of 1552 total

Hyannis Tower: 119.500

KHYI Gnd/Twr/Misc (Archives)
Austin, Texas, United States

Feed Status: UP
Listen in your browser - HTML5 player(in browser, HTML5)
Click here to listen with your own player(launches your MP3 player)

KHYI 232356Z 16014KT 10SM FEW045 32/23 A3004 RMK AO2 SLP161 T03220233 10344 20317 56016

KHYI Airport Info (Airnav.com)

KHYI Flight Activity (Flightaware)

Listeners: 2 out of 1552 total

Redbird FBO ASRI: 130.850
San Marcos Ground: 120.125
San Marcos Tower: 126.825

KHYS CTAF (Archives)
Hays, Kansas, United States

Feed Status: UP
Listen in your browser - HTML5 player(in browser, HTML5)
Click here to listen with your own player(launches your MP3 player)

KHYS 232356Z AUTO 15011KT 10SM CLR 34/17 A2994 RMK AO2 SLP119 T03390172 10356 20339 56015

KHYS Airport Info (Airnav.com)

KHYS Flight Activity (Flightaware)

Listeners: 0 out of 1552 total

Hays CTAF: 122.800

KIAG Del/Gnd/Twr (Archives)
Niagara Falls, New York, United States

Feed Status: UP
Listen in your browser - HTML5 player(in browser, HTML5)
Click here to listen with your own player(launches your MP3 player)

KIAG 232353Z 00000KT 10SM CLR 25/11 A3012 RMK AO2 SLP194 T02500106 10267 20250 56010

KIAG Airport Info (Airnav.com)

KIAG Flight Activity (Flightaware)

Listeners: 0 out of 1552 total

Niagara Clearance Delivery: 119.250
Niagara Emergency/Guard: 121.500
Niagara Ground: 121.700
Niagara Tower: 118.500
Niagara UNICOM: 122.950

KIFP Tower (Archives)
Bullhead City, Arizona, United States

Feed Status: UP
Listen in your browser - HTML5 player(in browser, HTML5)
Click here to listen with your own player(launches your MP3 player)

KIFP 232347Z 16014KT 20SM SCT100 40/17 A2984

KIFP Airport Info (Airnav.com)

KIFP Flight Activity (Flightaware)

Listeners: 0 out of 1552 total

Bullhead Tower: 123.900

KIKV Del/CTAF (Archives)
Ankeny, Iowa, United States

Feed Status: UP
Listen in your browser - HTML5 player(in browser, HTML5)
Click here to listen with your own player(launches your MP3 player)

KIKV 240015Z AUTO 22009KT 9SM CLR 31/21 A2998 RMK AO2

KIKV Airport Info (Airnav.com)

KIKV Flight Activity (Flightaware)

Listeners: 0 out of 1552 total

Ankeny Clearance Delivery (Des Moines via RCO): 126.650
Ankeny CTAF: 122.900

KILM Gnd/Twr/App (Archives)
Wilmington, North Carolina, United States

Feed Status: UP
Listen in your browser - HTML5 player(in browser, HTML5)
Click here to listen with your own player(launches your MP3 player)

KILM 232353Z 09006KT 10SM CLR 27/19 A3009 RMK AO2 SLP188 T02720189 10300 20272 53002

KILM Airport Info (Airnav.com)

KILM Flight Activity (Flightaware)

Listeners: 0 out of 1552 total

Emergency/Guard: 121.500
Wilmington Approach: 118.250
Wilmington Approach: 135.750
Wilmington Approach: 317.425
Wilmington Approach: 284.650
Wilmington Ground: 121.900
Wilmington Ground: 348.600
Wilmington Tower: 119.900
Wilmington Tower: 239.300

KILM Gnd/Twr/App/ZDC (Archives)
Wilmington, North Carolina, United States

Feed Status: UP
Listen in your browser - HTML5 player(in browser, HTML5)
Click here to listen with your own player(launches your MP3 player)

KILM 232353Z 09006KT 10SM CLR 27/19 A3009 RMK AO2 SLP188 T02720189 10300 20272 53002

KILM Airport Info (Airnav.com)

KILM Flight Activity (Flightaware)

Listeners: 0 out of 1552 total

Emergency/Guard: 121.500
Washington Center (Sector 35 Wilmington High): 269.150
Washington Center (Sector 35 Wilmington High): 124.025
Wilmington Approach: 317.425
Wilmington Approach: 284.650
Wilmington Approach: 135.750
Wilmington Approach: 118.250
Wilmington Ground: 121.900
Wilmington Ground: 348.600
Wilmington Tower: 239.300
Wilmington Tower: 119.900

KIMS AWOS (Archives)
Madison, Indiana, United States

Feed Status: UP
Listen in your browser - HTML5 player(in browser, HTML5)
Click here to listen with your own player(launches your MP3 player)

KIMS 240015Z AUTO 00000KT 10SM CLR 26/20 A3012 RMK AO2

KIMS Airport Info (Airnav.com)

KIMS Flight Activity (Flightaware)

Listeners: 0 out of 1552 total

Madison AWOS Weather: 119.175

KIMS CTAF (Archives)
Madison, Indiana, United States

Feed Status: UP
Listen in your browser - HTML5 player(in browser, HTML5)
Click here to listen with your own player(launches your MP3 player)

KIMS 240015Z AUTO 00000KT 10SM CLR 26/20 A3012 RMK AO2

KIMS Airport Info (Airnav.com)

KIMS Flight Activity (Flightaware)

Listeners: 0 out of 1552 total

Madison CTAF: 123.000

KINF CTAF (Archives)
Inverness, Florida, United States

Feed Status: UP
Listen in your browser - HTML5 player(in browser, HTML5)
Click here to listen with your own player(launches your MP3 player)



KINF Airport Info (Airnav.com)

KINF Flight Activity (Flightaware)

Listeners: 0 out of 1552 total

Inverness CTAF: 122.725

KCID Gnd/Twr/App/KIOW (Archives)
Iowa City, Iowa, United States

Feed Status: UP
Listen in your browser - HTML5 player(in browser, HTML5)
Click here to listen with your own player(launches your MP3 player)

KCID 232352Z 20009KT 7SM CLR 29/23 A2998 RMK AO2 SLP147 T02890228 10311 20289 58011

KCID Airport Info (Airnav.com)

KCID Flight Activity (Flightaware)

Listeners: 0 out of 1552 total

Cedar Rapids Approach (091-269): 119.700
Cedar Rapids Approach (270-090): 134.050
Cedar Rapids Clearance Delivery: 125.450
Cedar Rapids Ground (0500-2330): 121.600
Cedar Rapids Tower (0500-2330): 118.700
UNICOM C17 (Marion) and surrounding area: 122.700
UNICOM IA24 Green Castle: 122.900
UNICOM KIOW (Iowa City) and surrounding area: 122.800

KIPJ CTAF/Del (Archives)
Lincolnton, North Carolina, United States

Feed Status: UP
Listen in your browser - HTML5 player(in browser, HTML5)
Click here to listen with your own player(launches your MP3 player)

KIPJ 240015Z AUTO 00000KT 10SM CLR 26/21 A3010 RMK AO2 T02580205

KIPJ Airport Info (Airnav.com)

KIPJ Flight Activity (Flightaware)

Listeners: 0 out of 1552 total

Lincolnton Clearance Delivery: 124.900
Lincolnton CTAF: 123.050

KISM Del/Gnd (Archives)
Orlando, Florida, United States

Feed Status: UP
Listen in your browser - HTML5 player(in browser, HTML5)
Click here to listen with your own player(launches your MP3 player)

KJSM Airport Info (Airnav.com)

KJSM Flight Activity (Flightaware)

Listeners: 0 out of 1552 total

Emergency/Guard: 121.500
Kissimmee Ground/Clearance Delivery: 121.700

KISM Del/Gnd/Twr (Archives)
Orlando, Florida, United States

Feed Status: UP
Listen in your browser - HTML5 player(in browser, HTML5)
Click here to listen with your own player(launches your MP3 player)

KJSM Airport Info (Airnav.com)

KJSM Flight Activity (Flightaware)

Listeners: 0 out of 1552 total

Emergency/Guard: 121.500
Kissimmee Ground/Clearance Delivery: 121.700
Kissimmee Tower/CTAF: 124.450

KISM Tower (Archives)
Orlando, Florida, United States

Feed Status: UP
Listen in your browser - HTML5 player(in browser, HTML5)
Click here to listen with your own player(launches your MP3 player)

KJSM Airport Info (Airnav.com)

KJSM Flight Activity (Flightaware)

Listeners: 0 out of 1552 total

Kissimmee Tower/CTAF: 124.450

KIUA CTAF (Archives)
Canandaigua, New York, United States

Feed Status: UP
Listen in your browser - HTML5 player(in browser, HTML5)
Click here to listen with your own player(launches your MP3 player)



KIUA Airport Info (Airnav.com)

KIUA Flight Activity (Flightaware)

Listeners: 0 out of 1552 total

Canandaigua CTAF: 122.800

KIWA ATIS (Archives)
Phoenix, Arizona, United States

Feed Status: UP
Listen in your browser - HTML5 player(in browser, HTML5)
Click here to listen with your own player(launches your MP3 player)



KIWA Airport Info (Airnav.com)

KIWA Flight Activity (Flightaware)

Listeners: 0 out of 1552 total

Gateway ATIS: 133.500

KIWA Clearance Delivery (Archives)
Phoenix, Arizona, United States

Feed Status: UP
Listen in your browser - HTML5 player(in browser, HTML5)
Click here to listen with your own player(launches your MP3 player)



KIWA Airport Info (Airnav.com)

KIWA Flight Activity (Flightaware)

Listeners: 0 out of 1552 total

Gateway Clearance Delivery: 135.050

KIWA Ground (Archives)
Phoenix, Arizona, United States

Feed Status: UP
Listen in your browser - HTML5 player(in browser, HTML5)
Click here to listen with your own player(launches your MP3 player)



KIWA Airport Info (Airnav.com)

KIWA Flight Activity (Flightaware)

Listeners: 1 out of 1552 total

Gateway Ground: 128.250

KIWA Tower (Archives)
Phoenix, Arizona, United States

Feed Status: UP
Listen in your browser - HTML5 player(in browser, HTML5)
Click here to listen with your own player(launches your MP3 player)



KIWA Airport Info (Airnav.com)

KIWA Flight Activity (Flightaware)

Listeners: 1 out of 1552 total

Gateway Tower (East): 124.750
Gateway Tower (West): 120.600

KIXD ASOS/ATIS (Archives)
Olathe, Kansas, United States

Feed Status: UP
Listen in your browser - HTML5 player(in browser, HTML5)
Click here to listen with your own player(launches your MP3 player)

KIXD 232353Z 19012KT 10SM CLR 32/20 A3001 RMK AO2 SLP149 T03220200 10339 20317 58013

KIXD Airport Info (Airnav.com)

KIXD Flight Activity (Flightaware)

Listeners: 0 out of 1552 total

New Century ATIS/ASOS: 135.325

KIXD Ground/Tower/K34 (Archives)
Olathe, Kansas, United States

Feed Status: UP
Listen in your browser - HTML5 player(in browser, HTML5)
Click here to listen with your own player(launches your MP3 player)

KIXD 232353Z 19012KT 10SM CLR 32/20 A3001 RMK AO2 SLP149 T03220200 10339 20317 58013

KIXD Airport Info (Airnav.com)

KIXD Flight Activity (Flightaware)

Listeners: 1 out of 1552 total

K34 CTAF: 122.800
New Century Ground: 124.300
New Century Tower: 133.000

KJLN ATIS (Archives)
Joplin, Missouri, United States

Feed Status: UP
Listen in your browser - HTML5 player(in browser, HTML5)
Click here to listen with your own player(launches your MP3 player)

KJLN 232353Z 22009KT 10SM FEW044 31/23 A3004 RMK AO2 SLP158 T03110228 10328 20300 58011

KJLN Airport Info (Airnav.com)

KJLN Flight Activity (Flightaware)

Listeners: 0 out of 1552 total

Joplin ATIS: 120.850

KJLN Ground (Archives)
Joplin, Missouri, United States

Feed Status: UP
Listen in your browser - HTML5 player(in browser, HTML5)
Click here to listen with your own player(launches your MP3 player)

KJLN 232353Z 22009KT 10SM FEW044 31/23 A3004 RMK AO2 SLP158 T03110228 10328 20300 58011

KJLN Airport Info (Airnav.com)

KJLN Flight Activity (Flightaware)

Listeners: 0 out of 1552 total

Joplin Ground: 121.600

KJLN Ground/Tower (Archives)
Joplin, Missouri, United States

Feed Status: UP
Listen in your browser - HTML5 player(in browser, HTML5)
Click here to listen with your own player(launches your MP3 player)

KJLN 232353Z 22009KT 10SM FEW044 31/23 A3004 RMK AO2 SLP158 T03110228 10328 20300 58011

KJLN Airport Info (Airnav.com)

KJLN Flight Activity (Flightaware)

Listeners: 0 out of 1552 total

Joplin Ground: 121.600
Joplin Tower: 119.800

KJLN Tower (Archives)
Joplin, Missouri, United States

Feed Status: UP
Listen in your browser - HTML5 player(in browser, HTML5)
Click here to listen with your own player(launches your MP3 player)

KJLN 232353Z 22009KT 10SM FEW044 31/23 A3004 RMK AO2 SLP158 T03110228 10328 20300 58011

KJLN Airport Info (Airnav.com)

KJLN Flight Activity (Flightaware)

Listeners: 0 out of 1552 total

Joplin Tower: 119.800

KJNX AWOS (Archives)
Smithfield, North Carolina, United States

Feed Status: UP
Listen in your browser - HTML5 player(in browser, HTML5)
Click here to listen with your own player(launches your MP3 player)

KJNX 240015Z AUTO 00000KT 10SM CLR 26/20 A3010 RMK AO2

KJNX Airport Info (Airnav.com)

KJNX Flight Activity (Flightaware)

Listeners: 0 out of 1552 total

Johnston AWOS: 120.225

KJNX CTAF (Archives)
Smithfield, North Carolina, United States

Feed Status: UP
Listen in your browser - HTML5 player(in browser, HTML5)
Click here to listen with your own player(launches your MP3 player)

KJNX 240015Z AUTO 00000KT 10SM CLR 26/20 A3010 RMK AO2

KJNX Airport Info (Airnav.com)

KJNX Flight Activity (Flightaware)

Listeners: 1 out of 1552 total

Johnston CTAF: 122.725

KJQF Ground/Tower (Archives)
Concord, North Carolina, United States

Feed Status: UP
Listen in your browser - HTML5 player(in browser, HTML5)
Click here to listen with your own player(launches your MP3 player)

KJQF 232350Z 00000KT 7SM FU CLR 28/19 A3012

KJQF Airport Info (Airnav.com)

KJQF Flight Activity (Flightaware)

Listeners: 1 out of 1552 total

Concord Ground: 121.850
Concord Tower: 134.650

KJRA/KJRB CTAF #1 (Archives)
New York, New York, United States

Feed Status: UP
Listen in your browser - HTML5 player(in browser, HTML5)
Click here to listen with your own player(launches your MP3 player)

KJRA Airport Info (Airnav.com)

KJRA Flight Activity (Flightaware)

Listeners: 1 out of 1552 total

Hudson River/New York Harbor/KJRA West 30th Street Heliport: 123.050

KJRA/KJRB CTAF #2 (Archives)
New York, New York, United States

Feed Status: UP
Listen in your browser - HTML5 player(in browser, HTML5)
Click here to listen with your own player(launches your MP3 player)


Listeners: 0 out of 1552 total

Hudson River/New York Harbor/KJRA West 30th Street Heliport: 123.050

KJRA/KJRB CTAF (Archives)
New York, New York, United States

Feed Status: UP
Listen in your browser - HTML5 player(in browser, HTML5)
Click here to listen with your own player(launches your MP3 player)

KJRA Airport Info (Airnav.com)

KJRA Flight Activity (Flightaware)

Listeners: 1 out of 1552 total

Hudson River/New York Harbor/KJRA West 30th Street Heliport: 123.050

KJWY/2TS6 CTAF/Unicom (Archives)
Midlothian/Waxahachie, Texas, United States

Feed Status: UP
Listen in your browser - HTML5 player(in browser, HTML5)
Click here to listen with your own player(launches your MP3 player)

KJWY 240015Z AUTO 19008KT 10SM CLR 33/20 A3001 RMK AO2 T03260201

KJWY Airport Info (Airnav.com)

KJWY Flight Activity (Flightaware)

Listeners: 0 out of 1552 total

Mid-Way CTAF/UNICOM: 122.975

Regional Approach (South/RBD)
Midlothian/Waxahachie, Texas, United States

Feed Status: DOWN
Offline since: 2020-03-29 19:10:05 UTC

KRBD 232353Z 18009KT 10SM CLR 33/19 A2999 RMK AO2 SLP146 T03330194 10344 20311 57016

KRBD Airport Info (Airnav.com)

Regional Approach (South): 125.200

KJYO AWOS (Archives)
Leesburg, Virginia, United States

Feed Status: UP
Listen in your browser - HTML5 player(in browser, HTML5)
Click here to listen with your own player(launches your MP3 player)



KJYO Airport Info (Airnav.com)

KJYO Flight Activity (Flightaware)

Listeners: 0 out of 1552 total

Leesburg AWOS: 125.225

KJYO CTAF/Tower (Archives)
Leesburg, Virginia, United States

Feed Status: UP
Listen in your browser - HTML5 player(in browser, HTML5)
Click here to listen with your own player(launches your MP3 player)



KJYO Airport Info (Airnav.com)

KJYO Flight Activity (Flightaware)

Listeners: 1 out of 1552 total

Leesburg Tower/CTAF: 127.500

KJYO Del/Gnd (Archives)
Leesburg, Virginia, United States

Feed Status: UP
Listen in your browser - HTML5 player(in browser, HTML5)
Click here to listen with your own player(launches your MP3 player)



KJYO Airport Info (Airnav.com)

KJYO Flight Activity (Flightaware)

Listeners: 0 out of 1552 total

Leesburg Clearance Delivery (Potomac TRACON): 118.550
Leesburg Ground: 120.500

KJYO Del/Gnd/Twr/CTAF (Archives)
Leesburg, Virginia, United States

Feed Status: UP
Listen in your browser - HTML5 player(in browser, HTML5)
Click here to listen with your own player(launches your MP3 player)



KJYO Airport Info (Airnav.com)

KJYO Flight Activity (Flightaware)

Listeners: 0 out of 1552 total

Leesburg Clearance Delivery (Potomac TRACON): 118.550
Leesburg Ground: 120.500
Leesburg Tower/CTAF: 127.500

ZDC Sectors 12/04 (Archives)
Leesburg, Virginia, United States

Feed Status: UP
Listen in your browser - HTML5 player(in browser, HTML5)
Click here to listen with your own player(launches your MP3 player)

KIAD 232352Z 04005KT 10SM FEW050 26/12 A3011 RMK AO2 SLP193 T02560117 10294 20256 55005

KIAD Airport Info (Airnav.com)

KIAD Flight Activity (Flightaware)

Listeners: 0 out of 1552 total

Washington Center (Sector 04 Pinion High): 133.975
Washington Center (Sector 12 Brooke High): 126.875
Washington Center (ZDC Guard Dog Low (Shared w/Potomac TRACON): 135.525

KLAF App/Dep (Archives)
Lafayette, Indiana, United States

Feed Status: UP
Listen in your browser - HTML5 player(in browser, HTML5)
Click here to listen with your own player(launches your MP3 player)

KLAF 232354Z 22005KT 6SM HZ CLR 28/23 A3005 RMK AO2 SLP169 T02830228 10306 20283 56013

KLAF Airport Info (Airnav.com)

KLAF Flight Activity (Flightaware)

Listeners: 0 out of 1552 total

Grissom Approach: 123.850

KLAF ATIS (Archives)
Lafayette, Indiana, United States

Feed Status: UP
Listen in your browser - HTML5 player(in browser, HTML5)
Click here to listen with your own player(launches your MP3 player)

KLAF 232354Z 22005KT 6SM HZ CLR 28/23 A3005 RMK AO2 SLP169 T02830228 10306 20283 56013

KLAF Airport Info (Airnav.com)

KLAF Flight Activity (Flightaware)

Listeners: 0 out of 1552 total

Lafayette ATIS: 127.750

KLAF Ground (Archives)
Lafayette, Indiana, United States

Feed Status: UP
Listen in your browser - HTML5 player(in browser, HTML5)
Click here to listen with your own player(launches your MP3 player)

KLAF 232354Z 22005KT 6SM HZ CLR 28/23 A3005 RMK AO2 SLP169 T02830228 10306 20283 56013

KLAF Airport Info (Airnav.com)

KLAF Flight Activity (Flightaware)

Listeners: 0 out of 1552 total

Lafayette Ground: 121.900

KLAF Tower (Archives)
Lafayette, Indiana, United States

Feed Status: UP
Listen in your browser - HTML5 player(in browser, HTML5)
Click here to listen with your own player(launches your MP3 player)

KLAF 232354Z 22005KT 6SM HZ CLR 28/23 A3005 RMK AO2 SLP169 T02830228 10306 20283 56013

KLAF Airport Info (Airnav.com)

KLAF Flight Activity (Flightaware)

Listeners: 0 out of 1552 total

Lafayette Tower: 119.600

KLAL Approach/Departure (Archives)
Lakeland, Florida, United States

Feed Status: UP
Listen in your browser - HTML5 player(in browser, HTML5)
Click here to listen with your own player(launches your MP3 player)

KLAL 232350Z 02005KT 10SM SCT020 BKN030 27/22 A3006

KLAL Airport Info (Airnav.com)

KLAL Flight Activity (Flightaware)

Listeners: 1 out of 1552 total

Tampa Approach (East of TPA 4000'/below): 119.900
Tampa Approach (Lakeland): 120.650

KLAL Arrival ATIS
Lakeland, Florida, United States

Feed Status: DOWN
Offline since: 2021-05-05 10:02:39 UTC

KLAL 232350Z 02005KT 10SM SCT020 BKN030 27/22 A3006

KLAL Airport Info (Airnav.com)

Lakeland Arrival ATIS (Sun 'n Fun): 128.575

KLAL ATIS (Archives)
Lakeland, Florida, United States

Feed Status: UP
Listen in your browser - HTML5 player(in browser, HTML5)
Click here to listen with your own player(launches your MP3 player)

KLAL 232350Z 02005KT 10SM SCT020 BKN030 27/22 A3006

KLAL Airport Info (Airnav.com)

KLAL Flight Activity (Flightaware)

Listeners: 1 out of 1552 total

Lakeland ATIS: 118.025

KLAL Ground/Advisory (Archives)
Lakeland, Florida, United States

Feed Status: UP
Listen in your browser - HTML5 player(in browser, HTML5)
Click here to listen with your own player(launches your MP3 player)

KLAL 232350Z 02005KT 10SM SCT020 BKN030 27/22 A3006

KLAL Airport Info (Airnav.com)

KLAL Flight Activity (Flightaware)

Listeners: 1 out of 1552 total

Lakeland Ground: 121.400
Lakeland Helicopter: 123.025
Lakeland IFR Ground Control: 127.100
Paradise City Advisory: 123.625
Sun 'n Fun Ground Advisory: 126.075
Warbird Parking Advisory: 125.025

KLAL Lake Parker VFR Arrival
Lakeland, Florida, United States

Feed Status: DOWN
Offline since: 2021-04-19 11:16:05 UTC

KLAL 232350Z 02005KT 10SM SCT020 BKN030 27/22 A3006

KLAL Airport Info (Airnav.com)

Lake Parker Arrival (Sun 'n Fun): 124.500

KLAL Tower (Archives)
Lakeland, Florida, United States

Feed Status: UP
Listen in your browser - HTML5 player(in browser, HTML5)
Click here to listen with your own player(launches your MP3 player)

KLAL 232350Z 02005KT 10SM SCT020 BKN030 27/22 A3006

KLAL Airport Info (Airnav.com)

KLAL Flight Activity (Flightaware)

Listeners: 2 out of 1552 total

Lakeland Tower: 124.500

Sun 'n Fun Air Show/Dep/Misc (Archives)
Lakeland, Florida, United States

Feed Status: UP
Listen in your browser - HTML5 player(in browser, HTML5)
Click here to listen with your own player(launches your MP3 player)

KLAL 232350Z 02005KT 10SM SCT020 BKN030 27/22 A3006

KLAL Airport Info (Airnav.com)

KLAL Flight Activity (Flightaware)

Listeners: 1 out of 1552 total

Air Boss: Priv

KLBE Ground/Tower (Archives)
Latrobe, Pennsylvania, United States

Feed Status: UP
Listen in your browser - HTML5 player(in browser, HTML5)
Click here to listen with your own player(launches your MP3 player)

KLBE 232347Z 00000KT 20SM CLR 25/12 A3013

KLBE Airport Info (Airnav.com)

KLBE Flight Activity (Flightaware)

Listeners: 0 out of 1552 total

Latrobe Ground: 121.800
Latrobe Tower: 125.000

KLBX CTAF (Archives)
Angleton/Lake Jackson, Texas, United States

Feed Status: UP
Listen in your browser - HTML5 player(in browser, HTML5)
Click here to listen with your own player(launches your MP3 player)

KLBX 232353Z AUTO 18010KT 10SM CLR 31/24 A3007 RMK AO2 SLP181 T03060244 10333 20306 56014

KLBX Airport Info (Airnav.com)

KLBX Flight Activity (Flightaware)

Listeners: 0 out of 1552 total

KLBX CTAF: 123.000

KLCI AWOS (Archives)
Laconia, New Hampshire, United States

Feed Status: UP
Listen in your browser - HTML5 player(in browser, HTML5)
Click here to listen with your own player(launches your MP3 player)

KLCI 232356Z AUTO 03007KT 10SM FEW060 SCT075 OVC100 19/15 A3011 RMK AO2 LTG DSNT N-E PRESRR SLP195 60010 T01940150 10244 20183 53008

KLCI Airport Info (Airnav.com)

KLCI Flight Activity (Flightaware)

Listeners: 0 out of 1552 total

Laconia AWOS: 133.525

KLCI Clearance Delivery (Archives)
Laconia, New Hampshire, United States

Feed Status: UP
Listen in your browser - HTML5 player(in browser, HTML5)
Click here to listen with your own player(launches your MP3 player)

KLCI 232356Z AUTO 03007KT 10SM FEW060 SCT075 OVC100 19/15 A3011 RMK AO2 LTG DSNT N-E PRESRR SLP195 60010 T01940150 10244 20183 53008

KLCI Airport Info (Airnav.com)

KLCI Flight Activity (Flightaware)

Listeners: 0 out of 1552 total

Laconia Clearance Delivery (Boston Approach): 119.850

KLCI Del/CTAF (Archives)
Laconia, New Hampshire, United States

Feed Status: UP
Listen in your browser - HTML5 player(in browser, HTML5)
Click here to listen with your own player(launches your MP3 player)

KLCI 232356Z AUTO 03007KT 10SM FEW060 SCT075 OVC100 19/15 A3011 RMK AO2 LTG DSNT N-E PRESRR SLP195 60010 T01940150 10244 20183 53008

KLCI Airport Info (Airnav.com)

KLCI Flight Activity (Flightaware)

Listeners: 0 out of 1552 total

Laconia CTAF: 123.000

KLDJ CTAF (Archives)
Linden, New Jersey, United States

Feed Status: UP
Listen in your browser - HTML5 player(in browser, HTML5)
Click here to listen with your own player(launches your MP3 player)

KJRA Airport Info (Airnav.com)

KJRA Flight Activity (Flightaware)

Listeners: 0 out of 1552 total

Linden CTAF: 123.000

KLEE App/Dep (Archives)
Leesburg, Florida, United States

Feed Status: UP
Listen in your browser - HTML5 player(in browser, HTML5)
Click here to listen with your own player(launches your MP3 player)

KLEE 232353Z AUTO 00000KT 10SM -RA BKN110 25/23 A3002 RMK AO2 LTG DSNT SW RAB01 SLP164 P0002 60002 T02500228 10317 20250 58010 $

KLEE Airport Info (Airnav.com)

KLEE Flight Activity (Flightaware)

Listeners: 0 out of 1552 total

Orlando Approach: 135.300
Orlando Approach: 120.225

KLEE ASOS (Archives)
Leesburg, Florida, United States

Feed Status: UP
Listen in your browser - HTML5 player(in browser, HTML5)
Click here to listen with your own player(launches your MP3 player)

KLEE 232353Z AUTO 00000KT 10SM -RA BKN110 25/23 A3002 RMK AO2 LTG DSNT SW RAB01 SLP164 P0002 60002 T02500228 10317 20250 58010 $

KLEE Airport Info (Airnav.com)

KLEE Flight Activity (Flightaware)

Listeners: 0 out of 1552 total

Leesburg ASOS: 134.325

KLEE Ground (Archives)
Leesburg, Florida, United States

Feed Status: UP
Listen in your browser - HTML5 player(in browser, HTML5)
Click here to listen with your own player(launches your MP3 player)

KLEE 232353Z AUTO 00000KT 10SM -RA BKN110 25/23 A3002 RMK AO2 LTG DSNT SW RAB01 SLP164 P0002 60002 T02500228 10317 20250 58010 $

KLEE Airport Info (Airnav.com)

KLEE Flight Activity (Flightaware)

Listeners: 0 out of 1552 total

Leesburg Ground: 121.725

KLEE Tower (Archives)
Leesburg, Florida, United States

Feed Status: UP
Listen in your browser - HTML5 player(in browser, HTML5)
Click here to listen with your own player(launches your MP3 player)

KLEE 232353Z AUTO 00000KT 10SM -RA BKN110 25/23 A3002 RMK AO2 LTG DSNT SW RAB01 SLP164 P0002 60002 T02500228 10317 20250 58010 $

KLEE Airport Info (Airnav.com)

KLEE Flight Activity (Flightaware)

Listeners: 0 out of 1552 total

Leesburg Tower: 119.350

KLFI Del/Gnd/Twr (Archives)
Hampton, Virginia, United States

Feed Status: UP
Listen in your browser - HTML5 player(in browser, HTML5)
Click here to listen with your own player(launches your MP3 player)



KLFI Airport Info (Airnav.com)

KLFI Flight Activity (Flightaware)

Listeners: 0 out of 1552 total

Langley Clearance Delivery: 257.625
Langley Ground: 275.800
Langley Tower: 253.500
Langley Tower: 236.600

KLGB Clearance Delivery (Archives)
Long Beach, California, United States

Feed Status: UP
Listen in your browser - HTML5 player(in browser, HTML5)
Click here to listen with your own player(launches your MP3 player)

KLGB 232353Z 16007KT 10SM CLR 27/17 A2999 RMK AO2 SLP154 T02670167 10272 20228 57015

KLGB Airport Info (Airnav.com)

KLGB Flight Activity (Flightaware)

Listeners: 0 out of 1552 total

Long Beach Clearance Delivery: 118.150

KLGB Ground (Archives)
Long Beach, California, United States

Feed Status: UP
Listen in your browser - HTML5 player(in browser, HTML5)
Click here to listen with your own player(launches your MP3 player)

KLGB 232353Z 16007KT 10SM CLR 27/17 A2999 RMK AO2 SLP154 T02670167 10272 20228 57015

KLGB Airport Info (Airnav.com)

KLGB Flight Activity (Flightaware)

Listeners: 0 out of 1552 total

Long Beach Ground: 133.000

KLGB Tower (Archives)
Long Beach, California, United States

Feed Status: UP
Listen in your browser - HTML5 player(in browser, HTML5)
Click here to listen with your own player(launches your MP3 player)

KLGB 232353Z 16007KT 10SM CLR 27/17 A2999 RMK AO2 SLP154 T02670167 10272 20228 57015

KLGB Airport Info (Airnav.com)

KLGB Flight Activity (Flightaware)

Listeners: 2 out of 1552 total

Long Beach Tower: 119.400

KCTJ/KLGC CTAF (Archives)
LaGrange, Georgia, United States

Feed Status: UP
Listen in your browser - HTML5 player(in browser, HTML5)
Click here to listen with your own player(launches your MP3 player)

KCCO 240015Z AUTO 00000KT 10SM SCT050 SCT055 29/23 A3009 RMK AO2 T02940226

KCCO Airport Info (Airnav.com)

KCCO Flight Activity (Flightaware)

Listeners: 0 out of 1552 total

KCTJ/KLGC CTAF: 122.975

KLGC CTAF (Air Race Classic)
LaGrange, Georgia, United States

Feed Status: DOWN
Offline since: 2020-04-29 17:54:05 UTC

LaGrange CTAF: 122.975

KLHZ CTAF (Archives)
Louisburg, North Carolina, United States

Feed Status: UP
Listen in your browser - HTML5 player(in browser, HTML5)
Click here to listen with your own player(launches your MP3 player)

KLHZ 240015Z AUTO 00000KT 10SM CLR 25/20 A3013 RMK AO2

KLHZ Airport Info (Airnav.com)

KLHZ Flight Activity (Flightaware)

Listeners: 0 out of 1552 total

Louisburg CTAF/UNICOM: 123.000
Louisburg GCO: 135.075
Raleigh Approach (East): 125.300

KFTG/KEIK/KBDU/KLMO/Misc (Archives)
Longmont, Colorado, United States

Feed Status: UP
Listen in your browser - HTML5 player(in browser, HTML5)
Click here to listen with your own player(launches your MP3 player)

KDEN 232353Z 34018G32KT 10SM SCT095 SCT120 BKN170 BKN220 28/13 A3016 RMK AO2 PK WND 36034/2256 SLP127 T02830128 10350 20283 51010

KDEN Airport Info (Airnav.com)

KDEN Flight Activity (Flightaware)

Listeners: 0 out of 1552 total

Air-to-Air Fixed Wing: 122.750
Air-to-Air Informal: 123.450
Boulder CTAF: 122.725
Erie CTAF: 123.000
Front Range Tower: 120.200
KBKF Tower: 121.000
Longmont CTAF: 122.975
MULTICOM: 122.900
UNICOM: 122.950

KLMO CTAF (Archives)
Longmont, Colorado, United States

Feed Status: UP
Listen in your browser - HTML5 player(in browser, HTML5)
Click here to listen with your own player(launches your MP3 player)

KLMO 240015Z AUTO 01004KT 10SM SCT060 SCT070 SCT120 27/13 A3018 RMK AO2 T02650131

KLMO Airport Info (Airnav.com)

KLMO Flight Activity (Flightaware)

Listeners: 0 out of 1552 total

Fort Collins CTAF: 122.700
Longmont CTAF: 122.975

KLNA CTAF (Archives)
West Palm Beach, Florida, United States

Feed Status: UP
Listen in your browser - HTML5 player(in browser, HTML5)
Click here to listen with your own player(launches your MP3 player)

KPBI 232353Z 21005KT 10SM SCT030 BKN160 BKN220 27/23 A3002 RMK AO2 LTG DSNT W TSB16E40 SLP165 CB DSNT W NW 60059 T02670233 10328 20261 56006 $

KPBI Airport Info (Airnav.com)

KPBI Flight Activity (Flightaware)

Listeners: 0 out of 1552 total

Lantana CTAF: 122.700

KLNS Ground/Tower (Archives)
Lancaster, Pennsylvania, United States

Feed Status: UP
Listen in your browser - HTML5 player(in browser, HTML5)
Click here to listen with your own player(launches your MP3 player)

KLNS 232353Z 30004KT 10SM FEW060 24/14 A3010 RMK AO2 SLP192 T02440139 10278 20244 55006

KLNS Airport Info (Airnav.com)

KLNS Flight Activity (Flightaware)

Listeners: 0 out of 1552 total

Lancaster Ground: 121.800
Lancaster Tower: 120.900

KLNS Tower (Archives)
Lancaster, Pennsylvania, United States

Feed Status: UP
Listen in your browser - HTML5 player(in browser, HTML5)
Click here to listen with your own player(launches your MP3 player)

KLNS 232353Z 30004KT 10SM FEW060 24/14 A3010 RMK AO2 SLP192 T02440139 10278 20244 55006

KLNS Airport Info (Airnav.com)

KLNS Flight Activity (Flightaware)

Listeners: 0 out of 1552 total

Lancaster Tower: 120.900

KLOU - Thunder Over Louisville
Louisville, Kentucky, United States

Feed Status: DOWN
Offline since: 2021-04-18 15:00:39 UTC

KLOU 232353Z 12003KT 10SM CLR 29/16 A3009 RMK AO2 SLP183 T02890156 10311 20289 55009

KLOU Airport Info (Airnav.com)

Private:

KLOU ATIS (Archives)
Louisville, Kentucky, United States

Feed Status: UP
Listen in your browser - HTML5 player(in browser, HTML5)
Click here to listen with your own player(launches your MP3 player)

KLOU 232353Z 12003KT 10SM CLR 29/16 A3009 RMK AO2 SLP183 T02890156 10311 20289 55009

KLOU Airport Info (Airnav.com)

KLOU Flight Activity (Flightaware)

Listeners: 0 out of 1552 total

Bowman ATIS: 124.150

KLOU Del/Gnd (Archives)
Louisville, Kentucky, United States

Feed Status: UP
Listen in your browser - HTML5 player(in browser, HTML5)
Click here to listen with your own player(launches your MP3 player)

KLOU 232353Z 12003KT 10SM CLR 29/16 A3009 RMK AO2 SLP183 T02890156 10311 20289 55009

KLOU Airport Info (Airnav.com)

KLOU Flight Activity (Flightaware)

Listeners: 0 out of 1552 total

Bowman Clearance Delivery: 118.900
Bowman Ground: 121.800

KLOU Del/Gnd/Twr (Archives)
Louisville, Kentucky, United States

Feed Status: UP
Listen in your browser - HTML5 player(in browser, HTML5)
Click here to listen with your own player(launches your MP3 player)

KLOU 232353Z 12003KT 10SM CLR 29/16 A3009 RMK AO2 SLP183 T02890156 10311 20289 55009

KLOU Airport Info (Airnav.com)

KLOU Flight Activity (Flightaware)

Listeners: 1 out of 1552 total

Bowman Clearance Delivery: 118.900
Bowman Ground: 121.800
Bowman Tower: 119.500

KLOU Tower (Archives)
Louisville, Kentucky, United States

Feed Status: UP
Listen in your browser - HTML5 player(in browser, HTML5)
Click here to listen with your own player(launches your MP3 player)

KLOU 232353Z 12003KT 10SM CLR 29/16 A3009 RMK AO2 SLP183 T02890156 10311 20289 55009

KLOU Airport Info (Airnav.com)

KLOU Flight Activity (Flightaware)

Listeners: 0 out of 1552 total

Bowman Tower: 119.500

KLRD Ground/Tower (Archives)
Laredo, Texas, United States

Feed Status: UP
Listen in your browser - HTML5 player(in browser, HTML5)
Click here to listen with your own player(launches your MP3 player)

KLRD 232356Z 14018KT 10SM CLR 36/21 A2996 RMK AO2 SLP140 T03610206 10383 20333 56012

KLRD Airport Info (Airnav.com)

KLRD Flight Activity (Flightaware)

Listeners: 0 out of 1552 total

Laredo Ground: 121.800
Laredo Tower: 120.100
Laredo UNICOM: 122.950

KLUF App/Dep (Archives)
Glendale, Arizona, United States

Feed Status: UP
Listen in your browser - HTML5 player(in browser, HTML5)
Click here to listen with your own player(launches your MP3 player)

KPHX 232351Z 01006KT 10SM -RA FEW010 FEW046 BKN070 BKN130 BKN190 OVC250 24/22 A3004 RMK AO2 SLP158 P0003 60047 T02390217 10244 20228 58009

KPHX Airport Info (Airnav.com)

KPHX Flight Activity (Flightaware)

Listeners: 0 out of 1552 total

Luke Approach/Departure: 118.150
Luke Approach/Departure: 125.450
Luke Approach/Departure: 263.125
Luke Approach/Departure: 363.125
Luke Arrival: 120.500

KLUF Del/Gnd/Twr/Misc (Archives)
Glendale, Arizona, United States

Feed Status: UP
Listen in your browser - HTML5 player(in browser, HTML5)
Click here to listen with your own player(launches your MP3 player)

KPHX 232351Z 01006KT 10SM -RA FEW010 FEW046 BKN070 BKN130 BKN190 OVC250 24/22 A3004 RMK AO2 SLP158 P0003 60047 T02390217 10244 20228 58009

KPHX Airport Info (Airnav.com)

KPHX Flight Activity (Flightaware)

Listeners: 0 out of 1552 total

Command Post (Raymond-18) : 349.400
Emergency/Guard: 243.000
In-Flight Emergencies: 291.100
Luke Clearance Delivery: 126.250
Luke Clearance Delivery: 273.475
Luke Ground: 335.800
Luke Ground: 133.175
Luke Tower: 119.100
Luke Tower: 379.900
PMSV - Metro/Weather: 267.400
PTD: 372.200
SOF: 369.000
SOF: 149.400

KLUK Twr/App/Dep (Archives)
Cincinnati, Ohio, United States

Feed Status: UP
Listen in your browser - HTML5 player(in browser, HTML5)
Click here to listen with your own player(launches your MP3 player)

KLUK 232353Z 16003KT 10SM CLR 26/19 A3010 RMK AO2 SLP191 T02610194 10294 20261 56009

KLUK Airport Info (Airnav.com)

KLUK Flight Activity (Flightaware)

Listeners: 1 out of 1552 total

Cincinnati Approach: 121.000
Cincinnati Departure: 128.700
Lunken Tower: 118.700

KLVJ CTAF (Archives)
Houston, Texas, United States

Feed Status: UP
Listen in your browser - HTML5 player(in browser, HTML5)
Click here to listen with your own player(launches your MP3 player)

KLVJ 232353Z AUTO 19008KT 10SM CLR 33/23 A3006 RMK AO2 SLP180 T03280233 10344 20328 56014

KLVJ Airport Info (Airnav.com)

KLVJ Flight Activity (Flightaware)

Listeners: 0 out of 1552 total

Pearland CTAF: 122.725

KLWM Ground/Tower (Archives)
Lawrence, Massachusetts, United States

Feed Status: UP
Listen in your browser - HTML5 player(in browser, HTML5)
Click here to listen with your own player(launches your MP3 player)

KLWM 232354Z 00000KT 10SM SCT120 21/16 A3010 RMK AO2 SLP191 60000 T02060156 10267 20206 51012

KLWM Airport Info (Airnav.com)

KLWM Flight Activity (Flightaware)

Listeners: 0 out of 1552 total

Eagle East Jet Service: 122.850
Emergency/Guard: 121.500
Four Star Aviation Jet Center: 123.300
Lawrence Clearance (after hours, Boston Approach): 126.150
Lawrence Ground: 124.300
Lawrence Tower: 119.250
Northeast Executive Jet: 130.600

KLWS Ground/Tower (Archives)
Lewiston, Idaho, United States

Feed Status: UP
Listen in your browser - HTML5 player(in browser, HTML5)
Click here to listen with your own player(launches your MP3 player)

KLWS 232356Z 32008KT 10SM CLR 33/M03 A3010 RMK AO2 SLP182 T03281028 10333 20256 58015

KLWS Airport Info (Airnav.com)

KLWS Flight Activity (Flightaware)

Listeners: 0 out of 1552 total

Lewiston Ground: 121.900
Lewiston Tower: 119.400

KLXT CTAF (Air Race Classic)
Lee's Summit, Missouri, United States

Feed Status: DOWN
Offline since: 2019-06-27 20:24:02 UTC

Lee's Summit CTAF: 122.800

KLXT/3GV CTAF
Lee's Summit, Missouri, United States

Feed Status: DOWN
Offline since: 2021-07-04 15:34:05 UTC

KOJC 232353Z 19007KT 10SM CLR 31/21 A3001 RMK AO2 SLP149 T03110211 10328 20306 58013

KOJC Airport Info (Airnav.com)

Lee's Summit/Grain Valley CTAF: 122.800

KLXT/KMKC Area Helicopters
Lee's Summit, Missouri, United States

Feed Status: DOWN
Offline since: 2021-07-04 15:34:05 UTC

KOJC 232353Z 19007KT 10SM CLR 31/21 A3001 RMK AO2 SLP149 T03110211 10328 20306 58013

KOJC Airport Info (Airnav.com)

Helicopter Air to Air: 123.025

KLXV CTAF (Archives)
Leadville, Colorado, United States

Feed Status: UP
Listen in your browser - HTML5 player(in browser, HTML5)
Click here to listen with your own player(launches your MP3 player)

KLXV 240006Z AUTO 00000KT 10SM -RA OVC100 12/11 A3053 RMK AO2 LTG DSNT E-S RAB2354 TSE00 P0000 T01170111

KLXV Airport Info (Airnav.com)

KLXV Flight Activity (Flightaware)

Listeners: 0 out of 1552 total

Leadville CTAF: 122.800

KLYH Ground (Archives)
Lynchburg, Virginia, United States

Feed Status: UP
Listen in your browser - HTML5 player(in browser, HTML5)
Click here to listen with your own player(launches your MP3 player)

KLYH 232354Z 00000KT 10SM CLR 27/18 A3011 RMK AO2 SLP185 T02720183 10317 20272 55004

KLYH Airport Info (Airnav.com)

KLYH Flight Activity (Flightaware)

Listeners: 0 out of 1552 total

Lynchburg Ground: 121.900

KLYH Roanoke Approach (Archives)
Lynchburg, Virginia, United States

Feed Status: UP
Listen in your browser - HTML5 player(in browser, HTML5)
Click here to listen with your own player(launches your MP3 player)

KLYH 232354Z 00000KT 10SM CLR 27/18 A3011 RMK AO2 SLP185 T02720183 10317 20272 55004

KLYH Airport Info (Airnav.com)

KLYH Flight Activity (Flightaware)

Listeners: 0 out of 1552 total

Roanoke Approach: 135.000

KLYH Tower (Archives)
Lynchburg, Virginia, United States

Feed Status: UP
Listen in your browser - HTML5 player(in browser, HTML5)
Click here to listen with your own player(launches your MP3 player)

KLYH 232354Z 00000KT 10SM CLR 27/18 A3011 RMK AO2 SLP185 T02720183 10317 20272 55004

KLYH Airport Info (Airnav.com)

KLYH Flight Activity (Flightaware)

Listeners: 1 out of 1552 total

Lynchburg Tower: 127.650

Atlanta App/Dep (SAT-P) (Archives)
Lawrenceville, Georgia, United States

Feed Status: UP
Listen in your browser - HTML5 player(in browser, HTML5)
Click here to listen with your own player(launches your MP3 player)

KLZU 240022Z 00000KT 10SM FEW042 SCT070 26/22 A3010 RMK AO2 LTG DSNT W TSE16

KLZU Airport Info (Airnav.com)

KLZU Flight Activity (Flightaware)

Listeners: 0 out of 1552 total

Atlanta Approach/Departure (SAT-P): 126.975

KLZU Tower (Archives)
Lawrenceville, Georgia, United States

Feed Status: UP
Listen in your browser - HTML5 player(in browser, HTML5)
Click here to listen with your own player(launches your MP3 player)

KLZU 240022Z 00000KT 10SM FEW042 SCT070 26/22 A3010 RMK AO2 LTG DSNT W TSE16

KLZU Airport Info (Airnav.com)

KLZU Flight Activity (Flightaware)

Listeners: 0 out of 1552 total

Gwinnett Tower: 124.100

KMAN/KEUL CTAF (Archives)
Nampa, Idaho, United States

Feed Status: UP
Listen in your browser - HTML5 player(in browser, HTML5)
Click here to listen with your own player(launches your MP3 player)

KMAN 240015Z AUTO VRB05G12KT 10SM 34/M00 A3005 RMK A01

KMAN Airport Info (Airnav.com)

KMAN Flight Activity (Flightaware)

Listeners: 0 out of 1552 total

Nampa/Caldwell CTAF/UNICOM: 122.700

KMCC CTAF/Del/Gnd/Twr (Archives)
Sacramento, California, United States

Feed Status: UP
Listen in your browser - HTML5 player(in browser, HTML5)
Click here to listen with your own player(launches your MP3 player)

KMCC 240015Z AUTO 24008KT 10SM CLR 38/03 A2988 RMK AO2

KMCC Airport Info (Airnav.com)

KMCC Flight Activity (Flightaware)

Listeners: 2 out of 1552 total

McClellan Clearance Delivery: 119.825
McClellan CTAF: 122.975
McClellan Ground (temp): 118.650
McClellan Tower (temp): 135.900

KMCO App/Dep (North Satellite) (Archives)
Orlando, Florida, United States

Feed Status: UP
Listen in your browser - HTML5 player(in browser, HTML5)
Click here to listen with your own player(launches your MP3 player)

KORL 232353Z 00000KT 10SM FEW055 FEW075 SCT100 25/23 A3003 RMK AO2 RAE38 TSE2256 PRESRR SLP170 P0002 60008 T02500233 10339 20250 58000

KORL Airport Info (Airnav.com)

KORL Flight Activity (Flightaware)

Listeners: 0 out of 1552 total

Orlando Approach (North Satellite): 135.300

KMDD ASOS (Archives)
Midland, Texas, United States

Feed Status: UP
Listen in your browser - HTML5 player(in browser, HTML5)
Click here to listen with your own player(launches your MP3 player)

KMAF 232353Z 19016KT 10SM SCT120 34/14 A2999 RMK AO2 RAB2258E09 SLP104 P0000 60000 T03440139 10356 20311 56016 $

KMAF Airport Info (Airnav.com)

KMAF Flight Activity (Flightaware)

Listeners: 0 out of 1552 total

Midland Airpark ASOS: 118.125

KMDD Clearance Delivery (Archives)
Midland, Texas, United States

Feed Status: UP
Listen in your browser - HTML5 player(in browser, HTML5)
Click here to listen with your own player(launches your MP3 player)

KMAF 232353Z 19016KT 10SM SCT120 34/14 A2999 RMK AO2 RAB2258E09 SLP104 P0000 60000 T03440139 10356 20311 56016 $

KMAF Airport Info (Airnav.com)

KMAF Flight Activity (Flightaware)

Listeners: 0 out of 1552 total

Midland Airpark Clearance Delivery: 121.800

KMDD CTAF (Archives)
Midland, Texas, United States

Feed Status: UP
Listen in your browser - HTML5 player(in browser, HTML5)
Click here to listen with your own player(launches your MP3 player)

KMAF 232353Z 19016KT 10SM SCT120 34/14 A2999 RMK AO2 RAB2258E09 SLP104 P0000 60000 T03440139 10356 20311 56016 $

KMAF Airport Info (Airnav.com)

KMAF Flight Activity (Flightaware)

Listeners: 0 out of 1552 total

Midland Airpark CTAF: 122.700

KMDH Ground/Tower (Archives)
Carbondale/Murphysboro, Illinois, United States

Feed Status: UP
Listen in your browser - HTML5 player(in browser, HTML5)
Click here to listen with your own player(launches your MP3 player)

KMDH 232352Z 12003KT 5SM HZ CLR 29/24 A3006 RMK AO2 SLP174 T02890239 10317 20289 56007

KMDH Airport Info (Airnav.com)

KMDH Flight Activity (Flightaware)

Listeners: 0 out of 1552 total

Carbondale Ground: 121.800
Carbondale Tower: 126.250
Carbondale Tower: 125.350

KMDQ CTAF
Huntsville, Alabama, United States

Feed Status: DOWN
Offline since: 2021-05-03 17:19:05 UTC

Huntsville Executive CTAF: 123.000

KMDT App/Dep (East) (Archives)
Harrisburg, Pennsylvania, United States

Feed Status: UP
Listen in your browser - HTML5 player(in browser, HTML5)
Click here to listen with your own player(launches your MP3 player)

KMDT 232356Z 24004KT 10SM FEW060 25/17 A3009 RMK AO2 SLP189 T02500167 10283 20250 56008

KMDT Airport Info (Airnav.com)

KMDT Flight Activity (Flightaware)

Listeners: 0 out of 1552 total

Harrisburg App/Dep (East): 126.450

KMDT App/Dep (East/West) (Archives)
Harrisburg, Pennsylvania, United States

Feed Status: UP
Listen in your browser - HTML5 player(in browser, HTML5)
Click here to listen with your own player(launches your MP3 player)

KMDT 232356Z 24004KT 10SM FEW060 25/17 A3009 RMK AO2 SLP189 T02500167 10283 20250 56008

KMDT Airport Info (Airnav.com)

KMDT Flight Activity (Flightaware)

Listeners: 0 out of 1552 total

Harrisburg App/Dep (East): 126.450
Harrisburg App/Dep (North): 118.250
Harrisburg App/Dep (West): 124.100

KMDT App/Dep (North) (Archives)
Harrisburg, Pennsylvania, United States

Feed Status: UP
Listen in your browser - HTML5 player(in browser, HTML5)
Click here to listen with your own player(launches your MP3 player)

KMDT 232356Z 24004KT 10SM FEW060 25/17 A3009 RMK AO2 SLP189 T02500167 10283 20250 56008

KMDT Airport Info (Airnav.com)

KMDT Flight Activity (Flightaware)

Listeners: 0 out of 1552 total

Harrisburg App/Dep (North): 118.250

KMDT App/Dep (West) (Archives)
Harrisburg, Pennsylvania, United States

Feed Status: UP
Listen in your browser - HTML5 player(in browser, HTML5)
Click here to listen with your own player(launches your MP3 player)

KMDT 232356Z 24004KT 10SM FEW060 25/17 A3009 RMK AO2 SLP189 T02500167 10283 20250 56008

KMDT Airport Info (Airnav.com)

KMDT Flight Activity (Flightaware)

Listeners: 0 out of 1552 total

Harrisburg App/Dep (West): 124.100

KMDT ATIS (Archives)
Harrisburg, Pennsylvania, United States

Feed Status: UP
Listen in your browser - HTML5 player(in browser, HTML5)
Click here to listen with your own player(launches your MP3 player)

KMDT 232356Z 24004KT 10SM FEW060 25/17 A3009 RMK AO2 SLP189 T02500167 10283 20250 56008

KMDT Airport Info (Airnav.com)

KMDT Flight Activity (Flightaware)

Listeners: 0 out of 1552 total

Harrisburg ATIS: 118.800

KMDT Emergency/Ground (Archives)
Harrisburg, Pennsylvania, United States

Feed Status: UP
Listen in your browser - HTML5 player(in browser, HTML5)
Click here to listen with your own player(launches your MP3 player)

KMDT 232356Z 24004KT 10SM FEW060 25/17 A3009 RMK AO2 SLP189 T02500167 10283 20250 56008

KMDT Airport Info (Airnav.com)

KMDT Flight Activity (Flightaware)

Listeners: 0 out of 1552 total

Emergency/Guard: 121.500

KMDT Ground (Archives)
Harrisburg, Pennsylvania, United States

Feed Status: UP
Listen in your browser - HTML5 player(in browser, HTML5)
Click here to listen with your own player(launches your MP3 player)

KMDT 232356Z 24004KT 10SM FEW060 25/17 A3009 RMK AO2 SLP189 T02500167 10283 20250 56008

KMDT Airport Info (Airnav.com)

KMDT Flight Activity (Flightaware)

Listeners: 0 out of 1552 total

Harrisburg Ground: 121.700

KMDT Tower (Archives)
Harrisburg, Pennsylvania, United States

Feed Status: UP
Listen in your browser - HTML5 player(in browser, HTML5)
Click here to listen with your own player(launches your MP3 player)

KMDT 232356Z 24004KT 10SM FEW060 25/17 A3009 RMK AO2 SLP189 T02500167 10283 20250 56008

KMDT Airport Info (Airnav.com)

KMDT Flight Activity (Flightaware)

Listeners: 0 out of 1552 total

Harrisburg Tower: 124.800

KMEV CTAF/Unicom (Archives)
Minden, Nevada, United States

Feed Status: UP
Listen in your browser - HTML5 player(in browser, HTML5)
Click here to listen with your own player(launches your MP3 player)

KMEV 240015Z AUTO 27015G20KT 10SM CLR 35/04 A3012 RMK AO2

KMEV Airport Info (Airnav.com)

KMEV Flight Activity (Flightaware)

Listeners: 0 out of 1552 total

Minden CTAF/UNICOM: 123.050

KMFD ATIS (Archives)
Mansfield, Ohio, United States

Feed Status: UP
Listen in your browser - HTML5 player(in browser, HTML5)
Click here to listen with your own player(launches your MP3 player)

KMFD 232352Z 18007KT 10SM FEW033 25/17 A3014 RMK AO2 SLP198 T02500172 10267 20239 56007

KMFD Airport Info (Airnav.com)

KMFD Flight Activity (Flightaware)

Listeners: 0 out of 1552 total

Mansfield ATIS: 125.300

KMFE App/Dep (Archives)
Mc Allen, Texas, United States

Feed Status: UP
Listen in your browser - HTML5 player(in browser, HTML5)
Click here to listen with your own player(launches your MP3 player)

KMFE 232353Z 14018G27KT 10SM CLR 32/24 A3000 RMK AO2 PK WND 14027/2348 SLP156 T03170239 10344 20317 58017

KMFE Airport Info (Airnav.com)

KMFE Flight Activity (Flightaware)

Listeners: 0 out of 1552 total

Valley Approach: 121.000
Valley Departure: 120.700

KMFE Gnd/Twr (Archives)
Mc Allen, Texas, United States

Feed Status: UP
Listen in your browser - HTML5 player(in browser, HTML5)
Click here to listen with your own player(launches your MP3 player)

KMFE 232353Z 14018G27KT 10SM CLR 32/24 A3000 RMK AO2 PK WND 14027/2348 SLP156 T03170239 10344 20317 58017

KMFE Airport Info (Airnav.com)

KMFE Flight Activity (Flightaware)

Listeners: 0 out of 1552 total

Mc Allen Ground: 121.800
Mc Allen Tower: 118.500
San Angelo Radio: 122.200

KMFR App/Dep (Archives)
Medford, Oregon, United States

Feed Status: UP
Listen in your browser - HTML5 player(in browser, HTML5)
Click here to listen with your own player(launches your MP3 player)

KMFR 232353Z VRB03KT 10SM CLR 36/05 A3001 RMK AO2 SLP150 T03560050 10356 20239 58028

KMFR Airport Info (Airnav.com)

KMFR Flight Activity (Flightaware)

Listeners: 0 out of 1552 total

Cascade Approach/Departure: 124.300

KMFR Emergency/Guard (Archives)
Medford, Oregon, United States

Feed Status: UP
Listen in your browser - HTML5 player(in browser, HTML5)
Click here to listen with your own player(launches your MP3 player)

KMFR 232353Z VRB03KT 10SM CLR 36/05 A3001 RMK AO2 SLP150 T03560050 10356 20239 58028

KMFR Airport Info (Airnav.com)

KMFR Flight Activity (Flightaware)

Listeners: 0 out of 1552 total

Emergency/Guard: 121.500

KMFR Ground (Archives)
Medford, Oregon, United States

Feed Status: UP
Listen in your browser - HTML5 player(in browser, HTML5)
Click here to listen with your own player(launches your MP3 player)

KMFR 232353Z VRB03KT 10SM CLR 36/05 A3001 RMK AO2 SLP150 T03560050 10356 20239 58028

KMFR Airport Info (Airnav.com)

KMFR Flight Activity (Flightaware)

Listeners: 0 out of 1552 total

Medford Ground: 121.800

KMFR Ground/Tower (Archives)
Medford, Oregon, United States

Feed Status: UP
Listen in your browser - HTML5 player(in browser, HTML5)
Click here to listen with your own player(launches your MP3 player)

KMFR 232353Z VRB03KT 10SM CLR 36/05 A3001 RMK AO2 SLP150 T03560050 10356 20239 58028

KMFR Airport Info (Airnav.com)

KMFR Flight Activity (Flightaware)

Listeners: 1 out of 1552 total

Medford Ground: 121.800
Medford Tower: 119.400

Atlanta Approach (N. Sat) (Archives)
Marietta, Georgia, United States

Feed Status: UP
Listen in your browser - HTML5 player(in browser, HTML5)
Click here to listen with your own player(launches your MP3 player)

KRYY 232350Z 00000KT 10SM CLR 28/22 A3009 RMK AO2 LTG DSNT E SLP178 6//// T02780222 10322 20278 53001 PNO $

KRYY Airport Info (Airnav.com)

KRYY Flight Activity (Flightaware)

Listeners: 0 out of 1552 total

Atlanta Approach (North Satellite): 121.000

KMGE Ground (Archives)
Marietta, Georgia, United States

Feed Status: UP
Listen in your browser - HTML5 player(in browser, HTML5)
Click here to listen with your own player(launches your MP3 player)

KRYY 232350Z 00000KT 10SM CLR 28/22 A3009 RMK AO2 LTG DSNT E SLP178 6//// T02780222 10322 20278 53001 PNO $

KRYY Airport Info (Airnav.com)

KRYY Flight Activity (Flightaware)

Listeners: 0 out of 1552 total

Dobbins Ground: 125.300

KMGE Tower (Archives)
Marietta, Georgia, United States

Feed Status: UP
Listen in your browser - HTML5 player(in browser, HTML5)
Click here to listen with your own player(launches your MP3 player)

KRYY 232350Z 00000KT 10SM CLR 28/22 A3009 RMK AO2 LTG DSNT E SLP178 6//// T02780222 10322 20278 53001 PNO $

KRYY Airport Info (Airnav.com)

KRYY Flight Activity (Flightaware)

Listeners: 0 out of 1552 total

Dobbins Tower: 120.750

KMGW ASOS (Archives)
Morgantown, West Virginia, United States

Feed Status: UP
Listen in your browser - HTML5 player(in browser, HTML5)
Click here to listen with your own player(launches your MP3 player)

KMGW 232353Z 00000KT 10SM CLR 24/15 A3014 RMK AO2 SLP200 T02440150 10278 20244 55010

KMGW Airport Info (Airnav.com)

KMGW Flight Activity (Flightaware)

Listeners: 0 out of 1552 total

Morgantown ASOS Weather: 120.675

KMGW Ground (Archives)
Morgantown, West Virginia, United States

Feed Status: UP
Listen in your browser - HTML5 player(in browser, HTML5)
Click here to listen with your own player(launches your MP3 player)

KMGW 232353Z 00000KT 10SM CLR 24/15 A3014 RMK AO2 SLP200 T02440150 10278 20244 55010

KMGW Airport Info (Airnav.com)

KMGW Flight Activity (Flightaware)

Listeners: 0 out of 1552 total

Morgantown Ground: 121.700

KMGW Tower (Archives)
Morgantown, West Virginia, United States

Feed Status: UP
Listen in your browser - HTML5 player(in browser, HTML5)
Click here to listen with your own player(launches your MP3 player)

KMGW 232353Z 00000KT 10SM CLR 24/15 A3014 RMK AO2 SLP200 T02440150 10278 20244 55010

KMGW Airport Info (Airnav.com)

KMGW Flight Activity (Flightaware)

Listeners: 0 out of 1552 total

Morgantown Tower: 125.100

KMGY Air to Air (Archives)
Dayton, Ohio, United States

Feed Status: UP
Listen in your browser - HTML5 player(in browser, HTML5)
Click here to listen with your own player(launches your MP3 player)



KMGY Airport Info (Airnav.com)

KMGY Flight Activity (Flightaware)

Listeners: 0 out of 1552 total

Air to Air: 123.450

KMGY App/Dep (Archives)
Dayton, Ohio, United States

Feed Status: UP
Listen in your browser - HTML5 player(in browser, HTML5)
Click here to listen with your own player(launches your MP3 player)



KMGY Airport Info (Airnav.com)

KMGY Flight Activity (Flightaware)

Listeners: 0 out of 1552 total

Dayton Approach/Departure: 118.850

KMGY AWOS (Archives)
Dayton, Ohio, United States

Feed Status: UP
Listen in your browser - HTML5 player(in browser, HTML5)
Click here to listen with your own player(launches your MP3 player)



KMGY Airport Info (Airnav.com)

KMGY Flight Activity (Flightaware)

Listeners: 0 out of 1552 total

Dayton-Wright Brothers AWOS: 118.375

KMGY Clearance Delivery (Archives)
Dayton, Ohio, United States

Feed Status: UP
Listen in your browser - HTML5 player(in browser, HTML5)
Click here to listen with your own player(launches your MP3 player)



KMGY Airport Info (Airnav.com)

KMGY Flight Activity (Flightaware)

Listeners: 0 out of 1552 total

Dayton Clearance Delivery (KMGY): 119.400

KMGY CTAF (Archives)
Dayton, Ohio, United States

Feed Status: UP
Listen in your browser - HTML5 player(in browser, HTML5)
Click here to listen with your own player(launches your MP3 player)



KMGY Airport Info (Airnav.com)

KMGY Flight Activity (Flightaware)

Listeners: 0 out of 1552 total

Dayton-Wright Brothers CTAF: 122.800

KMGY Emergency/Guard (Archives)
Dayton, Ohio, United States

Feed Status: UP
Listen in your browser - HTML5 player(in browser, HTML5)
Click here to listen with your own player(launches your MP3 player)



KMGY Airport Info (Airnav.com)

KMGY Flight Activity (Flightaware)

Listeners: 0 out of 1552 total

Emergency/Guard: 121.500

KMHR Ground/Tower (Archives)
Sacramento, California, United States

Feed Status: UP
Listen in your browser - HTML5 player(in browser, HTML5)
Click here to listen with your own player(launches your MP3 player)

KMHR 232345Z 22009KT 10SM SKC 38/03 A2988

KMHR Airport Info (Airnav.com)

KMHR Flight Activity (Flightaware)

Listeners: 0 out of 1552 total

Mather Ground: 121.850
Mather Tower: 120.650

NORCAL App (EXPO/127.4) (Archives)
Sacramento, California, United States

Feed Status: UP
Listen in your browser - HTML5 player(in browser, HTML5)
Click here to listen with your own player(launches your MP3 player)

KMHR 232345Z 22009KT 10SM SKC 38/03 A2988

KMHR Airport Info (Airnav.com)

KMHR Flight Activity (Flightaware)

Listeners: 2 out of 1552 total

NORCAL Approach (EXPO Sector): 127.400

KMHV App/Dep (133.65) (Archives)
Mojave, California, United States

Feed Status: UP
Listen in your browser - HTML5 player(in browser, HTML5)
Click here to listen with your own player(launches your MP3 player)

KMHV 240000Z AUTO 22018KT 10SM CLR 36/M01 A3003 RMK A01

KMHV Airport Info (Airnav.com)

KMHV Flight Activity (Flightaware)

Listeners: 0 out of 1552 total

Joshua Approach/Departure (MHV/VHF): 133.650

KMHV App/Dep (All) (Archives)
Mojave, California, United States

Feed Status: UP
Listen in your browser - HTML5 player(in browser, HTML5)
Click here to listen with your own player(launches your MP3 player)

KMHV 240000Z AUTO 22018KT 10SM CLR 36/M01 A3003 RMK A01

KMHV Airport Info (Airnav.com)

KMHV Flight Activity (Flightaware)

Listeners: 0 out of 1552 total

Joshua Approach (Antelope/UHF): 363.000
Joshua Approach (Antelope/VHF): 124.550
Joshua Approach (MHV area/UHF): 348.700
Joshua Approach (MHV area/VHF): 133.650
Joshua Approach (Palmdale/UHF): 290.300
Joshua Approach (Palmdale/VHF): 126.100

KMHV AWOS (Archives)
Mojave, California, United States

Feed Status: UP
Listen in your browser - HTML5 player(in browser, HTML5)
Click here to listen with your own player(launches your MP3 player)

KMHV 240000Z AUTO 22018KT 10SM CLR 36/M01 A3003 RMK A01

KMHV Airport Info (Airnav.com)

KMHV Flight Activity (Flightaware)

Listeners: 0 out of 1552 total

Mojave AWOS: 132.225

KMHV Ground/Tower (Archives)
Mojave, California, United States

Feed Status: UP
Listen in your browser - HTML5 player(in browser, HTML5)
Click here to listen with your own player(launches your MP3 player)

KMHV 240000Z AUTO 22018KT 10SM CLR 36/M01 A3003 RMK A01

KMHV Airport Info (Airnav.com)

KMHV Flight Activity (Flightaware)

Listeners: 0 out of 1552 total

Mojave Ground: 123.900
Mojave Tower/CTAF: 127.600
Mojave Tower/CTAF: 288.350

KMIC Tower/CTAF (Archives)
Minneapolis, Minnesota, United States

Feed Status: UP
Listen in your browser - HTML5 player(in browser, HTML5)
Click here to listen with your own player(launches your MP3 player)

KMIC 232353Z 21011KT 10SM CLR 32/23 A2983 RMK AO2 SLP095 T03170228 10339 20317 58009

KMIC Airport Info (Airnav.com)

KMIC Flight Activity (Flightaware)

Listeners: 0 out of 1552 total

Crystal Tower/CTAF: 120.700

KBLM/N12/3N6/KMJX (Archives)
Toms River, New Jersey, United States

Feed Status: UP
Listen in your browser - HTML5 player(in browser, HTML5)
Click here to listen with your own player(launches your MP3 player)

KBLM 232356Z AUTO 15005KT 10SM SCT075 BKN100 24/16 A3010 RMK AO2 SLP191 6//// T02390156 10289 20239 55002 PNO $

KBLM Airport Info (Airnav.com)

KBLM Flight Activity (Flightaware)

Listeners: 0 out of 1552 total

3N6 Old Bridge CTAF: 123.075
Emergency/Guard: 121.500
Monmouth Clearance: 120.950
Monmouth Clearance: 126.150
Monmouth CTAF: 123.000
N12 Lakewood CTAF: 122.800
Ocean County KMJX CTAF: 122.700

KMJX CTAF (Archives)
Toms River, New Jersey, United States

Feed Status: UP
Listen in your browser - HTML5 player(in browser, HTML5)
Click here to listen with your own player(launches your MP3 player)



KMJX Airport Info (Airnav.com)

KMJX Flight Activity (Flightaware)

Listeners: 0 out of 1552 total

Toms River CTAF: 122.700

KLXT/KMKC Area Helicopters
Kansas City, Missouri, United States

Feed Status: DOWN
Offline since: 2021-07-04 15:34:05 UTC

KOJC 232353Z 19007KT 10SM CLR 31/21 A3001 RMK AO2 SLP149 T03110211 10328 20306 58013

KOJC Airport Info (Airnav.com)

Helicopter Air to Air: 123.025

KMKC ATIS (Archives)
Kansas City, Missouri, United States

Feed Status: UP
Listen in your browser - HTML5 player(in browser, HTML5)
Click here to listen with your own player(launches your MP3 player)

KMKC 232354Z 20012KT 10SM CLR 32/20 A2998 RMK AO2 SLP143 T03220200 10339 20317 58014 $

KMKC Airport Info (Airnav.com)

KMKC Flight Activity (Flightaware)

Listeners: 0 out of 1552 total

Downtown ATIS: 120.750

KMKC Ground (Archives)
Kansas City, Missouri, United States

Feed Status: UP
Listen in your browser - HTML5 player(in browser, HTML5)
Click here to listen with your own player(launches your MP3 player)

KMKC 232354Z 20012KT 10SM CLR 32/20 A2998 RMK AO2 SLP143 T03220200 10339 20317 58014 $

KMKC Airport Info (Airnav.com)

KMKC Flight Activity (Flightaware)

Listeners: 0 out of 1552 total

Downtown Ground: 121.900

KMKC Tower (Archives)
Kansas City, Missouri, United States

Feed Status: UP
Listen in your browser - HTML5 player(in browser, HTML5)
Click here to listen with your own player(launches your MP3 player)

KMKC 232354Z 20012KT 10SM CLR 32/20 A2998 RMK AO2 SLP143 T03220200 10339 20317 58014 $

KMKC Airport Info (Airnav.com)

KMKC Flight Activity (Flightaware)

Listeners: 0 out of 1552 total

Downtown Tower: 133.300

KMKG App/Dep (North) (Archives)
Muskegon, Michigan, United States

Feed Status: UP
Listen in your browser - HTML5 player(in browser, HTML5)
Click here to listen with your own player(launches your MP3 player)

KMKG 232355Z 19007KT 6SM HZ FEW150 BKN200 27/21 A3002 RMK AO2 SLP162 T02670206 10283 20261 56014

KMKG Airport Info (Airnav.com)

KMKG Flight Activity (Flightaware)

Listeners: 0 out of 1552 total

Muskegon Approach/Departure (North): 119.800

KMKG App/Dep (North/South) (Archives)
Muskegon, Michigan, United States

Feed Status: UP
Listen in your browser - HTML5 player(in browser, HTML5)
Click here to listen with your own player(launches your MP3 player)

KMKG 232355Z 19007KT 6SM HZ FEW150 BKN200 27/21 A3002 RMK AO2 SLP162 T02670206 10283 20261 56014

KMKG Airport Info (Airnav.com)

KMKG Flight Activity (Flightaware)

Listeners: 0 out of 1552 total

Muskegon Approach/Departure (North): 119.800
Muskegon Approach/Departure (South): 133.825

KMKG App/Dep (North/South) (Archives)
Muskegon, Michigan, United States

Feed Status: UP
Listen in your browser - HTML5 player(in browser, HTML5)
Click here to listen with your own player(launches your MP3 player)

KMKG 232355Z 19007KT 6SM HZ FEW150 BKN200 27/21 A3002 RMK AO2 SLP162 T02670206 10283 20261 56014

KMKG Airport Info (Airnav.com)

KMKG Flight Activity (Flightaware)

Listeners: 0 out of 1552 total

Muskegon Approach/Departure (North): 119.800
Muskegon Approach/Departure (South): 133.825

KMKG App/Dep (South) (Archives)
Muskegon, Michigan, United States

Feed Status: UP
Listen in your browser - HTML5 player(in browser, HTML5)
Click here to listen with your own player(launches your MP3 player)

KMKG 232355Z 19007KT 6SM HZ FEW150 BKN200 27/21 A3002 RMK AO2 SLP162 T02670206 10283 20261 56014

KMKG Airport Info (Airnav.com)

KMKG Flight Activity (Flightaware)

Listeners: 0 out of 1552 total

Muskegon Approach/Departure (South): 133.825

KMKG ATIS (Archives)
Muskegon, Michigan, United States

Feed Status: UP
Listen in your browser - HTML5 player(in browser, HTML5)
Click here to listen with your own player(launches your MP3 player)

KMKG 232355Z 19007KT 6SM HZ FEW150 BKN200 27/21 A3002 RMK AO2 SLP162 T02670206 10283 20261 56014

KMKG Airport Info (Airnav.com)

KMKG Flight Activity (Flightaware)

Listeners: 0 out of 1552 total

Muskegon ATIS: 124.300

KMKG Emergency/Guard (Archives)
Muskegon, Michigan, United States

Feed Status: UP
Listen in your browser - HTML5 player(in browser, HTML5)
Click here to listen with your own player(launches your MP3 player)

KMKG 232355Z 19007KT 6SM HZ FEW150 BKN200 27/21 A3002 RMK AO2 SLP162 T02670206 10283 20261 56014

KMKG Airport Info (Airnav.com)

KMKG Flight Activity (Flightaware)

Listeners: 0 out of 1552 total

Emergency/Guard: 121.500

KMKG Gnd/Twr/App/Dep (Archives)
Muskegon, Michigan, United States

Feed Status: UP
Listen in your browser - HTML5 player(in browser, HTML5)
Click here to listen with your own player(launches your MP3 player)

KMKG 232355Z 19007KT 6SM HZ FEW150 BKN200 27/21 A3002 RMK AO2 SLP162 T02670206 10283 20261 56014

KMKG Airport Info (Airnav.com)

KMKG Flight Activity (Flightaware)

Listeners: 0 out of 1552 total

Muskegon Approach/Departure (North): 119.800
Muskegon Approach/Departure (South): 133.825
Muskegon Ground: 121.600
Muskegon Tower: 126.250

KMKG Ground (Archives)
Muskegon, Michigan, United States

Feed Status: UP
Listen in your browser - HTML5 player(in browser, HTML5)
Click here to listen with your own player(launches your MP3 player)

KMKG 232355Z 19007KT 6SM HZ FEW150 BKN200 27/21 A3002 RMK AO2 SLP162 T02670206 10283 20261 56014

KMKG Airport Info (Airnav.com)

KMKG Flight Activity (Flightaware)

Listeners: 0 out of 1552 total

Muskegon Ground: 121.600

KMKG Ground/Tower (Archives)
Muskegon, Michigan, United States

Feed Status: UP
Listen in your browser - HTML5 player(in browser, HTML5)
Click here to listen with your own player(launches your MP3 player)

KMKG 232355Z 19007KT 6SM HZ FEW150 BKN200 27/21 A3002 RMK AO2 SLP162 T02670206 10283 20261 56014

KMKG Airport Info (Airnav.com)

KMKG Flight Activity (Flightaware)

Listeners: 0 out of 1552 total

Muskegon Ground: 121.600
Muskegon Tower: 126.250

KMKG Tower (Archives)
Muskegon, Michigan, United States

Feed Status: UP
Listen in your browser - HTML5 player(in browser, HTML5)
Click here to listen with your own player(launches your MP3 player)

KMKG 232355Z 19007KT 6SM HZ FEW150 BKN200 27/21 A3002 RMK AO2 SLP162 T02670206 10283 20261 56014

KMKG Airport Info (Airnav.com)

KMKG Flight Activity (Flightaware)

Listeners: 0 out of 1552 total

Muskegon Tower: 126.250

KMKG UNICOM (Archives)
Muskegon, Michigan, United States

Feed Status: UP
Listen in your browser - HTML5 player(in browser, HTML5)
Click here to listen with your own player(launches your MP3 player)

KMKG 232355Z 19007KT 6SM HZ FEW150 BKN200 27/21 A3002 RMK AO2 SLP162 T02670206 10283 20261 56014

KMKG Airport Info (Airnav.com)

KMKG Flight Activity (Flightaware)

Listeners: 0 out of 1552 total

Muskegon UNICOM: 122.950

KMKL Tower (Air Race Classic Start)
Jackson, Tennessee, United States

Feed Status: DOWN
Offline since: 2019-06-20 14:39:02 UTC

Jackson Tower: 127.150

KMLB Twr/App (Archives)
Melbourne, Florida, United States

Feed Status: UP
Listen in your browser - HTML5 player(in browser, HTML5)
Click here to listen with your own player(launches your MP3 player)

KMLB 240023Z 26006KT 2SM RA BR FEW028 SCT042 BKN065 26/23 A3002 RMK AO2 VIS 1V5 LTG DSNT SE AND SW RAB16 P0007 T02560233

KMLB Airport Info (Airnav.com)

KMLB Flight Activity (Flightaware)

Listeners: 0 out of 1552 total

Melbourne Tower: 118.200
Orlando Approach: 132.650

KMMU ATIS (Archives)
Morristown, New Jersey, United States

Feed Status: UP
Listen in your browser - HTML5 player(in browser, HTML5)
Click here to listen with your own player(launches your MP3 player)

KMMU 232345Z 00000KT 10SM BKN120 24/20 A3009

KMMU Airport Info (Airnav.com)

KMMU Flight Activity (Flightaware)

Listeners: 0 out of 1552 total

Morristown ATIS: 124.250

KMMU Clearance Delivery (Archives)
Morristown, New Jersey, United States

Feed Status: UP
Listen in your browser - HTML5 player(in browser, HTML5)
Click here to listen with your own player(launches your MP3 player)

KMMU 232345Z 00000KT 10SM BKN120 24/20 A3009

KMMU Airport Info (Airnav.com)

KMMU Flight Activity (Flightaware)

Listeners: 0 out of 1552 total

Morristown Clearance Delivery: 128.600

KMMU Ground (Archives)
Morristown, New Jersey, United States

Feed Status: UP
Listen in your browser - HTML5 player(in browser, HTML5)